GFSGL_sfc_thetae_000.txt.gz
Theta_e
274 273 272 272 273 273 273 272 272 273 272 272 272 272 273 274 276 278 281 284 290 290 293 294 294 296 296 306 311 310 309 309 305 291 295 305 307 309 306 313 309 313 311
272 272 271 271 271 271 271 272 272 271 272 271 271 272 271 272 273 276 279 280 290 289 290 291 293 297 294 307 309 309 308 309 305 295 296 299 305 306 309 310 307 311 311
270 270 269 269 270 270 271 271 271 271 270 270 270 270 270 272 272 275 278 280 281 290 290 289 289 294 293 305 307 308 309 308 305 300 298 300 294 303 303 297 300 301 303
269 268 268 268 269 269 270 270 269 269 269 269 269 270 270 271 272 274 277 278 281 286 290 290 289 291 294 294 306 305 305 304 301 301 300 299 298 296 303 299 295 296 296
267 267 267 268 269 269 269 268 268 268 268 269 269 269 270 270 272 273 276 277 279 282 289 290 290 289 292 292 305 304 303 299 300 299 298 299 298 293 299 301 301 295 290
266 266 267 267 268 267 267 266 266 267 267 267 267 268 268 270 273 275 278 278 279 281 284 288 290 288 291 294 302 303 304 296 296 297 297 296 295 296 299 298 296 294 292
266 265 265 266 264 265 265 264 264 264 265 266 266 267 267 269 273 275 277 278 279 281 283 287 287 289 288 291 301 301 302 300 301 301 295 299 295 298 299 295 295 296 296
264 263 264 263 263 263 262 262 263 264 265 266 266 267 267 269 273 275 276 278 279 280 282 284 287 287 288 289 300 302 302 300 301 303 300 301 301 299 298 298 293 289 289
263 263 262 262 260 260 259 260 263 264 265 265 268 268 267 267 272 274 276 276 279 280 282 284 286 287 289 291 295 299 299 299 301 301 301 301 300 299 299 294 290 291 286
261 261 261 260 258 258 260 261 263 264 265 267 267 269 271 269 272 275 276 275 277 279 280 286 287 288 290 291 294 299 295 297 296 292 296 298 298 297 296 297 294 293 291
260 260 259 258 257 260 261 261 262 263 264 264 267 269 272 272 270 275 277 277 278 280 281 286 287 290 291 292 294 298 298 296 294 293 294 294 295 294 296 297 296 297 293
259 256 255 256 260 261 259 260 261 261 262 264 265 267 271 274 277 276 278 280 282 282 284 287 287 290 292 293 295 299 298 295 295 293 293 293 293 293 295 296 294 298 299
253 252 255 258 260 260 259 260 260 261 261 262 265 266 267 272 272 278 283 284 285 285 286 288 289 290 293 295 296 297 292 295 294 292 292 293 295 295 294 293 291 289 288
251 254 257 258 258 259 260 261 260 260 260 263 263 263 265 268 269 272 275 278 283 285 286 287 288 291 292 296 295 296 296 297 295 294 294 295 294 292 291 292 290 290 290
253 256 256 257 257 259 260 260 261 262 264 263 263 263 265 264 266 274 275 275 278 285 286 287 287 289 291 295 296 296 296 296 294 295 295 291 290 291 291 291 291 289 290
252 254 255 256 257 258 258 258 263 265 266 266 267 268 265 268 272 273 275 277 280 285 285 286 287 290 292 294 294 294 295 294 295 295 294 290 290 289 289 289 289 288 289
249 253 255 256 256 256 257 256 256 259 264 264 265 268 267 268 270 271 272 276 283 285 285 287 289 291 293 294 294 293 293 294 295 295 293 291 291 290 289 288 288 287 288
248 253 253 254 255 255 256 256 256 255 255 256 260 266 265 266 267 268 268 266 263 266 267 268 281 290 292 293 293 293 293 293 294 294 293 291 291 290 288 288 288 287 287
251 252 252 252 254 255 256 256 255 255 255 255 256 261 260 263 264 264 264 258 258 259 262 264 266 267 271 286 293 293 293 292 293 292 292 290 290 290 289 289 288 288 288
249 253 252 251 252 253 254 254 254 254 254 254 254 256 258 256 255 255 256 257 257 257 260 263 265 265 266 267 272 289 291 290 291 291 291 290 290 291 290 289 288 288 288
247 249 251 250 251 252 253 253 254 253 253 253 253 256 264 254 253 254 255 255 256 257 258 262 263 265 265 265 267 271 285 290 290 290 290 290 290 289 291 290 289 289 289
245 244 246 246 250 251 252 252 253 253 253 252 253 254 260 254 254 253 254 255 256 258 259 262 262 264 266 265 265 266 268 271 279 288 290 289 289 290 290 289 289 289 288
247 248 248 249 249 250 251 251 252 252 252 252 252 252 253 252 253 253 254 255 256 258 259 262 262 263 266 267 267 266 266 267 269 274 287 288 288 288 289 288 287 286 286
246 246 247 246 247 248 249 250 251 251 251 252 252 252 252 252 252 253 253 254 256 258 259 260 263 263 263 266 268 267 266 267 269 271 276 279 283 285 286 286 286 287 287
241 244 244 244 241 245 247 249 250 250 250 251 251 251 252 252 252 252 253 254 255 257 258 259 261 264 264 264 266 268 267 266 266 268 270 271 272 273 275 276 280 283 285
243 245 242 243 244 243 245 247 247 249 249 250 250 250 251 251 252 252 252 254 255 256 257 259 260 263 264 265 265 267 269 268 265 266 267 267 267 268 269 270 271 272 273

GFSGL_sfc_thetae_003.txt.gz
Theta_e
272 271 271 271 271 271 271 272 272 273 273 272 272 272 272 272 272 272 272 272 273 276 282 286 291 292 292 294 294 296 295 292 306 293 300 313 313 313 311 316 310 314 311
271 270 270 269 269 269 270 271 272 271 272 271 271 271 271 271 271 271 271 272 273 276 280 281 291 292 290 293 294 294 294 294 306 299 305 308 311 312 312 312 311 313 313
269 268 268 268 268 269 269 270 270 270 270 270 270 269 269 270 270 271 271 271 272 276 279 282 286 291 289 290 292 295 292 301 310 304 305 309 310 310 310 310 309 311 311
268 267 267 267 268 268 268 269 269 269 268 268 268 269 269 269 270 270 271 271 272 275 278 280 283 290 290 288 290 291 293 302 306 304 304 307 307 308 309 306 305 308 300
266 266 266 267 267 267 267 267 267 267 267 267 267 268 268 268 270 269 270 270 271 275 277 280 283 285 290 290 287 287 291 292 303 304 302 303 304 305 304 305 304 306 301
265 266 266 266 266 266 266 265 265 265 265 265 266 266 267 268 272 274 274 273 274 274 277 279 282 284 289 290 290 291 293 291 300 302 302 301 300 302 304 305 304 301 297
265 264 264 264 263 263 264 263 263 263 263 264 266 267 267 268 272 274 275 274 274 275 276 279 281 284 286 288 288 290 291 294 304 303 298 302 298 303 303 302 301 301 301
264 263 263 262 261 261 261 261 261 263 263 264 265 266 267 269 274 275 276 274 275 275 276 278 280 282 285 287 285 285 287 299 303 305 303 303 303 305 305 304 299 295 294
262 262 261 261 259 259 258 259 262 262 262 262 265 265 265 266 273 276 277 274 274 274 277 279 281 281 284 286 285 285 286 295 301 301 303 303 302 303 304 300 295 294 290
260 260 260 259 257 257 258 260 261 260 262 264 263 265 267 267 272 277 279 275 272 274 275 278 282 282 285 287 285 285 285 291 298 291 299 300 301 301 300 301 299 296 295
259 259 258 258 256 257 260 260 260 260 262 261 262 264 266 270 270 275 279 277 275 274 275 277 281 284 285 287 290 286 286 291 297 294 297 297 298 299 301 301 301 301 297
258 256 255 254 257 259 258 259 259 260 259 260 261 264 267 268 270 274 276 277 280 277 277 279 282 286 289 291 290 291 291 291 296 296 295 295 296 297 299 300 301 303 304
253 251 252 256 257 258 258 258 259 260 260 261 263 263 263 266 269 271 272 274 278 277 280 282 284 287 290 290 291 291 289 291 296 294 294 295 297 299 299 295 296 292 290
248 252 256 256 256 258 259 259 259 260 261 263 262 262 262 266 266 267 270 272 275 275 275 276 285 288 289 289 287 289 291 295 297 295 295 296 297 296 295 295 294 293 292
252 255 255 256 256 257 259 258 260 262 265 263 263 263 264 262 266 272 272 271 272 273 274 275 278 284 285 286 287 289 293 296 296 296 296 294 293 294 294 295 295 293 293
251 254 254 255 255 257 257 257 263 265 266 267 268 268 265 268 271 271 272 272 274 277 277 274 279 285 285 286 286 288 293 294 296 296 295 293 293 292 293 293 293 292 293
245 251 253 254 254 254 255 255 254 258 263 264 266 268 268 268 269 269 269 269 270 270 269 267 273 282 287 288 289 292 293 295 296 295 294 293 292 292 291 291 291 291 292
243 251 251 251 252 253 254 254 255 254 254 255 260 264 267 266 267 267 266 263 259 261 262 263 265 267 269 272 290 293 294 295 295 295 293 292 292 291 291 291 291 291 291
248 248 249 250 251 252 253 253 254 254 254 254 255 257 262 263 264 264 263 257 257 257 260 261 263 265 266 267 269 289 293 292 293 293 291 291 291 291 290 291 291 291 291
245 251 250 247 249 250 251 251 252 253 253 253 254 253 260 256 255 255 256 256 257 258 259 261 262 264 266 266 266 270 289 290 291 291 290 290 290 291 291 290 290 289 290
244 245 249 246 246 249 249 250 251 252 252 253 253 255 264 254 254 254 255 256 257 258 259 262 263 263 266 266 265 267 270 288 291 291 290 290 290 289 291 291 290 290 290
243 243 243 242 248 249 248 250 250 251 251 252 253 254 260 254 254 254 255 256 257 259 260 262 263 264 265 266 265 265 266 268 271 280 290 290 290 290 290 290 289 289 289
247 246 246 245 246 248 248 248 249 250 250 251 252 252 253 253 253 254 254 255 257 259 260 261 264 264 265 267 267 265 265 265 267 271 279 288 289 289 290 289 289 289 288
245 245 246 244 243 245 245 246 248 250 250 250 250 251 252 252 253 253 254 255 257 259 260 261 263 264 265 265 268 267 266 266 268 269 274 280 286 286 288 288 289 289 289
240 243 243 242 238 242 243 244 247 246 248 250 249 250 251 252 252 253 253 255 256 258 259 261 262 265 265 265 266 268 268 265 266 268 269 270 271 273 277 283 285 285 286
243 244 241 242 242 241 240 243 243 245 247 248 249 249 250 251 252 252 253 254 255 257 258 260 261 262 266 266 266 267 270 269 265 265 266 267 267 267 270 271 273 275 278

GFSGL_sfc_thetae_006.txt.gz
Theta_e
272 271 270 270 270 270 270 270 271 271 272 272 272 272 272 272 272 272 272 272 271 272 272 272 274 277 281 286 291 293 293 294 288 290 295 298 298 316 313 318 312 317 312
271 270 269 269 269 269 269 269 271 270 271 271 271 271 270 270 271 270 270 271 271 270 271 272 273 279 282 284 291 291 291 293 292 289 294 296 295 313 313 316 314 316 314
269 268 268 268 268 268 268 269 269 269 269 269 269 268 269 269 269 270 270 270 270 270 271 271 272 276 279 282 290 289 291 293 294 291 291 295 295 313 311 311 313 313 314
268 267 267 267 268 267 268 268 268 268 267 267 267 267 268 268 269 269 270 270 270 271 272 272 272 275 278 281 283 288 289 288 289 290 290 293 295 311 311 308 307 310 309
267 266 266 267 267 267 267 267 267 267 266 266 266 266 266 267 268 268 270 270 270 270 271 272 273 277 279 281 283 286 288 287 287 287 288 290 299 308 306 307 306 307 307
265 266 266 266 266 265 265 265 265 265 265 265 265 265 266 267 271 273 274 272 273 273 273 273 274 276 279 282 284 287 289 286 285 285 285 287 299 308 307 306 305 303 299
266 265 264 264 263 263 263 263 263 262 263 264 264 264 264 265 270 273 274 274 273 273 273 273 274 276 278 280 283 286 288 291 290 287 285 286 305 308 307 305 303 302 302
265 263 263 263 261 261 261 260 261 262 263 263 262 263 264 265 270 272 274 273 274 274 274 274 274 275 277 279 282 283 285 286 287 288 289 290 294 310 308 307 305 303 304
262 262 262 261 259 259 257 259 260 261 261 260 263 262 262 263 269 272 274 273 274 275 276 274 274 275 277 280 280 280 282 284 288 289 290 292 294 306 308 306 299 298 297
261 261 261 260 257 257 258 258 260 259 261 262 262 262 263 263 269 272 273 272 273 273 276 275 276 275 278 281 281 281 280 282 284 285 286 299 303 304 303 306 303 299 298
260 259 259 258 257 257 258 259 258 259 261 260 262 264 265 267 267 271 274 272 271 271 273 276 275 278 280 281 284 282 282 286 286 285 285 300 302 303 304 304 305 302 298
258 257 255 254 255 258 256 257 258 259 259 260 262 264 265 266 269 271 272 273 274 272 273 276 277 280 281 284 284 286 287 286 285 284 285 297 300 301 302 303 304 304 304
253 252 250 254 256 257 256 257 258 259 260 261 263 263 263 266 267 270 271 274 274 272 274 275 278 279 281 283 286 288 286 286 285 284 285 296 300 302 303 301 302 301 301
251 255 257 256 255 257 258 259 258 259 260 263 262 262 262 265 265 268 269 269 271 271 272 272 274 277 280 282 284 287 286 286 285 285 288 297 299 299 298 299 299 299 296
254 256 255 254 254 256 258 257 260 262 265 264 263 263 262 263 266 270 269 268 268 271 272 272 272 275 276 282 285 285 286 286 286 287 292 295 295 296 296 297 297 295 294
254 254 254 254 254 256 256 256 262 265 266 267 268 267 266 269 270 270 270 269 270 270 268 269 272 273 275 281 284 285 285 285 287 290 294 294 294 295 294 294 296 295 294
249 252 252 253 253 253 253 254 253 257 263 264 265 267 269 268 269 269 268 267 268 265 261 262 263 265 267 270 272 279 285 287 290 293 293 294 294 294 292 293 293 294 294
243 251 249 250 250 250 251 252 252 252 252 254 259 264 267 267 267 267 266 262 259 261 260 262 262 263 266 267 268 269 271 282 291 293 293 293 292 292 291 292 292 293 293
248 247 246 247 247 249 250 250 251 251 252 253 254 258 262 264 265 264 264 257 257 258 259 261 263 263 264 266 266 267 268 269 290 292 292 291 291 291 291 292 292 292 292
244 251 248 244 246 247 248 249 250 250 251 251 253 252 260 256 255 256 257 257 257 258 260 261 263 264 264 266 266 265 266 268 285 291 290 291 291 292 291 291 291 291 291
244 244 248 244 243 244 244 246 248 248 249 250 252 254 265 255 255 255 256 256 256 258 260 260 264 264 265 266 266 264 265 266 269 280 289 290 290 290 291 292 291 291 291
245 242 242 241 245 247 245 246 246 247 248 249 250 252 260 254 254 255 255 256 257 259 260 261 262 264 265 265 266 265 264 264 266 268 271 289 289 290 290 290 290 291 290
247 247 245 244 244 246 246 244 246 247 248 247 249 251 252 253 254 254 255 256 257 258 260 262 262 264 265 266 267 267 264 264 265 267 269 276 289 289 289 289 289 289 289
247 246 246 243 243 243 243 243 246 246 247 247 247 249 250 251 253 253 254 255 257 258 260 261 262 262 266 266 266 268 268 266 266 267 269 273 286 288 289 289 289 289 289
243 245 244 242 238 240 241 242 245 241 243 247 247 248 249 250 252 253 254 254 256 257 259 260 262 263 265 266 266 266 269 266 265 266 267 268 270 273 279 286 287 288 289
244 244 242 242 241 239 239 241 240 243 242 246 246 247 249 249 250 252 253 253 254 256 258 260 262 262 263 266 266 267 269 270 266 265 266 266 266 267 269 271 274 280 284

GFSGL_sfc_thetae_009.txt.gz
Theta_e
274 273 272 272 272 271 271 271 271 272 272 272 272 272 272 272 273 273 273 273 273 273 274 274 274 274 274 275 276 278 281 283 286 291 294 296 295 295 297 300 302 319 315
272 272 271 271 270 270 270 270 271 270 271 271 271 271 271 271 271 270 271 271 271 270 271 272 272 274 273 275 276 280 282 283 288 288 292 293 293 296 297 298 297 316 318
271 270 269 269 269 269 269 269 270 270 270 270 270 269 269 269 269 269 269 270 270 271 271 271 271 272 272 273 274 277 282 284 290 290 290 293 292 294 293 296 299 305 315
269 268 268 268 269 268 269 269 269 269 268 268 268 268 268 268 268 268 269 269 270 270 271 272 272 272 272 272 274 275 280 281 286 289 288 289 292 293 293 293 292 310 310
268 267 267 268 268 268 268 268 268 268 267 267 267 266 267 267 268 268 270 271 271 272 273 273 274 274 274 275 274 276 279 281 282 287 287 287 288 289 291 294 294 307 307
267 267 267 267 267 266 266 266 266 266 266 265 265 266 266 267 269 272 272 271 272 272 272 273 275 275 276 277 278 279 280 279 280 284 286 285 286 287 290 291 294 302 302
268 267 265 265 264 265 264 264 264 264 264 264 265 265 264 265 270 272 273 272 271 272 272 273 274 276 276 276 277 279 280 284 285 283 285 286 286 287 288 288 291 298 305
266 264 264 264 263 263 262 262 262 263 263 263 263 263 264 266 270 271 273 272 272 272 273 274 275 275 276 276 275 275 277 281 284 286 287 288 289 289 289 288 288 302 306
264 264 263 263 261 261 259 261 262 262 262 261 263 263 263 263 269 272 273 271 270 271 273 275 275 275 278 279 276 275 276 278 284 287 288 289 290 290 290 287 283 298 298
263 263 262 262 259 258 260 259 261 260 261 263 263 263 264 264 269 272 273 271 269 270 271 273 275 275 278 280 277 276 275 276 280 282 284 286 288 288 289 287 286 291 299
262 261 261 260 258 258 258 259 259 259 261 260 262 264 266 267 267 271 273 271 270 270 271 272 274 276 278 281 281 277 277 280 281 283 284 285 286 287 288 289 294 288 300
260 259 258 257 256 259 255 257 258 258 258 260 262 265 266 267 268 270 272 274 274 270 270 271 273 276 278 280 281 282 283 282 282 283 282 283 285 286 288 292 297 298 306
257 256 256 257 257 257 255 257 258 259 260 261 264 264 264 266 267 270 272 273 272 270 270 272 274 276 278 278 279 281 282 283 282 283 282 284 286 288 288 293 301 304 304
255 258 259 258 257 257 258 259 257 259 260 264 263 263 264 265 266 269 269 269 270 270 270 270 272 274 276 277 277 280 282 283 284 284 284 286 287 287 286 301 301 301 300
257 258 257 257 254 257 258 257 260 262 265 265 264 265 264 265 267 271 270 268 267 269 266 266 269 271 273 276 276 280 283 284 284 285 285 285 286 285 290 301 300 299 297
258 257 256 256 255 256 256 256 261 264 267 267 268 268 267 270 271 271 270 270 269 269 263 263 264 265 266 268 270 271 277 284 285 285 285 286 285 286 295 298 298 297 297
255 255 255 255 255 254 253 253 252 256 262 264 265 268 269 269 270 270 269 267 267 266 260 262 263 264 265 266 268 269 270 273 274 284 285 286 286 291 292 295 295 296 295
253 253 252 252 251 251 251 251 251 251 251 253 259 264 266 267 268 269 268 263 259 261 261 260 263 264 264 265 267 267 267 269 271 273 282 286 289 291 292 292 294 294 293
253 252 251 249 249 250 250 250 250 250 250 251 253 258 259 264 265 265 265 259 258 258 259 261 262 264 264 265 266 267 266 266 267 269 273 288 291 290 291 292 293 292 292
252 252 250 249 248 249 249 249 249 249 250 250 251 253 259 256 255 256 258 258 258 258 259 260 262 264 265 265 265 267 265 265 266 267 268 288 290 291 291 292 292 291 292
251 251 250 248 247 247 246 246 247 247 247 248 249 251 265 254 254 255 256 257 257 258 260 260 262 262 265 265 265 266 266 265 265 266 267 270 289 289 290 292 291 292 292
251 249 248 247 248 248 246 247 247 246 247 247 248 250 259 253 253 255 255 256 257 259 260 261 262 263 264 265 265 266 266 264 264 264 266 268 273 290 290 290 290 291 290
251 249 249 247 247 247 247 245 246 246 247 246 247 249 250 250 252 254 254 256 257 258 260 261 263 263 264 266 267 266 267 264 264 265 266 267 271 285 289 290 289 289 290
251 251 250 246 246 245 245 244 246 246 246 247 245 246 248 249 250 252 253 255 256 257 260 260 262 262 263 266 267 267 269 267 266 266 266 267 269 283 289 289 289 290 290
249 250 249 247 243 244 244 244 246 242 243 246 246 246 247 249 250 251 252 254 255 256 258 260 262 262 263 267 267 267 269 268 266 266 266 266 267 269 274 285 287 288 289
248 248 246 244 244 241 241 244 243 244 243 246 245 245 246 247 249 250 251 252 253 255 257 259 261 262 263 267 268 268 269 270 267 266 266 265 265 265 267 269 273 282 287

GFSGL_sfc_thetae_012.txt.gz
Theta_e
282 281 279 278 278 277 277 277 277 277 276 276 276 276 276 276 276 276 276 276 275 276 276 276 276 277 277 278 278 277 277 277 273 276 283 287 289 293 297 299 298 298 298
281 279 278 277 276 276 276 276 276 275 275 275 275 274 274 274 275 274 274 274 273 273 273 274 274 275 275 276 276 276 275 276 275 275 281 282 284 292 297 298 298 300 299
278 277 276 276 275 275 275 274 274 274 274 274 274 273 273 273 273 273 272 272 272 272 272 272 273 273 274 274 275 274 275 276 276 275 277 286 287 290 295 297 296 295 296
276 276 275 275 274 274 273 273 273 273 272 273 272 272 271 271 271 272 272 272 272 273 273 274 274 274 274 274 274 274 275 274 275 275 277 283 284 290 294 292 292 294 294
275 275 275 274 273 272 272 272 272 272 271 271 271 270 271 271 271 271 272 272 272 273 274 274 274 275 276 276 275 275 274 274 274 275 277 281 282 289 290 292 289 291 293
274 274 273 271 271 271 271 270 270 270 270 270 269 270 270 270 272 273 273 273 272 272 272 274 274 275 275 277 278 279 279 275 274 275 277 278 280 287 291 289 288 286 286
273 272 271 270 269 269 268 268 268 268 268 268 269 269 268 269 272 273 274 273 273 273 273 273 273 275 275 276 278 279 279 280 281 279 277 279 280 284 289 288 288 286 286
272 269 269 268 267 267 266 266 267 268 267 268 267 267 268 269 271 272 273 273 273 273 274 274 273 274 275 276 276 277 278 278 278 279 279 281 284 285 286 289 288 286 286
270 269 268 267 266 265 264 265 266 267 266 266 267 267 266 266 270 272 273 272 272 272 273 274 273 273 275 276 275 275 277 278 280 280 281 282 286 288 289 287 285 284 283
269 268 267 266 264 263 264 264 266 265 265 266 266 266 266 266 270 272 273 272 271 272 273 274 275 274 276 277 276 276 275 278 278 278 279 281 283 287 288 288 286 283 284
268 266 265 265 263 263 263 264 263 263 265 264 265 267 268 269 269 272 274 272 272 272 272 271 272 274 275 276 277 277 278 281 279 278 279 280 283 285 286 287 287 285 284
265 265 264 262 263 264 260 262 262 263 263 264 265 268 269 269 270 272 274 275 275 270 270 271 271 274 275 276 276 278 280 281 281 279 279 279 281 283 286 287 288 287 287
263 261 261 262 262 262 261 262 264 264 264 265 267 267 267 269 270 272 274 274 273 270 270 272 272 273 275 275 276 278 278 277 278 280 279 279 283 285 286 287 288 289 289
261 262 262 262 262 262 264 264 264 265 265 266 266 266 267 268 269 272 272 271 271 270 270 267 270 271 273 275 275 277 278 278 278 279 281 282 284 284 284 287 286 287 286
262 263 262 262 262 262 263 263 264 266 266 267 267 267 266 267 269 273 272 270 269 270 267 265 266 268 268 269 270 272 273 275 277 280 282 283 284 284 285 287 287 286 285
262 262 262 262 262 261 262 263 263 264 266 267 268 269 268 271 272 272 273 271 270 270 263 263 263 265 266 267 267 268 270 271 272 274 279 283 283 284 285 286 286 286 286
262 261 260 260 260 260 260 261 261 262 263 264 265 267 269 270 271 271 271 270 269 267 262 261 263 263 265 266 267 267 268 269 270 271 273 275 285 285 285 285 285 286 294
260 260 260 260 259 259 258 258 258 257 257 259 262 265 266 268 269 269 269 266 262 263 262 261 261 263 263 265 266 266 267 269 269 269 270 272 274 282 285 285 286 291 295
258 258 258 257 257 257 257 257 257 257 257 257 258 261 261 265 266 266 266 261 260 260 260 261 262 263 263 264 265 266 266 267 267 266 268 269 271 274 284 286 291 293 293
258 256 257 257 256 256 256 257 257 256 256 256 257 257 258 260 259 259 260 260 260 260 261 261 262 263 264 264 266 266 265 267 266 265 266 267 268 269 286 289 291 291 293
258 255 256 256 256 256 255 255 256 256 255 255 255 255 264 257 257 258 259 259 259 259 260 261 262 263 264 265 266 266 266 267 266 265 265 266 267 268 286 289 288 291 292
257 256 256 256 255 255 254 255 255 255 255 255 255 256 259 256 256 257 258 258 259 260 261 261 262 263 264 264 267 266 266 266 265 265 265 266 267 270 275 289 288 290 290
256 255 255 255 255 252 253 254 254 255 255 254 254 254 255 255 255 256 256 257 258 259 260 261 262 263 264 265 268 267 267 267 265 265 265 266 267 268 271 287 288 288 290
256 256 255 254 254 255 254 254 254 252 253 254 254 253 254 253 254 255 256 256 257 258 260 261 262 262 263 265 268 268 268 269 267 265 266 266 266 267 270 286 288 289 290
256 256 255 254 253 254 252 254 254 253 253 254 253 253 253 253 254 254 255 255 255 256 258 260 261 262 264 265 268 268 268 270 267 266 266 266 265 266 267 271 283 288 289
255 255 254 253 253 252 253 254 253 253 252 253 253 252 252 252 253 253 254 253 254 255 257 259 261 262 264 266 269 270 269 270 268 267 266 266 265 264 265 266 269 274 286

GFSGL_sfc_thetae_015.txt.gz
Theta_e
287 287 285 284 283 283 281 281 281 280 279 278 278 278 277 277 278 277 277 277 277 277 277 277 277 278 277 277 278 278 277 276 273 275 277 279 279 279 281 283 288 290 292
287 285 284 283 281 280 280 279 280 278 278 278 277 277 276 276 276 276 275 275 275 275 275 275 275 276 275 275 275 275 275 275 274 272 275 276 276 278 279 281 284 287 289
286 284 282 280 279 279 278 278 278 277 277 277 276 275 275 275 274 274 274 274 274 274 274 274 274 274 274 274 274 274 274 275 275 273 272 275 276 277 278 281 286 288 290
284 281 279 279 278 278 278 277 276 276 275 275 275 274 274 273 273 273 273 273 273 274 275 275 275 275 274 274 274 274 274 273 273 273 272 273 274 277 277 279 283 286 289
281 279 278 278 278 277 276 275 275 274 274 274 273 273 273 273 273 273 273 273 273 274 275 275 275 275 276 276 275 274 274 274 273 272 272 273 273 275 277 280 282 287 290
279 278 278 277 276 275 275 274 273 273 272 272 272 272 271 272 274 275 275 274 274 273 272 273 275 275 275 277 277 278 277 274 273 273 273 272 273 275 277 278 280 284 285
278 277 276 275 273 273 273 272 271 271 271 271 271 271 271 271 274 275 275 274 273 273 273 273 273 275 275 274 275 276 277 278 279 277 275 276 276 278 278 278 279 279 284
277 275 274 273 272 271 270 269 270 270 270 270 270 270 269 271 273 274 275 274 273 273 273 273 273 273 274 274 273 273 274 274 277 277 277 277 278 279 279 280 280 282 283
275 273 272 272 270 269 268 269 269 269 269 269 269 269 268 268 272 274 275 273 272 273 274 274 274 274 276 276 273 273 273 274 277 279 280 281 283 282 281 279 278 280 282
274 272 271 270 269 268 268 268 269 268 268 269 268 268 268 268 272 274 275 273 272 273 274 275 275 273 275 276 273 272 270 272 274 276 278 279 281 282 283 281 280 279 281
272 270 270 268 268 268 268 268 267 266 267 266 267 269 270 271 271 273 275 274 273 273 272 271 272 274 275 276 276 273 273 275 274 275 276 278 279 279 279 280 281 282 281
269 268 267 267 267 266 265 265 265 265 265 266 267 269 271 271 272 273 275 276 276 271 270 271 271 274 274 275 275 277 278 277 275 275 275 277 277 278 279 280 282 284 286
267 266 265 265 266 265 263 264 265 265 266 267 268 268 268 270 270 273 274 275 275 271 271 272 272 272 272 273 274 275 274 275 274 274 274 275 278 280 281 281 283 284 285
265 265 264 264 264 264 265 265 266 266 266 267 267 267 268 268 269 271 272 272 273 271 272 267 269 270 270 271 270 271 271 272 272 273 276 277 279 280 280 282 282 284 284
265 264 264 264 264 264 266 266 266 267 267 267 267 267 267 266 269 273 273 271 271 271 268 265 264 265 266 266 267 268 269 270 270 271 271 273 276 279 281 282 283 283 282
265 264 264 264 264 265 264 263 266 267 267 267 268 268 269 271 272 273 273 273 272 272 264 262 263 263 264 265 264 266 268 268 268 270 270 271 273 276 281 283 283 283 283
265 265 264 264 263 263 264 264 262 263 265 265 266 267 269 270 271 271 272 271 269 268 261 261 261 262 263 264 264 265 266 267 268 269 269 269 270 271 274 281 282 284 283
265 264 263 263 263 263 263 262 262 262 261 262 263 265 267 269 269 270 270 266 261 262 261 261 261 262 263 264 264 264 266 267 267 268 267 267 267 268 270 273 281 284 284
263 263 263 262 262 262 261 260 260 259 259 259 260 262 262 266 267 267 267 260 259 259 260 260 262 262 263 264 264 264 266 266 267 267 266 266 266 266 267 270 273 279 284
262 261 260 260 259 259 260 260 259 258 258 258 258 258 258 260 259 259 260 259 259 259 259 260 261 262 263 263 264 264 266 266 267 266 265 265 265 266 267 268 269 274 283
260 259 259 259 259 259 259 259 259 258 257 257 257 257 265 256 256 257 257 258 258 258 258 259 260 262 263 263 264 265 266 266 267 265 264 264 265 265 266 268 269 271 285
259 259 259 259 259 258 258 258 258 257 256 256 256 257 260 257 256 255 256 257 257 258 258 259 260 261 263 263 264 266 266 266 267 265 264 264 265 266 267 268 270 276 289
259 259 258 258 258 256 257 257 256 257 256 255 256 256 255 255 254 255 255 256 256 256 258 258 260 261 263 264 265 268 267 267 267 266 265 264 265 265 266 267 270 285 288
259 258 258 257 256 257 256 256 255 255 256 255 255 254 254 253 254 254 255 255 255 255 256 258 259 260 261 263 266 268 269 270 268 266 266 265 264 264 265 267 268 286 287
259 258 257 257 256 257 256 255 256 255 255 255 254 254 253 254 254 253 254 254 254 254 254 256 259 259 261 262 266 268 270 270 268 267 267 266 265 264 264 266 267 271 287
258 258 257 257 256 256 256 255 255 255 254 254 254 253 253 253 253 253 253 253 253 252 254 256 257 259 261 264 265 270 271 271 269 267 267 266 265 264 264 264 265 267 270

GFSGL_sfc_thetae_021.txt.gz
Theta_e
287 287 286 285 285 283 283 282 281 280 279 278 277 277 276 276 276 276 276 276 275 276 276 276 276 277 275 275 276 276 275 275 272 274 277 277 277 276 277 278 278 277 278
287 286 285 283 282 282 281 280 279 278 277 277 276 276 276 276 275 275 274 275 274 274 275 274 274 275 274 274 274 274 274 274 273 271 274 274 274 276 276 275 276 277 277
287 284 283 282 281 281 280 278 278 277 276 276 276 275 275 275 274 274 274 274 274 273 273 273 273 273 273 273 273 273 274 275 274 272 272 274 274 275 274 275 275 276 277
285 283 282 282 281 280 278 278 277 277 275 275 275 274 274 274 274 274 274 273 273 273 273 273 273 273 273 273 274 274 274 273 273 272 272 272 273 275 275 273 273 275 275
284 283 282 282 280 277 277 277 276 275 275 274 273 273 273 273 273 273 273 273 273 273 274 274 274 275 276 276 275 274 274 274 273 273 272 273 273 273 273 274 273 274 275
284 283 282 279 277 277 277 276 275 274 274 274 273 273 272 273 276 277 276 274 274 274 274 274 274 274 275 277 278 279 278 274 273 273 273 272 272 273 273 273 272 272 270
283 282 279 278 276 276 276 275 274 273 274 273 272 273 272 273 277 278 278 276 275 274 273 273 274 274 274 274 276 278 278 278 279 276 273 273 273 274 274 273 272 272 271
282 279 277 276 276 275 274 274 273 273 272 272 272 272 272 272 276 277 277 275 274 274 274 273 273 274 275 275 274 274 275 275 276 276 275 275 275 276 276 275 274 273 274
279 278 276 276 275 273 273 272 272 272 272 271 272 271 271 272 276 275 275 275 274 273 274 274 274 274 275 277 275 274 273 273 277 278 278 279 280 280 280 277 274 273 271
278 277 276 275 274 273 273 272 273 273 271 271 271 271 271 269 274 275 276 274 269 272 273 275 275 274 276 277 275 273 270 271 271 273 274 274 274 274 277 277 275 271 271
276 275 274 274 273 273 272 272 272 272 271 270 269 269 269 269 270 275 276 273 272 271 273 272 273 275 277 277 277 273 270 274 273 268 268 270 271 272 274 276 276 274 272
273 273 273 272 272 272 270 269 271 270 269 268 267 268 269 270 272 274 275 275 276 267 270 272 272 275 275 275 274 274 275 274 267 266 266 267 268 270 271 274 276 277 277
272 271 271 271 270 270 270 269 268 268 268 267 267 268 269 270 270 274 274 274 274 273 272 272 273 272 272 271 271 272 270 267 266 265 265 267 269 270 271 271 273 275 276
271 270 269 268 268 268 269 269 268 267 267 268 268 268 268 269 269 270 270 271 273 271 271 266 268 269 269 269 267 268 267 267 266 266 266 268 270 270 269 270 270 271 270
271 268 268 269 267 267 268 268 268 269 270 269 269 269 267 267 268 270 271 270 266 270 262 258 260 263 264 264 265 265 266 266 266 267 266 266 268 268 268 270 269 268 267
270 268 268 268 267 267 267 268 272 272 274 274 273 270 269 271 274 274 273 272 271 270 255 252 259 261 261 262 262 263 264 265 266 266 266 267 267 267 268 268 268 267 266
270 269 268 268 267 266 267 267 267 272 275 274 274 273 272 272 274 273 272 269 269 263 250 252 256 259 260 261 262 262 263 264 266 266 265 267 268 268 266 265 266 266 265
271 269 268 267 266 267 267 267 268 268 268 268 273 273 273 273 273 272 269 263 256 255 249 250 252 256 258 259 260 261 262 263 264 265 265 268 268 266 265 264 265 264 264
270 268 268 267 267 267 267 267 267 267 266 265 264 269 269 272 272 270 264 255 251 249 247 248 251 254 257 258 259 260 261 262 263 264 265 268 267 266 265 265 265 265 264
270 269 267 267 266 265 265 264 264 264 263 262 262 260 259 259 256 255 252 248 246 248 248 248 250 252 255 256 258 259 260 261 262 265 265 268 267 266 265 265 264 264 264
269 267 267 266 266 265 265 264 263 262 261 261 260 259 262 258 255 253 249 247 247 246 248 247 248 251 254 255 256 258 259 261 263 264 267 267 266 265 265 265 265 265 264
267 266 265 264 264 263 263 263 262 261 260 259 258 259 266 255 253 252 249 248 247 246 245 247 247 250 253 254 256 257 259 260 263 264 267 266 266 265 265 264 264 264 264
264 264 263 262 262 261 261 261 260 259 258 258 258 256 255 253 251 249 247 246 246 244 245 246 245 250 253 254 256 257 258 261 264 267 267 266 265 265 265 264 264 263 263
263 262 262 261 261 260 260 259 259 258 257 256 256 254 254 251 248 248 246 243 242 244 246 246 245 248 251 253 255 257 260 262 266 269 267 266 265 265 264 264 264 263 263
262 261 261 260 259 259 258 258 257 257 256 256 254 254 252 252 250 248 246 245 244 244 246 247 246 249 250 252 253 255 259 263 268 269 267 266 265 264 264 264 263 263 263
261 260 260 259 258 258 257 257 256 256 255 255 254 254 253 252 251 249 247 246 246 246 247 247 248 249 250 253 255 259 263 267 272 268 267 266 265 264 264 264 263 263 262

GFSGL_sfc_thetae_024.txt.gz
Theta_e
288 288 288 287 286 286 283 283 282 281 281 280 280 279 278 277 277 276 276 276 276 276 276 276 276 277 276 276 276 276 275 275 271 274 276 277 276 276 277 277 278 277 278
288 287 287 285 284 285 283 282 281 281 280 280 279 278 277 277 276 276 275 276 275 275 275 275 275 276 274 275 275 274 274 274 273 270 273 274 274 276 276 276 276 278 277
287 285 284 283 283 284 283 282 281 280 279 279 278 277 276 276 275 275 275 274 274 274 274 274 274 274 273 274 273 273 273 274 273 272 271 274 274 275 275 275 276 277 278
285 285 284 284 284 284 283 280 280 279 278 278 277 277 276 275 275 275 275 273 273 273 274 274 274 274 273 274 274 274 274 273 273 272 271 272 273 275 275 274 274 276 276
286 285 285 284 284 283 280 279 279 278 278 277 276 275 275 274 274 274 274 273 273 273 274 274 275 275 276 276 275 274 274 273 273 272 272 273 273 273 273 275 274 274 275
286 285 285 283 282 281 279 279 278 277 276 276 275 274 273 274 279 279 275 273 273 273 274 275 275 275 275 277 278 279 278 275 273 273 273 273 273 274 275 274 273 272 269
285 285 283 282 280 279 278 278 277 276 275 275 274 274 273 273 280 280 278 275 274 275 275 274 274 275 275 274 276 277 278 278 279 276 273 273 273 274 274 273 273 272 272
284 283 281 279 279 277 276 276 276 275 274 274 273 273 273 274 280 281 280 276 275 275 274 275 274 274 274 275 275 274 275 275 276 277 276 275 276 276 276 276 275 276 276
281 281 279 279 277 275 275 275 275 274 274 273 274 274 274 273 280 281 279 275 275 275 274 275 274 274 276 277 275 273 274 275 278 278 278 279 280 279 277 274 270 269 267
278 278 276 278 277 275 276 275 275 274 274 274 273 273 272 270 279 280 279 273 273 273 274 274 276 275 276 277 275 274 271 272 272 272 274 273 273 272 274 273 270 267 268
275 275 275 276 276 276 275 275 274 274 273 272 272 271 271 270 275 279 279 273 272 272 272 273 273 275 276 278 278 274 272 274 274 270 268 268 269 270 270 272 272 271 269
273 273 274 274 275 274 273 273 272 272 271 270 270 269 270 270 272 278 279 278 276 271 271 272 272 274 276 276 275 274 275 274 267 266 265 266 267 268 270 271 272 272 272
272 274 273 274 274 273 272 272 271 272 271 270 270 269 269 270 271 277 279 279 278 273 272 272 274 273 272 271 271 273 271 267 266 264 265 266 268 270 270 270 271 272 272
275 274 273 273 272 272 272 272 271 270 270 269 269 268 269 269 270 273 273 274 276 273 272 268 268 269 269 269 267 268 267 267 266 265 266 267 268 268 268 270 269 269 269
275 273 272 273 272 271 272 271 272 272 272 270 270 270 269 268 270 272 271 269 268 270 261 258 261 263 264 264 265 265 266 266 265 266 266 265 266 267 267 270 270 268 266
273 272 271 271 270 270 270 270 276 275 276 276 275 273 272 273 274 275 275 275 275 272 255 254 259 261 261 262 262 262 263 264 265 265 265 265 265 265 266 269 269 267 265
274 272 271 271 269 269 269 268 268 273 276 277 277 276 274 275 276 277 277 275 274 265 251 253 256 259 259 260 261 261 261 263 264 264 264 264 265 266 267 267 267 267 265
274 275 271 270 269 269 269 269 269 269 270 271 276 275 276 277 277 276 275 271 264 257 251 251 252 255 257 258 259 259 260 261 262 262 263 263 265 265 267 266 266 265 265
274 273 271 270 269 269 269 269 269 270 270 270 271 273 275 277 276 275 272 259 257 253 251 251 252 254 255 256 256 256 257 258 260 260 261 263 264 267 266 266 266 266 265
273 273 270 269 268 268 268 268 269 270 269 269 270 269 269 272 267 260 256 254 252 254 253 252 251 251 252 251 253 254 256 257 259 260 261 263 264 267 266 265 265 265 264
271 271 269 268 267 267 268 268 269 268 267 268 266 266 267 265 260 258 255 253 252 253 253 251 251 250 249 248 250 253 254 257 258 260 261 263 266 265 266 266 265 265 265
270 269 268 267 266 266 267 267 267 265 265 262 261 267 270 260 258 256 254 252 253 252 250 249 249 249 249 249 250 252 253 255 258 260 261 263 266 265 265 265 265 265 264
268 267 266 266 266 266 266 265 264 264 263 261 263 265 259 258 256 255 254 253 252 250 248 247 248 248 249 249 250 252 253 255 258 260 261 265 265 264 264 264 264 264 264
266 265 264 264 264 264 263 263 262 262 261 261 260 259 258 256 255 254 253 252 250 249 247 247 247 248 249 249 250 252 254 256 259 261 264 265 264 264 263 263 263 264 263
264 263 262 262 262 262 261 260 260 260 261 260 258 257 255 255 254 254 252 251 250 249 248 247 246 247 248 248 250 251 254 258 262 264 266 264 263 263 263 263 263 263 263
262 262 262 262 261 260 260 259 258 259 258 257 256 256 255 255 254 253 252 251 251 250 248 247 247 248 248 250 252 255 261 264 265 270 262 264 263 263 263 262 262 262 263

GFSGL_sfc_thetae_027.txt.gz
Theta_e
288 288 288 288 288 287 285 285 285 284 283 283 282 281 281 280 279 278 278 277 277 276 276 277 276 277 276 276 277 276 275 275 271 274 276 276 276 276 277 277 278 277 278
289 288 287 288 287 286 286 284 285 283 283 283 282 281 280 280 279 278 277 277 276 276 276 276 275 276 275 275 274 274 274 274 273 271 274 274 275 276 276 275 277 278 278
288 287 287 286 285 286 286 284 283 283 282 281 281 280 280 279 278 278 277 276 276 275 275 275 274 274 274 273 273 273 273 274 273 272 271 274 274 275 275 276 277 277 278
285 285 286 286 285 286 286 284 282 282 281 280 280 280 279 278 278 277 276 275 274 274 275 275 274 274 273 273 273 273 274 273 273 272 272 272 274 276 276 274 274 276 276
286 285 286 286 286 286 284 283 282 282 281 280 279 278 278 277 277 276 275 275 274 273 274 274 274 274 276 275 274 273 273 272 272 272 272 273 273 274 273 275 274 274 275
285 285 286 284 284 284 283 282 281 280 279 279 278 277 276 276 281 281 277 274 274 273 272 273 274 274 275 278 279 280 278 271 270 271 272 273 273 274 275 274 273 272 270
284 285 284 284 283 283 282 280 280 279 278 278 277 276 276 276 282 282 280 275 274 273 273 274 275 275 275 275 277 278 278 279 280 276 273 273 273 274 274 273 273 273 273
282 283 281 283 282 281 280 279 278 278 277 276 276 276 275 275 283 283 280 275 274 274 275 275 275 275 275 274 274 274 274 275 276 276 275 275 276 277 276 276 276 273 272
281 280 280 280 280 278 277 277 277 277 276 276 276 276 275 275 283 283 280 275 275 275 275 275 275 274 276 277 276 272 274 275 278 280 280 280 280 280 280 274 269 267 266
279 280 279 279 280 277 278 277 278 277 277 276 275 275 275 275 283 283 281 276 274 274 274 275 276 275 276 277 274 270 271 273 274 272 273 275 275 273 275 273 270 266 266
277 276 276 276 277 277 276 275 275 275 275 274 274 274 274 275 280 283 282 276 274 273 273 273 274 278 278 277 278 274 272 275 273 272 269 269 270 270 271 271 271 270 267
275 274 274 275 276 276 275 273 274 274 273 272 271 271 273 274 279 283 283 278 277 272 273 274 274 276 276 277 276 276 276 275 266 265 265 266 267 268 270 271 272 272 272
275 275 274 275 275 275 273 272 273 273 272 271 271 270 270 271 275 282 282 280 278 273 274 274 275 276 275 273 272 273 271 268 266 263 264 266 268 269 271 270 271 271 271
277 276 274 274 274 274 275 274 273 272 272 272 272 271 270 270 272 276 278 279 278 275 276 273 272 271 271 270 268 269 268 267 266 265 265 267 268 268 267 269 267 268 267
278 277 275 274 274 273 274 274 274 275 275 273 273 272 270 269 270 275 277 276 276 273 267 265 265 265 265 265 265 265 266 266 265 266 265 265 265 266 266 268 267 267 266
273 276 276 274 273 273 272 272 278 277 278 279 278 275 273 275 276 278 279 278 277 276 264 263 264 264 264 264 263 263 264 264 264 265 264 264 264 264 265 265 267 266 266
268 271 275 273 273 272 271 271 270 275 278 279 279 278 277 276 277 278 278 278 278 275 263 263 263 263 263 263 262 262 261 263 264 263 263 263 263 264 263 264 265 267 266
266 268 271 274 273 271 271 271 271 271 271 272 278 278 278 277 278 278 278 278 273 266 261 261 260 260 260 260 260 260 260 260 261 261 261 261 261 262 262 263 264 265 265
264 266 269 274 273 272 271 270 270 271 271 272 274 277 276 279 279 279 279 273 265 260 259 258 258 258 258 258 257 256 255 256 258 257 258 259 260 261 262 263 265 264 264
263 265 268 272 271 270 269 269 269 270 270 271 272 272 274 276 275 275 264 264 262 260 258 258 256 255 255 254 252 252 253 254 255 255 257 259 260 262 262 264 264 263 263
262 264 267 271 269 268 268 269 269 270 270 270 271 273 276 274 272 262 261 261 260 259 258 257 255 254 253 251 249 250 251 254 254 255 257 259 260 261 263 265 264 263 263
264 264 266 269 267 267 268 269 269 270 270 269 269 272 277 265 263 261 260 258 258 258 256 255 254 253 252 251 249 249 250 252 253 254 257 259 259 261 264 264 263 263 263
265 265 267 267 267 267 268 268 269 268 268 266 268 269 263 263 261 260 258 256 255 254 252 251 251 250 250 250 249 250 250 252 253 255 256 258 260 263 263 262 262 261 262
266 267 266 265 265 266 266 265 266 266 263 266 268 262 261 260 258 257 256 255 254 252 251 250 249 250 250 250 249 249 251 252 253 255 256 259 262 263 263 261 261 261 261
265 265 264 264 265 264 264 263 263 262 264 263 260 259 258 258 257 256 255 254 253 252 251 251 251 250 251 251 250 251 251 255 255 258 261 264 261 261 261 261 261 261 261
262 262 263 262 262 262 261 261 262 262 260 259 258 258 258 257 256 255 254 253 253 253 253 252 252 252 251 251 251 253 258 262 262 265 269 265 259 262 261 259 260 260 260

GFSGL_sfc_thetae_030.txt.gz
Theta_e
286 287 287 287 288 286 285 285 286 285 285 283 284 283 282 281 281 281 280 279 279 278 278 278 277 278 277 276 277 277 276 275 271 274 275 276 275 276 277 277 278 277 278
287 286 286 287 285 285 286 286 285 285 285 284 284 283 282 282 281 281 280 279 278 277 277 277 276 277 276 276 276 275 275 275 273 271 274 274 274 275 276 275 277 278 278
285 284 284 284 283 286 286 285 284 285 284 284 283 282 282 282 281 281 280 279 278 278 277 277 276 276 275 275 274 274 274 275 273 271 271 274 274 275 275 276 276 277 278
284 284 284 284 285 286 286 285 284 285 283 283 283 282 282 281 281 280 279 278 278 277 277 277 276 275 275 274 274 273 273 272 273 271 272 272 273 275 276 274 274 276 276
285 285 284 285 284 284 285 285 283 283 283 283 282 282 281 280 280 279 279 278 277 276 276 276 275 275 278 276 274 273 273 271 272 271 271 272 273 274 273 275 273 274 275
284 284 285 286 283 283 284 283 282 282 282 282 281 281 279 280 284 284 280 278 277 275 274 275 275 274 277 279 279 278 276 270 267 268 271 272 273 274 275 273 273 272 271
284 284 283 284 284 283 283 282 282 281 282 281 281 280 279 280 284 285 284 278 276 276 275 274 274 274 274 277 280 281 281 281 279 274 269 273 273 274 274 274 274 274 274
283 283 282 282 283 282 281 281 281 281 280 280 280 280 279 279 284 286 284 278 277 276 275 274 274 274 275 275 275 275 275 275 276 276 275 274 275 276 277 277 275 273 272
282 281 280 280 280 280 280 280 280 280 279 280 280 279 279 278 284 286 283 277 276 275 275 275 275 275 277 279 274 272 273 274 278 280 280 280 280 280 279 273 268 267 266
282 281 278 277 276 278 278 278 279 280 279 279 278 279 278 277 283 286 282 276 274 274 275 276 277 275 279 280 274 272 272 273 274 273 274 275 275 273 275 273 270 265 266
279 280 280 278 275 276 277 278 278 278 278 277 276 277 277 277 280 286 283 276 275 274 274 274 275 279 279 280 280 275 273 275 274 273 270 270 270 270 271 272 272 270 267
276 278 280 280 277 277 276 276 276 275 275 274 274 273 274 276 280 286 284 280 279 275 274 274 275 279 280 280 280 278 279 276 269 265 265 266 267 268 270 271 272 272 272
274 274 275 278 278 276 275 275 274 274 274 272 272 272 272 274 277 284 285 281 280 275 275 276 277 280 281 280 280 278 273 270 267 263 264 266 268 269 270 270 270 270 270
269 270 272 273 277 276 275 275 274 273 273 273 272 272 271 273 275 280 282 280 279 276 277 276 277 278 278 273 274 274 269 268 267 266 266 267 268 267 267 268 267 267 266
266 267 268 270 274 276 275 275 275 276 276 274 274 274 271 271 273 279 281 278 277 274 275 274 273 270 269 268 268 267 267 267 266 266 266 265 266 266 266 267 267 265 264
263 264 266 268 270 274 275 275 279 280 279 280 280 277 275 277 278 280 282 282 280 279 271 269 267 267 267 266 266 265 266 265 265 265 265 264 264 264 264 265 265 264 263
261 262 263 265 267 269 273 273 272 275 281 281 281 281 280 277 279 280 282 283 281 277 269 268 267 266 266 266 265 265 264 264 265 264 263 263 263 263 262 263 263 264 263
260 261 262 263 265 267 270 273 273 272 272 275 279 281 281 279 279 280 281 282 277 273 268 267 266 265 265 264 263 263 263 262 262 262 262 261 260 260 260 261 262 262 263
259 260 261 262 264 265 267 272 271 271 272 273 274 278 279 280 279 280 281 277 275 265 266 265 264 264 263 262 262 261 260 259 259 259 258 258 259 259 259 261 262 263 264
259 260 261 261 262 263 266 271 270 270 270 271 272 274 275 275 275 276 278 276 269 267 265 263 262 262 261 260 259 258 256 256 256 256 257 258 259 258 260 260 261 262 263
260 260 261 261 262 263 266 269 269 269 269 270 271 274 276 274 274 275 274 267 266 264 263 262 260 259 258 256 255 255 255 256 255 255 255 256 257 257 259 261 261 264 263
261 260 261 262 262 264 267 269 269 268 269 270 271 273 278 274 271 265 265 264 263 262 262 260 259 257 256 255 255 254 255 254 253 253 254 256 257 257 258 261 263 263 262
263 263 262 262 263 265 267 267 268 269 269 270 270 272 270 264 263 262 259 259 258 257 257 258 256 254 253 253 253 254 254 253 253 252 252 254 255 257 259 261 262 261 260
265 263 262 263 266 266 265 265 266 266 267 268 265 263 262 261 260 259 258 257 256 255 255 254 255 255 254 253 252 251 251 251 251 250 252 254 255 257 260 262 260 260 259
263 264 265 265 265 264 264 263 263 265 264 263 261 260 259 259 258 257 257 257 255 254 254 254 253 253 253 254 252 252 252 256 254 254 255 255 257 260 261 260 258 259 258
261 262 262 262 262 262 262 262 262 261 260 260 260 260 259 259 258 257 256 256 255 255 254 254 253 253 253 253 253 255 257 260 259 259 259 262 265 262 260 257 256 257 257

GFSGL_sfc_thetae_033.txt.gz
Theta_e
289 289 288 288 288 289 287 287 288 288 287 286 286 286 285 284 284 284 284 283 282 282 282 282 281 282 281 281 281 281 280 280 280 277 279 280 279 280 279 280 280 280 281
287 288 287 288 287 287 287 287 287 286 286 286 286 285 285 284 284 283 283 282 282 281 281 281 280 280 280 280 280 280 279 279 278 277 277 277 278 278 279 278 279 280 280
286 286 287 286 286 286 287 287 286 286 286 286 285 285 284 284 283 283 284 282 282 282 281 280 280 279 279 279 279 279 279 278 278 276 276 277 277 278 278 278 278 279 280
285 285 285 285 285 286 287 287 286 286 285 285 285 285 284 283 283 283 283 282 282 281 281 281 280 279 279 278 278 278 278 277 276 276 275 275 276 277 277 277 277 279 278
284 284 284 285 285 285 285 286 286 285 285 285 284 284 284 283 283 282 282 282 281 280 280 280 280 280 281 280 278 278 277 276 275 274 274 274 275 275 275 277 276 277 278
283 283 284 283 283 283 284 284 285 284 284 284 283 283 283 283 286 287 284 282 280 280 278 279 279 279 280 282 282 281 278 275 274 274 275 274 275 276 277 276 275 275 274
283 283 283 282 280 281 282 282 283 283 283 283 283 283 283 283 287 288 286 282 281 280 280 278 278 278 279 280 282 281 281 281 278 276 274 275 276 277 277 275 276 276 275
281 282 283 281 279 280 280 281 281 282 282 282 282 283 283 282 286 288 286 282 281 280 280 279 278 277 278 278 279 279 278 279 279 278 277 278 278 278 278 277 277 275 274
279 281 278 277 279 280 279 280 280 281 281 282 283 283 282 282 285 287 287 282 280 279 279 279 278 277 279 281 278 278 278 278 282 282 280 280 280 281 280 278 273 270 269
278 277 276 276 279 279 279 279 280 280 280 281 281 282 282 282 284 286 287 282 279 278 278 277 279 277 280 281 277 277 275 276 276 277 279 280 280 277 277 276 273 269 269
276 274 274 275 276 276 279 279 279 279 279 279 278 279 280 280 280 285 287 282 279 277 276 275 276 280 281 282 279 276 276 277 277 276 275 274 274 273 273 273 273 272 270
272 272 272 272 272 274 275 277 278 277 277 277 277 277 277 278 279 283 286 285 281 277 276 276 277 281 282 282 280 278 279 278 276 274 272 271 271 271 272 272 273 273 273
269 268 268 269 270 270 271 274 276 277 276 276 275 275 275 276 277 282 284 287 282 278 278 278 279 281 282 282 282 280 279 274 272 269 270 270 270 271 271 271 271 271 271
265 265 266 266 267 268 270 272 276 276 275 275 275 274 274 274 275 277 280 285 281 279 278 278 279 280 281 280 280 280 274 273 271 270 269 270 270 269 269 270 269 269 268
263 264 263 264 264 266 268 270 273 276 277 276 276 276 274 273 274 278 281 282 279 277 276 276 276 277 276 274 273 271 270 270 269 269 268 268 268 268 268 269 268 267 266
260 261 261 262 262 264 265 266 273 276 280 281 281 280 277 279 279 280 282 285 282 280 274 274 274 275 272 272 270 268 268 268 268 268 268 267 267 267 266 267 267 266 265
258 259 259 260 261 261 262 264 265 270 278 280 281 282 283 278 280 281 282 285 282 280 274 274 273 272 271 270 269 268 267 267 268 267 267 266 266 265 265 265 265 265 264
258 258 258 259 259 260 261 262 265 266 268 273 277 280 282 283 280 281 282 283 279 278 274 272 270 270 269 269 268 267 267 266 266 266 265 265 264 264 263 263 264 263 263
258 258 258 258 259 260 261 262 263 263 264 271 273 276 280 282 283 281 282 279 277 275 272 271 270 269 268 268 267 266 265 264 264 263 263 262 262 262 261 262 263 263 263
258 258 259 258 259 259 259 260 261 263 266 270 271 273 275 278 278 276 278 279 279 272 270 269 269 268 267 266 264 263 262 261 261 260 261 261 261 261 262 261 262 262 263
259 259 259 259 259 259 260 260 261 263 267 270 270 272 276 276 276 275 276 277 269 269 267 266 265 264 264 263 261 261 260 260 260 260 260 260 260 259 260 262 262 262 262
261 260 260 260 260 260 261 261 262 263 268 269 270 271 276 276 275 272 269 266 267 266 266 264 263 262 262 261 260 260 259 259 259 259 259 259 259 259 259 260 261 262 263
262 262 262 262 261 261 262 263 263 267 268 269 270 271 271 267 265 263 262 262 262 262 262 261 260 259 260 259 260 261 260 259 259 259 258 258 258 258 259 259 260 261 262
262 263 263 263 262 262 263 264 267 268 268 266 264 264 263 262 261 260 260 260 260 260 261 261 260 259 257 257 257 257 258 257 257 257 257 256 257 257 258 259 261 263 261
261 261 262 263 264 264 263 264 264 263 262 262 261 261 260 260 259 259 259 259 259 258 258 258 258 257 257 256 256 255 255 258 255 254 254 255 256 257 258 260 262 262 260
260 260 260 261 261 262 262 261 260 261 260 260 260 260 260 259 259 259 258 258 257 257 256 256 256 256 256 256 256 257 258 259 257 257 256 257 257 259 262 262 262 260 259

GFSGL_sfc_thetae_036.txt.gz
Theta_e
290 290 291 291 291 292 292 293 294 295 295 294 294 293 293 293 292 291 291 291 289 289 289 289 288 289 288 288 287 287 286 287 288 281 283 284 285 284 283 283 284 284 284
289 289 289 290 290 290 290 291 292 292 293 293 292 292 291 291 291 289 289 289 288 287 287 287 287 285 287 285 285 284 283 284 285 281 280 280 281 283 283 282 281 281 283
287 287 287 288 287 287 287 289 290 290 290 292 291 290 290 290 289 289 289 289 288 287 287 286 286 284 284 284 283 283 283 281 283 283 279 280 280 281 280 281 281 282 282
285 286 286 286 286 285 286 287 288 288 289 289 290 289 289 289 288 288 287 288 288 287 287 286 284 283 283 284 283 283 282 282 281 281 280 278 278 279 280 280 280 281 281
283 284 285 286 286 284 283 284 286 286 287 288 287 287 288 288 287 286 286 287 287 286 286 285 284 284 285 285 283 283 282 281 280 279 279 277 277 277 277 280 279 280 281
282 283 284 286 284 281 282 283 284 285 286 287 287 287 287 286 288 289 287 285 285 284 284 284 283 284 284 286 286 286 283 281 279 279 279 277 278 279 280 279 278 277 278
282 282 282 284 280 279 281 283 282 283 285 285 286 287 287 287 288 289 288 285 285 284 284 283 282 282 283 283 285 285 284 285 284 281 279 279 279 280 280 278 278 278 278
281 281 282 281 278 278 279 281 282 282 283 283 285 286 286 285 288 289 288 286 285 285 284 283 282 282 282 282 282 282 281 282 282 280 281 281 281 281 280 280 279 279 279
279 279 280 279 276 277 276 278 278 280 281 282 283 284 284 285 286 287 287 286 285 284 284 284 283 282 282 284 281 281 280 279 283 282 282 283 283 282 281 280 277 275 274
279 278 278 277 275 275 275 275 277 279 280 281 281 283 283 283 285 286 286 286 284 284 283 282 283 282 283 285 281 280 278 278 279 279 280 282 282 281 281 280 279 275 274
278 277 276 275 274 274 273 274 274 275 276 278 279 281 282 283 283 285 286 285 285 284 282 282 281 283 283 284 284 281 280 280 280 280 280 279 280 279 279 279 278 276 274
275 274 273 272 272 272 271 271 271 272 273 275 278 279 281 282 282 283 285 286 286 284 281 281 279 282 283 284 283 282 283 281 279 278 278 277 276 275 275 275 275 276 276
270 269 269 269 269 269 268 269 269 271 272 274 277 278 278 280 280 282 283 284 285 285 283 281 280 282 283 283 285 282 281 278 277 275 275 274 274 274 274 273 274 274 274
266 266 266 266 267 267 268 268 268 269 271 273 276 277 278 279 279 279 279 280 282 284 281 280 280 281 282 282 282 280 279 277 276 275 274 274 273 272 271 272 271 272 271
262 263 263 264 264 264 265 266 267 269 271 270 272 276 276 277 279 279 279 279 281 283 279 278 278 278 278 279 279 278 277 275 274 273 272 271 270 270 270 271 271 270 269
260 260 261 261 262 262 262 263 267 269 271 273 274 275 277 281 281 282 281 282 282 283 276 276 276 277 278 278 278 274 274 273 272 271 271 270 270 269 269 269 270 269 268
259 259 260 260 260 260 261 261 260 264 268 270 272 274 277 281 282 282 282 282 283 282 276 275 277 277 277 277 273 272 271 272 271 270 270 270 269 269 268 268 268 268 268
259 259 259 260 260 260 260 260 261 261 261 264 269 273 276 280 281 284 282 282 280 281 277 276 276 277 276 275 273 272 271 270 269 269 268 268 268 268 267 267 267 267 266
260 260 260 260 260 260 260 260 260 260 261 262 264 268 271 277 279 281 283 279 278 279 277 277 277 275 274 273 272 270 269 269 268 268 267 267 267 267 266 267 267 265 265
261 261 261 261 261 260 260 260 260 260 261 262 264 266 271 275 275 279 281 280 279 279 277 275 274 273 273 272 270 269 268 267 267 266 266 266 266 266 266 265 265 266 266
261 262 262 262 261 261 261 260 261 261 261 262 264 267 275 274 274 276 279 279 279 277 274 272 271 270 270 268 268 267 266 266 265 265 265 265 265 264 266 266 266 265 265
262 262 263 263 263 263 262 262 262 262 262 263 265 270 274 274 276 277 277 274 273 273 272 270 268 268 267 266 266 266 264 264 264 264 264 264 263 264 264 264 264 265 265
262 262 263 264 266 265 263 263 263 263 264 265 269 271 272 270 270 269 268 268 268 268 268 267 265 265 266 266 267 266 265 264 264 265 264 263 263 264 263 264 264 264 264
261 262 262 263 265 265 265 265 265 266 268 269 268 267 266 265 264 264 264 264 265 265 265 265 264 264 263 263 264 265 265 264 264 264 264 263 263 262 263 263 263 263 264
260 260 261 261 262 263 264 264 264 264 264 264 263 263 263 262 262 262 262 263 263 263 263 263 263 262 262 261 261 261 262 261 261 260 260 261 261 261 261 262 263 264 264
259 259 260 260 260 261 261 262 262 262 262 262 262 262 261 261 261 261 261 261 261 261 261 261 261 261 261 261 260 260 262 261 259 258 259 260 260 261 262 262 263 264 264

GFSGL_sfc_thetae_042.txt.gz
Theta_e
284 284 284 285 286 285 284 283 283 284 285 286 287 287 287 288 288 288 288 288 287 288 289 288 288 289 290 287 288 287 289 285 287 279 281 282 284 285 285 283 283 283 285
284 283 283 284 284 284 283 282 282 282 283 284 285 285 286 287 287 286 287 289 288 288 288 288 288 289 287 288 288 289 288 286 283 278 278 280 281 284 283 282 282 282 281
284 282 282 281 281 282 282 280 280 281 281 282 282 282 283 284 285 285 285 287 287 288 288 287 287 287 287 287 286 287 287 286 285 278 276 278 278 282 280 279 279 279 281
282 281 280 280 281 282 282 280 278 279 280 280 281 281 282 283 284 284 285 285 286 287 287 287 287 287 287 287 286 285 286 285 286 282 276 278 278 281 281 279 278 279 279
281 280 280 281 281 281 280 280 279 278 279 280 280 280 281 281 282 283 284 284 284 285 286 286 287 287 288 288 286 286 285 285 285 284 280 275 277 278 279 279 279 278 280
280 280 281 281 281 280 280 280 279 278 278 279 279 279 278 280 284 286 286 284 285 285 284 285 286 286 286 289 291 291 288 285 284 283 283 280 279 279 280 278 279 277 275
280 281 280 280 280 280 280 279 279 277 277 277 277 278 277 278 283 284 286 283 283 284 284 285 285 285 285 285 288 291 291 291 290 285 284 283 280 279 279 278 279 280 279
278 279 279 279 279 279 279 278 278 278 276 276 276 276 276 277 281 283 283 282 282 283 284 284 284 285 285 284 284 285 286 287 288 287 285 286 284 281 281 281 281 281 278
277 277 277 277 277 277 276 277 277 276 276 275 275 274 274 274 279 280 280 279 280 281 283 284 284 284 287 288 285 283 283 284 288 290 290 290 290 287 284 282 278 277 274
275 275 275 274 273 273 274 274 275 275 274 274 273 273 273 271 276 277 277 276 277 279 281 282 284 284 287 288 285 284 282 282 284 284 285 288 289 286 286 283 280 277 277
272 271 270 270 268 268 268 269 269 269 270 269 269 270 270 270 271 275 277 275 276 277 278 280 282 286 288 289 289 285 283 284 285 283 283 283 283 282 283 283 282 281 279
268 267 265 264 264 264 263 263 264 264 264 265 265 266 268 269 272 274 276 277 279 277 278 280 282 285 286 288 288 288 288 286 283 282 281 281 280 280 281 281 281 281 281
263 261 261 261 261 262 261 261 261 261 261 262 263 263 265 267 268 272 274 275 277 277 280 282 284 284 285 287 288 288 286 284 283 280 279 279 280 281 280 279 279 278 277
260 260 260 260 260 260 261 261 260 260 260 261 261 261 262 264 265 267 268 270 272 274 281 279 280 282 284 285 284 286 285 284 282 280 279 279 280 279 277 278 274 275 273
260 260 259 260 259 260 261 261 261 262 262 261 262 263 262 262 265 269 269 268 270 273 275 276 276 277 278 280 282 282 283 283 281 279 279 278 278 277 276 276 274 273 272
258 258 258 258 259 259 259 259 265 267 268 269 270 269 267 270 271 272 272 273 274 276 273 272 273 277 277 279 279 279 281 281 281 279 278 277 275 274 272 273 273 272 270
258 258 258 258 258 258 258 259 258 262 267 268 269 269 269 270 270 271 271 272 274 274 271 272 274 276 276 278 278 279 278 280 279 278 275 274 273 273 271 271 271 271 270
258 258 258 258 258 258 259 259 260 259 259 260 265 266 268 269 270 270 271 272 268 270 271 272 274 276 276 277 278 278 276 275 275 274 273 273 272 271 271 270 270 269 269
258 258 258 259 259 259 260 260 260 261 261 262 262 264 265 267 269 270 271 268 267 268 270 271 275 276 276 278 278 275 274 274 273 273 272 272 272 271 270 270 270 269 269
258 259 260 259 260 260 261 261 261 262 262 262 261 261 262 262 262 263 265 266 269 271 273 277 275 277 277 275 274 274 273 273 272 272 271 271 271 270 269 269 269 268 268
259 259 259 259 259 260 261 262 263 265 264 263 262 263 269 268 266 266 267 271 272 273 274 277 274 275 275 274 272 272 271 271 270 270 270 269 269 268 269 269 268 267 267
258 258 258 258 259 260 261 262 263 263 263 263 264 264 269 265 264 264 265 266 268 272 274 271 273 274 273 272 271 270 269 269 269 269 268 269 268 268 268 267 267 267 266
258 257 257 258 259 259 260 260 261 262 262 262 262 262 262 262 262 263 264 265 265 266 267 267 268 268 270 270 270 270 268 268 268 268 268 267 267 267 267 266 266 265 265
257 256 257 257 258 258 259 259 260 260 260 260 261 261 261 261 261 261 262 263 264 264 265 266 266 267 267 267 268 268 268 268 268 268 268 267 266 266 266 265 266 265 265
256 256 256 256 256 257 257 258 259 259 260 260 260 260 260 261 261 261 262 262 262 262 262 263 263 264 264 265 265 267 268 267 267 267 267 266 265 265 265 265 264 264 264
255 255 255 256 256 256 257 257 258 259 259 260 260 260 260 260 261 261 261 261 261 261 261 261 262 262 263 263 264 266 267 267 265 266 266 265 264 264 264 263 263 263 263

GFSGL_sfc_thetae_045.txt.gz
Theta_e
284 283 284 284 284 285 284 284 283 281 282 282 282 283 283 284 284 284 284 285 285 286 286 286 287 288 289 289 288 289 289 288 286 289 282 282 284 285 285 287 286 285 288
283 284 283 283 282 282 282 282 281 281 281 281 282 282 282 282 282 282 283 283 284 285 286 285 286 288 286 288 289 287 287 288 287 286 281 280 281 285 285 285 284 285 284
282 281 280 280 280 280 280 281 281 280 279 279 280 280 281 281 281 281 282 282 283 284 284 285 285 285 286 287 287 287 287 288 288 287 287 278 281 282 281 283 282 282 282
281 280 279 279 279 279 279 279 280 280 279 278 279 279 280 280 281 281 281 282 282 283 283 284 284 285 285 286 286 286 286 286 287 285 286 277 279 280 283 281 278 280 280
280 280 280 280 280 279 279 279 279 279 279 278 278 278 279 280 280 279 280 281 281 282 283 283 284 285 287 287 286 286 286 284 285 285 284 277 278 278 280 281 280 280 279
278 279 280 280 281 280 280 280 280 279 279 279 278 278 277 278 282 283 282 280 280 281 281 283 283 283 284 288 289 290 289 286 284 285 285 284 282 281 281 281 280 277 274
279 279 279 280 279 279 279 279 279 278 278 278 278 277 276 277 281 281 281 279 279 280 280 281 281 283 283 284 286 289 290 291 291 287 285 285 285 282 281 280 280 280 281
277 276 277 277 277 277 277 276 276 276 276 276 276 276 276 277 280 280 280 277 277 277 278 279 280 281 282 283 283 283 284 285 287 288 288 287 288 286 283 283 282 282 280
274 274 274 273 271 271 270 271 271 271 271 271 273 273 274 274 278 279 278 275 275 274 276 277 277 278 282 285 283 282 283 284 287 290 291 291 291 291 285 283 281 280 277
271 271 270 269 267 267 267 266 267 266 267 268 267 268 269 268 273 274 275 273 271 272 273 275 277 277 281 283 281 281 282 283 284 284 285 288 290 289 290 283 283 280 280
268 268 267 266 264 264 263 263 263 263 263 262 263 264 265 266 267 271 273 271 270 270 271 273 275 279 281 282 285 283 283 285 285 284 283 284 285 286 286 284 284 283 281
266 264 263 262 262 262 260 261 261 260 260 260 260 261 263 264 267 269 271 272 273 270 270 272 274 278 280 282 283 285 286 287 285 284 283 282 282 283 285 285 283 284 285
261 260 260 260 261 261 260 260 259 260 259 259 260 260 261 264 264 268 270 270 271 268 269 272 275 276 278 280 284 285 284 284 285 284 281 281 282 284 284 283 283 281 279
258 259 260 260 259 260 260 260 259 259 259 259 259 259 260 261 262 264 264 264 267 268 269 268 270 274 277 279 280 281 281 282 284 284 282 282 282 282 281 281 279 277 277
259 260 259 259 258 259 259 259 260 261 262 261 263 264 264 264 266 270 270 269 269 269 268 268 269 270 271 272 276 277 279 282 282 284 283 281 280 280 279 279 279 277 276
258 259 259 259 258 259 258 259 264 266 268 269 270 269 268 271 272 272 272 273 273 273 269 267 267 268 269 270 272 275 279 280 281 283 282 280 279 278 277 277 277 276 274
258 259 259 258 258 258 258 258 257 261 266 268 269 270 271 271 272 272 273 273 273 272 267 267 267 268 269 270 273 275 276 279 281 282 280 279 278 277 276 274 274 274 273
258 259 258 258 258 258 258 258 259 258 258 260 266 268 270 272 271 272 273 273 267 267 266 265 266 268 269 269 272 275 277 279 279 279 279 278 276 274 274 273 273 273 272
258 258 258 258 259 259 259 259 260 260 260 261 263 267 267 270 270 271 272 267 265 265 265 266 266 267 268 270 273 276 277 276 277 276 276 276 275 273 273 272 272 272 271
258 259 259 258 258 258 259 259 259 260 260 262 262 263 264 266 264 264 265 266 267 266 265 267 268 269 270 271 275 277 275 275 274 274 274 274 274 273 272 271 271 270 270
258 257 257 257 257 257 258 259 259 260 260 260 261 263 269 263 261 262 262 264 264 265 266 271 271 274 276 276 275 274 273 272 272 272 272 271 272 270 271 271 270 270 269
256 256 256 256 256 257 257 258 259 259 259 259 260 261 266 261 261 261 261 262 263 265 266 268 269 270 272 272 272 271 271 270 270 270 270 270 270 270 269 269 268 268 268
256 256 255 255 256 256 257 257 258 259 259 259 260 260 260 260 260 261 261 262 262 263 264 266 267 267 269 269 270 270 269 269 270 270 269 269 269 268 268 267 267 267 266
254 254 255 255 255 255 256 257 258 258 259 259 259 260 260 260 260 260 261 261 261 262 262 263 264 265 266 267 267 268 268 269 270 270 269 268 268 267 267 267 266 266 266
252 252 253 253 254 255 255 256 257 257 258 258 258 259 259 260 260 260 261 261 261 261 262 263 263 264 264 265 267 267 268 268 268 268 268 268 267 267 266 266 266 266 265
251 250 251 253 253 254 255 255 256 256 256 257 258 258 259 259 260 260 261 261 261 261 261 262 263 265 265 266 267 268 269 268 267 267 267 266 266 265 265 265 264 264 264

GFSGL_sfc_thetae_051.txt.gz
Theta_e
282 282 281 282 281 281 281 280 280 281 280 280 280 280 280 280 280 279 279 280 280 280 280 280 280 282 284 285 285 286 286 286 284 286 289 289 285 285 286 286 287 287 289
281 281 280 280 280 279 279 280 280 280 281 280 280 280 280 279 279 278 278 278 277 277 279 279 279 281 280 282 284 283 284 286 284 283 286 287 283 283 284 285 285 286 286
279 279 279 279 278 278 279 279 279 279 279 279 279 279 279 279 279 278 278 278 278 277 277 277 278 279 279 280 280 281 283 284 284 283 284 286 287 282 283 283 284 285 285
279 278 278 278 278 278 279 278 278 278 278 278 278 278 278 278 279 278 278 278 277 278 278 278 278 278 279 279 280 280 281 281 282 282 282 283 284 285 282 284 282 283 284
277 277 277 278 278 277 277 277 277 277 277 277 276 276 276 277 277 277 278 278 278 278 278 278 279 279 281 281 280 280 280 280 280 280 280 281 282 281 279 283 282 284 283
276 276 277 276 276 276 275 274 274 273 273 273 272 272 272 273 276 277 277 275 276 276 276 277 278 278 279 281 282 282 282 281 280 280 280 279 280 282 283 282 283 281 280
275 274 274 274 272 272 272 271 270 270 270 270 270 269 269 269 273 274 275 273 272 272 273 274 276 278 278 277 279 281 281 282 282 280 280 281 281 282 283 282 281 282 282
272 270 271 271 269 269 269 268 268 268 267 267 266 266 266 267 271 272 272 271 270 270 270 271 271 272 274 275 276 276 276 276 276 277 278 279 281 283 284 284 284 283 284
270 270 269 268 266 266 264 265 265 265 264 264 265 264 264 264 268 270 271 268 268 268 270 270 270 270 272 275 272 272 273 274 278 279 280 281 283 286 286 284 283 282 281
269 268 268 267 262 263 263 263 263 262 263 263 263 263 263 262 266 269 269 268 266 267 268 269 272 271 273 275 273 272 270 271 273 273 274 276 279 280 285 285 283 281 282
267 266 265 264 262 262 261 262 261 260 261 260 260 261 261 262 263 268 270 268 267 267 267 268 270 273 273 274 275 272 271 273 274 273 275 276 277 278 280 282 284 284 282
265 264 261 260 260 261 259 259 259 259 258 258 259 260 261 262 265 267 270 271 272 268 267 268 269 272 273 274 274 275 276 275 272 271 271 272 275 277 280 281 283 283 286
258 256 256 258 259 260 258 258 258 259 258 258 259 259 260 262 263 268 270 271 272 269 269 270 274 275 276 275 275 274 272 270 269 268 268 270 274 275 280 280 283 284 284
251 255 257 258 259 259 260 260 258 258 258 258 258 259 261 263 266 267 267 267 270 271 272 270 271 273 274 274 272 272 271 270 269 268 269 271 273 274 274 281 281 282 281
254 257 258 258 257 259 260 259 260 261 262 263 264 265 264 264 266 271 272 271 272 273 274 273 271 270 269 267 266 267 268 267 267 269 269 269 270 271 274 280 281 281 280
255 257 258 258 258 259 258 258 264 266 268 269 270 269 267 270 272 273 274 274 275 276 271 268 268 268 268 268 268 269 268 267 268 268 269 270 270 272 274 278 281 281 280
251 255 257 258 257 257 257 257 256 260 265 266 267 268 269 270 271 272 273 274 273 270 263 263 264 265 265 266 267 268 267 268 268 268 269 270 271 276 275 275 276 278 279
248 254 255 256 256 257 257 256 256 256 256 257 263 265 267 269 270 271 270 269 260 262 261 262 262 263 264 265 266 267 267 267 267 268 269 270 271 275 276 276 278 278 278
251 252 252 255 256 256 256 256 256 256 256 256 258 261 262 266 269 267 267 260 259 259 260 260 262 263 263 265 268 267 266 265 266 267 268 270 272 275 276 277 278 278 278
249 254 256 253 254 254 254 254 254 255 255 256 257 258 259 264 259 259 260 260 259 259 260 260 261 262 264 266 267 268 267 266 266 266 267 269 273 274 276 277 277 277 277
249 251 254 253 251 252 253 253 253 254 255 255 256 258 267 261 258 259 259 260 260 260 260 261 261 263 264 265 266 267 269 268 269 270 271 273 275 275 275 276 276 275 273
249 248 250 249 251 252 251 252 252 253 254 255 255 257 264 258 258 259 260 260 261 262 262 262 263 264 265 266 266 267 267 267 268 268 268 269 269 269 272 272 271 271 270
249 250 251 250 250 251 252 250 250 252 253 254 254 255 256 257 257 259 260 260 261 262 263 263 264 265 267 267 267 267 267 267 268 269 269 269 269 269 270 269 269 269 268
247 250 251 250 248 250 250 250 251 252 252 253 252 254 255 255 256 258 259 260 261 262 263 263 264 264 266 267 268 268 268 269 269 269 269 268 268 268 268 268 268 268 268
246 249 250 250 247 249 248 248 250 248 250 251 253 253 254 255 255 256 258 260 260 261 261 262 264 264 266 267 268 268 269 268 268 268 268 268 267 267 267 266 266 266 266
248 250 250 249 249 248 246 247 248 249 250 252 253 253 254 254 255 256 257 258 259 260 261 262 262 262 264 268 268 270 271 271 268 268 267 267 266 266 265 265 265 264 264

GFSGL_sfc_thetae_054.txt.gz
Theta_e
281 281 280 280 280 280 279 279 279 280 280 280 280 279 279 279 278 277 277 277 276 277 277 277 278 279 279 280 281 283 284 284 281 282 285 287 288 288 288 287 287 286 288
280 280 279 279 279 279 278 279 279 279 279 279 279 279 279 278 278 277 277 277 277 276 277 277 276 278 277 278 279 280 281 282 280 279 281 282 284 286 287 287 288 288 286
279 279 279 278 278 278 278 278 278 278 277 278 278 277 277 277 277 277 277 277 277 277 277 277 277 277 276 277 277 278 279 280 280 279 279 282 283 284 284 285 285 286 286
278 278 278 277 277 277 277 277 277 276 276 275 275 275 275 275 275 275 276 276 276 276 277 277 277 277 277 277 277 277 278 278 278 278 278 279 280 282 282 282 283 284 284
277 277 276 276 276 275 275 275 274 273 273 273 272 272 272 272 273 273 274 273 273 273 274 275 276 277 280 280 278 278 277 277 277 277 276 277 278 279 279 282 281 282 284
275 275 275 275 274 273 273 272 271 271 271 270 270 270 269 270 273 274 274 272 272 272 271 272 273 273 275 278 279 281 281 277 276 276 276 277 278 280 281 281 281 280 279
274 273 273 272 270 270 270 270 269 268 268 268 268 267 267 267 271 273 274 272 271 270 270 270 271 272 272 272 274 276 277 278 280 278 276 276 276 278 279 280 281 281 281
271 269 270 269 268 268 268 267 266 266 266 265 265 265 265 266 270 272 272 270 269 269 269 269 269 269 270 271 271 271 272 272 274 275 276 275 276 276 276 277 278 280 281
270 270 268 267 265 266 263 264 265 264 264 263 264 264 263 264 268 270 270 268 268 268 268 269 269 269 271 273 271 270 271 272 275 277 278 279 279 280 280 278 275 276 275
269 268 267 266 261 261 263 262 263 262 263 263 263 263 262 261 266 269 270 268 266 267 268 269 271 270 273 275 272 271 269 270 272 272 273 274 276 276 278 276 276 274 274
266 266 265 264 261 260 260 261 260 260 261 260 260 261 261 262 262 268 270 269 267 267 268 269 270 273 274 275 275 272 271 273 273 272 272 272 273 273 274 275 276 275 273
264 263 260 257 258 260 255 258 258 258 258 258 258 259 261 262 265 268 270 272 272 269 268 269 269 273 274 275 275 276 277 277 274 273 271 270 270 271 273 274 275 278 279
258 255 254 256 258 258 255 257 258 258 258 258 259 259 260 263 264 269 271 272 273 271 271 272 275 276 277 276 276 276 274 271 270 268 268 268 269 270 272 272 273 275 276
251 254 256 255 256 257 259 259 258 257 258 259 259 260 262 265 266 267 267 269 272 273 273 272 274 276 276 274 272 272 272 271 270 270 270 270 271 270 269 270 269 270 271
253 256 256 256 255 257 259 259 260 261 262 263 265 265 264 264 266 271 272 271 271 273 273 270 267 266 266 266 267 268 269 269 268 269 268 268 268 268 269 270 270 270 269
255 257 256 257 257 258 258 258 263 266 268 269 270 269 267 270 272 273 273 274 274 274 267 261 261 262 263 264 264 265 266 267 268 269 267 267 267 267 268 269 270 269 269
251 255 255 257 256 256 256 256 255 259 265 265 267 268 269 270 271 272 272 272 269 267 258 259 260 261 261 262 263 264 264 266 268 268 268 268 268 268 268 268 269 270 271
248 253 252 254 253 254 255 255 255 254 254 256 261 264 267 268 270 271 270 266 259 260 258 259 259 260 261 261 262 263 266 267 268 267 267 267 267 268 268 269 270 274 275
250 251 251 251 252 253 253 253 253 253 253 254 256 260 261 265 268 267 267 257 258 258 259 259 260 260 261 262 263 265 266 267 268 266 266 267 267 267 268 270 271 273 276
249 252 253 249 250 250 251 252 252 251 253 253 254 255 257 261 258 257 258 259 259 260 260 260 261 261 262 263 264 265 266 267 268 267 266 266 267 268 268 269 272 273 276
249 247 252 249 247 248 249 251 251 251 252 252 253 255 266 259 255 256 257 259 259 260 260 261 261 262 263 264 265 265 265 266 267 268 269 270 270 270 272 273 275 276 276
249 246 245 245 248 249 249 251 251 250 251 251 253 254 262 254 254 255 256 258 260 261 262 262 262 263 264 265 266 266 265 265 266 267 268 269 269 270 271 271 270 270 270
251 247 247 246 247 249 251 250 249 250 250 250 251 252 253 253 254 254 255 257 259 260 261 262 262 263 264 265 267 268 267 266 267 267 267 268 268 268 269 269 269 268 269
248 246 247 248 247 248 250 250 250 251 251 250 249 250 251 252 253 253 254 256 257 259 261 261 262 262 263 264 267 269 270 269 268 267 267 267 267 267 267 267 267 267 267
245 245 247 248 246 250 250 250 250 248 248 248 250 249 251 252 253 253 254 255 257 258 259 261 262 262 263 263 265 269 271 269 268 268 267 267 266 266 266 266 266 266 265
246 247 248 250 249 250 250 249 249 248 248 249 249 250 251 252 253 253 254 255 256 256 258 260 261 262 263 264 265 270 271 271 268 267 267 266 265 265 265 264 264 264 264

GFSGL_sfc_thetae_057.txt.gz
Theta_e
282 282 282 282 281 281 281 281 281 281 280 280 280 280 279 279 279 279 279 279 278 279 279 279 279 279 279 280 281 281 281 282 280 282 285 286 286 286 287 289 291 291 292
282 282 281 281 281 281 280 280 280 279 279 278 278 278 278 278 278 277 277 277 277 277 278 278 278 279 278 279 279 279 279 280 279 278 281 282 283 285 286 286 287 288 289
281 281 280 280 280 279 279 279 278 277 277 277 276 275 275 275 275 275 275 275 276 276 276 276 277 277 278 278 279 278 279 279 280 279 278 281 282 283 283 284 285 286 288
280 279 279 279 278 277 277 277 276 275 274 274 274 273 273 273 273 273 274 274 274 274 274 274 274 275 275 276 277 278 279 278 279 278 278 277 279 281 282 281 281 284 284
278 278 277 277 276 276 274 274 273 273 273 272 272 272 272 271 272 273 273 273 273 273 273 273 274 274 275 275 274 275 276 276 277 277 277 277 277 278 278 281 281 283 284
277 276 276 275 274 273 272 272 271 271 270 270 270 269 269 270 272 274 274 273 272 271 271 272 272 272 273 275 275 276 276 273 273 274 274 273 276 278 280 279 279 279 278
275 274 274 272 271 270 270 270 269 268 268 268 268 268 267 267 271 273 274 272 271 270 270 270 270 271 271 270 272 274 274 274 275 274 271 272 273 276 276 276 277 277 277
272 271 271 270 268 268 268 267 267 267 266 266 266 266 266 267 271 272 272 271 270 269 269 269 269 269 270 270 271 271 272 273 273 274 273 274 274 275 275 275 275 276 277
271 270 269 267 266 266 264 265 265 265 264 264 265 265 264 264 268 271 271 269 269 268 269 269 269 269 271 273 272 271 271 272 275 277 277 278 279 279 279 277 275 274 273
270 269 268 267 263 262 263 263 264 262 263 264 264 264 263 262 267 269 270 269 268 268 269 270 272 271 274 275 273 272 270 271 273 273 274 275 276 276 277 276 274 271 271
268 267 266 264 262 261 261 262 261 260 262 260 261 262 262 262 263 268 271 270 269 269 270 270 271 274 275 276 276 274 273 275 274 274 274 274 274 275 275 275 276 274 272
265 265 262 259 260 261 255 258 258 258 258 259 259 260 263 264 266 269 271 273 274 271 270 271 272 274 276 277 278 279 279 279 276 274 273 272 272 273 274 275 275 276 276
261 257 256 257 259 259 256 258 258 258 258 259 260 260 262 264 266 270 271 272 274 272 273 274 276 277 276 275 274 276 274 273 272 271 271 272 273 273 274 273 274 274 274
256 257 258 257 258 258 260 260 258 258 258 259 260 261 264 266 267 267 268 271 273 273 274 273 271 271 271 270 268 270 270 270 269 269 269 271 272 272 272 273 271 271 270
257 258 258 258 256 258 259 259 260 261 262 262 265 266 265 265 267 272 273 272 272 272 270 266 263 263 263 264 265 266 266 267 266 267 268 268 269 270 270 271 270 270 268
258 258 258 258 258 259 258 258 263 266 268 269 270 269 268 270 272 273 274 274 273 271 263 260 260 261 261 262 262 263 264 265 266 267 267 268 268 268 268 269 270 269 267
255 257 257 258 257 257 257 256 255 259 264 266 267 268 269 270 271 272 272 272 268 267 259 259 259 260 261 262 262 263 263 264 266 267 268 269 269 268 268 268 268 268 268
251 255 254 255 254 255 255 255 255 254 254 256 261 263 267 268 269 270 270 266 259 261 258 259 260 261 261 262 262 262 263 265 266 267 268 269 268 267 267 267 268 268 269
252 252 252 252 252 253 254 253 253 252 252 253 255 259 260 265 267 267 266 257 257 258 259 260 261 261 262 262 263 264 265 266 266 267 268 269 268 268 267 268 268 268 269
250 252 253 251 252 252 252 252 252 251 252 252 254 254 255 258 258 256 257 257 257 258 259 260 261 262 262 263 264 264 265 266 266 267 267 268 269 270 268 267 268 268 270
250 249 252 252 250 250 250 250 251 251 251 252 253 254 264 260 255 254 255 256 257 258 259 260 261 262 263 263 264 264 265 267 267 267 267 267 268 268 270 271 271 272 273
250 249 247 249 251 251 250 250 250 250 251 252 253 253 261 253 253 253 254 255 256 257 259 260 261 262 262 263 263 264 265 267 267 267 266 267 268 268 269 270 270 271 271
250 250 251 251 251 250 249 249 249 250 251 252 252 252 252 252 252 252 253 254 255 256 258 259 260 261 262 263 264 265 266 268 267 267 266 266 267 267 267 268 268 268 269
253 252 252 252 249 249 249 249 250 251 252 253 251 251 250 251 251 252 252 254 255 256 257 258 260 260 262 262 264 265 267 271 268 267 267 266 266 266 266 266 266 266 267
250 252 251 250 248 249 249 249 250 250 251 251 252 250 250 250 251 252 252 253 254 255 256 256 258 260 261 261 263 264 268 271 268 267 267 266 265 265 265 265 265 265 265
252 252 251 250 249 249 250 250 251 251 251 251 251 250 249 250 251 252 252 252 253 254 253 256 257 257 258 261 264 266 270 272 269 267 267 266 265 265 265 264 264 264 264

GFSGL_sfc_thetae_060.txt.gz
Theta_e
287 287 287 286 286 286 286 285 284 284 283 282 282 282 281 281 281 281 281 281 280 281 282 281 281 282 282 282 283 282 282 282 280 282 284 285 285 286 287 288 289 288 289
287 287 286 286 286 285 285 284 283 282 281 280 280 280 279 279 279 279 278 279 278 278 279 279 279 279 279 280 281 280 281 282 280 278 281 282 282 284 285 285 286 287 287
287 286 285 285 285 284 283 282 281 280 279 279 278 278 277 277 277 277 277 277 277 277 277 277 277 277 276 277 278 278 279 279 280 279 278 282 282 283 283 284 284 286 286
286 285 285 284 283 282 281 279 278 278 277 277 277 276 276 275 275 275 275 276 276 276 277 277 276 276 275 275 275 275 276 276 277 277 277 278 280 281 282 281 281 284 284
284 284 284 282 281 279 278 277 276 276 275 275 274 274 274 274 274 274 275 275 275 275 276 275 275 275 275 275 275 274 275 275 275 274 274 275 276 277 278 279 279 282 283
283 283 281 280 278 276 275 274 274 274 273 273 273 272 272 272 274 274 275 274 274 273 273 274 274 274 274 275 275 276 275 273 272 273 273 273 273 274 276 276 277 276 275
282 280 278 277 275 274 273 273 272 272 272 271 271 271 270 271 273 274 274 273 273 273 272 272 272 272 272 272 273 274 274 275 275 274 272 273 273 274 274 274 274 274 274
279 277 275 274 273 272 271 271 271 271 270 270 269 269 269 270 272 273 273 273 272 272 271 271 271 271 272 272 272 272 273 273 274 274 274 275 275 276 276 276 276 276 277
276 275 274 273 271 271 269 269 269 269 269 268 269 268 267 268 270 272 272 271 271 270 271 272 272 271 273 274 273 272 273 274 277 278 278 279 279 280 279 277 275 274 273
276 275 273 271 269 268 268 267 269 267 267 268 267 267 267 266 269 270 271 271 270 271 271 272 274 273 275 276 274 273 272 273 275 275 276 277 278 278 278 277 276 273 273
275 272 270 269 267 267 266 267 266 265 266 265 265 266 266 266 267 270 272 272 272 272 273 273 274 275 276 277 278 276 275 277 277 277 277 277 278 278 278 278 277 276 273
272 270 268 266 267 267 264 265 264 264 264 264 265 266 268 268 269 271 273 274 274 273 272 274 274 277 277 277 276 276 276 276 274 273 273 273 274 275 276 277 277 277 278
269 266 265 264 265 264 264 265 265 265 264 265 265 266 267 268 270 272 272 273 275 274 275 275 275 274 273 272 272 273 272 271 271 270 270 271 272 274 274 274 275 276 276
266 265 264 263 265 264 266 266 265 265 265 265 265 266 267 269 270 270 272 274 274 274 273 271 270 270 270 270 268 269 269 269 268 267 268 270 271 271 271 273 272 272 271
265 265 266 265 264 265 265 266 265 266 265 265 267 269 268 268 269 272 273 273 274 273 271 268 266 266 266 266 267 267 267 268 267 268 268 268 269 270 270 272 272 271 270
265 265 266 265 265 264 264 265 267 267 269 270 271 270 270 271 272 273 273 274 274 272 267 264 264 264 264 265 265 265 266 266 267 267 267 268 269 269 270 272 272 270 269
267 266 265 264 264 263 263 263 263 265 265 266 268 268 269 270 271 271 273 272 271 269 264 263 263 264 264 265 265 265 265 266 267 268 268 268 269 269 270 270 270 270 269
263 262 264 264 263 263 262 262 261 261 261 262 264 264 266 268 269 270 270 268 264 264 263 263 263 264 264 264 265 265 266 267 267 268 268 268 269 269 269 270 270 269 269
261 262 262 262 261 261 261 261 260 260 260 260 261 262 263 264 266 267 266 262 261 261 262 262 263 263 264 265 265 265 266 266 267 268 269 269 269 269 268 269 270 269 269
260 260 260 261 261 260 260 259 260 259 259 259 260 261 260 260 263 262 261 261 260 261 261 262 263 263 263 264 265 265 266 266 267 269 269 269 269 269 268 269 270 270 271
261 260 259 260 259 259 259 258 259 259 258 258 259 260 263 263 261 259 259 259 260 260 260 261 262 262 263 264 264 265 265 266 267 269 268 268 268 267 269 269 270 270 271
260 260 259 259 260 259 258 258 258 258 258 258 259 259 263 260 258 258 258 259 260 260 260 260 261 262 263 263 264 264 264 265 267 269 268 267 267 268 268 268 268 269 269
259 259 258 258 258 257 256 257 257 257 257 258 258 258 258 258 257 257 258 258 259 259 260 260 260 260 262 263 264 265 264 266 268 269 267 267 267 267 267 267 267 267 267
258 258 258 258 258 257 257 257 257 256 256 257 258 258 257 257 256 256 257 257 258 258 259 259 259 259 260 261 263 264 265 266 270 269 268 267 267 266 266 266 266 266 266
258 258 257 257 257 257 257 256 256 256 256 257 257 257 257 256 255 256 256 257 257 257 257 258 258 258 259 258 259 261 264 265 270 267 268 267 266 266 266 265 265 266 265
257 257 257 257 256 255 255 255 256 256 256 256 256 256 256 255 255 255 255 255 255 256 256 256 257 257 257 258 260 262 264 267 271 266 267 268 266 266 265 265 265 265 265

GFSGL_sfc_thetae_063.txt.gz
Theta_e
289 289 289 288 288 288 287 286 286 285 284 283 282 282 282 281 281 281 281 281 280 280 281 280 280 281 280 281 281 282 281 281 278 280 282 283 283 283 284 285 286 285 285
289 289 288 288 287 287 286 285 285 283 282 281 281 280 280 279 279 279 278 278 278 278 278 278 278 279 278 278 278 278 278 279 277 275 278 279 280 282 282 282 283 285 284
288 288 287 287 286 286 285 283 283 281 281 280 279 278 278 278 277 277 277 277 277 277 277 277 277 277 276 277 276 276 276 277 276 275 274 276 277 279 279 280 281 282 283
288 287 286 286 286 285 283 282 280 280 279 278 278 277 276 276 276 276 276 276 276 277 277 277 277 276 275 275 275 274 275 274 274 273 273 274 275 276 277 276 277 280 279
287 286 286 286 285 283 281 279 278 278 277 276 275 276 275 275 275 275 275 275 275 275 276 276 276 276 276 276 275 274 274 273 272 272 271 272 272 273 273 274 273 275 276
286 285 285 283 281 280 278 277 276 275 275 275 274 274 273 274 275 276 275 274 274 274 273 274 274 275 274 276 276 276 276 273 271 271 270 270 271 272 273 273 273 272 270
285 284 282 281 278 277 276 275 275 274 274 273 273 273 272 273 274 275 275 274 273 273 273 273 273 273 273 273 274 275 275 275 276 274 271 272 271 273 273 272 272 272 272
283 281 280 278 276 275 274 274 273 273 272 272 272 271 271 272 274 274 274 273 272 272 272 272 272 272 273 273 273 273 273 273 274 274 274 274 274 275 275 275 274 274 275
280 279 277 276 275 274 273 272 272 272 271 271 271 270 269 269 272 273 273 272 272 272 272 273 273 273 275 277 275 274 274 274 277 279 279 280 280 281 280 277 275 273 271
279 278 277 275 273 271 272 271 272 270 270 270 270 270 269 267 270 271 272 272 271 272 273 274 275 274 277 278 276 275 273 274 275 276 276 278 279 278 280 278 276 272 271
279 276 275 273 271 271 270 270 269 268 269 267 267 268 268 268 268 271 273 273 272 272 272 272 274 276 277 278 278 274 273 275 274 273 273 273 274 275 276 277 278 276 274
276 274 272 270 271 269 267 267 267 267 266 266 267 267 270 270 271 272 274 275 275 273 272 274 274 276 276 275 274 275 275 274 270 269 269 270 271 272 273 274 275 275 275
272 270 268 268 269 268 266 267 267 267 267 267 268 268 268 270 271 273 273 274 275 274 274 275 275 274 273 271 272 273 271 268 268 267 266 267 269 271 272 272 273 273 274
269 268 267 266 267 266 267 268 268 268 268 267 267 267 268 270 271 271 271 272 274 274 274 272 272 271 271 271 268 269 268 268 267 266 267 268 269 269 268 270 269 270 269
269 268 268 268 267 267 267 269 268 269 269 267 267 268 269 268 270 272 273 272 273 274 272 268 266 266 266 266 266 267 267 267 266 267 266 266 267 268 268 270 270 270 269
269 268 269 269 267 268 268 267 270 271 271 272 273 272 271 272 273 273 274 274 275 274 268 265 264 265 265 265 265 265 266 266 266 266 266 267 267 267 268 269 270 269 268
271 269 269 268 268 267 266 266 266 268 269 270 271 272 272 271 272 273 273 274 273 271 264 264 264 264 264 264 264 265 264 266 266 266 266 267 267 268 267 267 268 268 268
270 267 269 267 267 267 266 266 265 264 264 265 268 268 268 269 271 271 272 271 263 264 263 263 262 263 263 263 263 264 264 265 265 266 266 266 268 268 267 267 267 267 267
267 265 266 267 266 265 265 264 264 263 262 262 263 265 266 267 268 269 270 262 261 261 262 262 262 262 263 263 263 263 264 264 265 265 266 267 268 267 266 266 267 267 268
264 265 264 264 263 262 262 262 262 261 261 261 261 262 263 260 261 263 263 261 261 261 261 261 261 262 262 262 262 263 263 264 264 265 266 268 267 267 266 266 267 267 267
264 262 262 263 262 262 262 261 261 261 261 260 261 262 265 260 262 263 260 260 260 260 260 260 260 260 261 262 262 262 262 263 264 265 266 267 267 266 267 267 267 267 267
263 262 261 261 262 261 261 260 260 260 259 259 260 261 265 262 260 260 259 259 259 260 260 260 259 260 260 260 261 261 261 262 263 264 266 266 266 266 266 266 266 265 266
262 262 261 261 260 260 259 259 259 259 259 259 259 259 259 259 259 259 258 258 258 259 259 259 258 258 259 259 260 261 261 262 263 264 266 265 265 265 265 265 265 264 265
261 261 260 260 260 260 259 259 259 259 258 258 259 259 259 259 258 258 257 257 257 258 258 258 258 257 257 257 258 259 260 261 263 263 266 264 264 264 264 264 264 264 265
260 260 260 259 259 259 259 258 258 257 258 258 258 258 258 258 258 257 257 256 256 256 255 256 256 256 255 255 256 256 257 260 262 264 266 260 259 260 262 262 263 264 264
259 258 258 258 258 257 257 256 256 257 257 257 257 257 257 257 257 256 256 255 255 255 254 255 255 254 254 255 255 257 261 263 262 265 268 263 258 259 257 260 261 262 262

GFSGL_sfc_thetae_069.txt.gz
Theta_e
285 284 284 284 283 283 282 281 280 280 279 279 278 278 277 276 276 275 275 274 274 274 274 274 275 275 274 274 275 275 274 274 271 272 274 275 274 274 275 277 277 276 277
285 284 284 283 282 281 280 279 279 278 278 278 278 277 276 276 275 274 274 274 273 274 274 274 274 276 273 273 273 272 272 273 271 270 272 272 273 274 274 273 275 277 276
284 283 282 282 281 280 279 279 278 277 276 277 276 276 275 275 274 274 274 274 273 273 274 274 273 273 273 273 272 271 272 273 272 271 270 273 273 273 273 274 274 274 276
283 283 282 281 281 280 279 278 277 277 276 276 276 275 275 274 274 275 274 273 273 273 274 274 273 273 273 272 273 273 273 272 272 271 271 271 272 273 273 271 271 274 274
283 282 281 281 280 279 278 278 277 277 276 276 275 274 273 273 274 274 274 274 273 273 273 274 274 273 275 275 274 273 273 271 271 271 270 270 270 271 271 272 271 272 273
283 282 282 281 280 279 278 277 277 276 276 275 274 273 272 273 277 277 276 274 273 272 272 272 273 272 273 275 276 277 276 273 272 271 271 270 272 272 273 272 271 270 269
283 282 282 281 280 278 277 276 275 275 275 274 273 272 272 272 276 277 276 274 273 272 272 272 272 273 272 272 274 276 277 277 279 276 272 272 272 273 273 272 272 272 271
283 283 282 280 279 277 276 275 275 274 273 272 272 272 271 271 276 276 276 273 272 272 271 272 271 272 272 274 274 275 276 275 275 275 274 274 275 276 275 275 274 273 274
282 282 281 280 278 276 275 274 274 273 272 272 272 270 270 269 274 275 275 271 271 271 272 272 272 272 275 278 276 273 273 272 275 277 277 276 276 276 275 273 270 269 268
282 282 281 279 278 276 276 274 274 273 272 271 271 269 268 264 273 275 275 271 266 270 271 273 275 274 277 278 275 271 266 269 272 269 269 270 272 271 274 272 271 268 268
282 280 279 279 278 277 275 273 271 270 270 268 268 266 264 266 266 274 275 272 269 268 269 271 273 276 277 278 277 270 270 274 268 266 266 267 268 269 270 271 271 270 267
279 278 277 277 276 274 273 270 269 268 266 263 262 262 265 266 269 273 275 276 275 267 267 272 272 276 278 276 274 274 275 272 265 264 264 265 266 267 268 269 270 270 271
277 276 275 273 273 272 270 267 265 264 264 263 264 263 264 267 267 275 275 277 277 272 271 273 276 276 275 271 272 273 269 263 263 263 263 265 267 268 269 268 269 270 271
275 272 270 270 268 268 268 267 266 264 264 264 264 265 264 266 267 267 268 267 272 272 273 269 271 273 271 270 265 267 266 264 264 264 265 266 267 266 266 267 267 267 267
272 270 269 269 268 265 266 266 266 265 266 264 264 264 262 262 265 269 268 264 265 268 269 264 261 259 260 261 261 262 263 263 263 264 264 264 265 265 265 267 267 267 265
268 268 267 266 265 265 265 262 272 271 273 274 273 266 263 270 272 274 276 277 277 277 264 259 256 257 259 260 259 260 262 261 262 263 263 263 264 264 264 266 267 265 264
270 268 267 266 265 264 264 264 264 266 276 275 276 276 275 271 275 276 276 276 276 276 263 257 255 257 258 260 259 259 260 261 261 262 262 262 263 263 264 265 265 265 264
263 265 266 266 265 264 264 264 264 264 265 265 272 275 275 275 275 276 276 275 264 262 258 256 255 257 256 257 258 257 258 259 260 260 261 261 261 262 262 264 264 263 263
265 265 264 264 264 264 263 261 261 260 258 259 259 266 267 270 272 273 274 263 260 258 259 257 257 254 256 255 256 255 255 258 258 259 259 260 260 261 262 263 263 263 263
259 263 262 262 260 260 260 260 260 259 258 258 261 262 263 259 256 258 257 256 257 260 260 256 254 252 254 254 252 253 254 253 254 254 259 259 260 261 261 262 263 262 262
260 260 261 259 258 258 258 258 260 260 261 261 260 262 266 259 257 258 259 260 261 261 259 255 252 253 255 254 251 252 253 256 255 255 259 259 260 259 260 262 262 262 261
259 258 258 258 258 258 259 260 261 261 260 258 256 256 266 260 256 254 254 255 256 255 255 253 252 255 257 256 255 253 253 253 252 251 257 258 258 259 260 261 261 260 260
258 257 257 256 257 260 260 259 258 256 253 251 251 252 250 250 250 251 252 252 252 254 256 257 257 256 254 256 255 255 254 254 253 249 255 256 257 258 259 260 261 259 259
257 258 260 259 259 258 255 252 250 252 250 250 248 247 249 248 250 251 251 251 251 252 252 256 257 256 256 256 254 253 251 253 251 254 250 254 255 257 259 261 261 259 258
259 259 257 256 253 252 251 249 251 250 248 249 249 248 247 249 249 250 251 250 251 253 254 255 255 255 254 253 254 253 249 255 254 254 253 252 255 257 258 262 260 258 258
255 253 252 251 250 251 254 250 248 249 248 249 249 248 248 249 250 250 251 250 252 254 254 255 254 253 253 253 252 252 255 257 256 256 255 255 256 259 260 260 258 258 258

GFSGL_sfc_thetae_072.txt.gz
Theta_e
285 285 284 283 283 282 281 281 280 280 279 278 278 277 277 276 276 275 274 274 274 274 274 274 274 275 274 273 274 274 273 273 269 271 273 274 273 273 274 275 276 275 276
285 284 283 282 282 281 280 279 280 279 279 278 278 277 276 276 275 275 274 274 274 274 274 274 273 275 273 273 272 272 272 272 271 269 272 272 272 273 274 273 275 276 275
284 283 282 281 281 280 279 279 279 278 277 277 277 276 275 275 275 275 275 274 273 273 273 273 273 273 272 272 272 271 272 273 272 271 270 273 273 274 273 274 274 274 276
283 283 282 281 280 280 279 279 278 277 277 277 276 276 275 275 275 275 274 273 273 273 274 273 273 272 272 272 272 272 273 272 272 271 271 272 272 274 273 273 272 274 274
283 282 282 281 281 280 279 278 277 277 276 276 276 275 275 274 275 274 274 274 273 272 273 274 273 273 274 275 273 272 272 271 271 271 271 271 272 272 271 273 272 273 274
283 282 282 281 280 279 278 277 277 276 276 276 275 275 273 274 279 279 276 274 273 272 272 272 272 272 272 275 276 277 277 273 271 271 272 270 271 271 272 272 272 271 268
282 282 282 281 280 279 278 277 277 276 276 275 274 274 273 273 280 280 279 274 273 272 272 272 272 273 272 272 274 277 277 277 278 275 270 271 271 273 272 270 270 270 270
283 282 282 281 280 279 277 277 276 275 275 274 274 273 273 273 279 279 278 273 272 272 271 271 271 271 272 272 273 274 275 274 274 274 273 274 273 273 273 272 271 270 270
282 282 282 281 280 278 277 276 276 275 274 274 274 273 272 272 279 279 277 272 272 271 272 271 271 271 274 277 275 270 271 271 275 276 276 276 276 276 274 271 266 266 265
283 283 282 281 280 278 277 276 276 275 275 274 273 272 272 271 277 278 277 272 267 270 271 272 275 273 276 278 275 266 262 269 271 268 268 270 271 270 273 271 269 265 265
284 283 282 281 280 279 278 276 276 274 273 272 272 270 269 268 268 277 278 272 269 267 269 270 272 276 277 278 279 269 268 273 266 265 265 266 267 268 269 270 270 269 266
283 282 281 281 280 279 277 275 274 273 272 270 268 266 266 267 270 274 277 278 275 267 268 271 272 276 277 278 276 275 275 272 260 259 262 263 265 266 268 269 269 269 270
281 280 280 280 279 278 276 273 272 272 271 268 267 266 266 267 267 275 275 278 278 274 271 272 275 277 278 274 273 274 268 261 259 258 262 264 266 267 268 268 269 269 269
279 277 277 276 274 274 274 273 272 270 269 267 266 266 265 265 266 267 268 269 274 275 274 271 272 275 275 272 266 268 265 263 262 262 263 265 266 265 265 266 265 266 266
275 273 273 274 272 271 271 271 272 269 271 267 267 266 263 263 266 269 268 263 261 266 266 259 261 264 262 263 261 262 262 262 261 262 262 262 263 264 264 265 265 265 264
270 270 271 271 269 269 267 263 273 271 274 275 273 268 262 270 273 275 275 275 276 276 272 263 263 264 263 262 259 259 261 261 261 261 261 261 262 262 262 263 264 264 263
271 268 267 267 267 266 266 266 265 267 275 276 276 276 275 270 274 275 276 278 279 278 272 262 263 263 261 261 260 259 260 262 260 260 260 260 261 261 261 261 263 263 262
264 266 267 267 266 265 266 265 263 265 266 263 274 276 278 278 277 278 278 277 272 266 261 262 261 261 260 259 260 259 259 259 256 257 258 259 258 259 259 259 261 261 261
264 264 264 263 262 263 262 261 261 259 259 258 260 266 267 271 273 273 274 266 262 259 259 259 257 258 259 259 259 257 256 256 255 254 253 256 257 258 258 259 261 261 261
259 262 262 262 260 260 260 260 259 259 259 259 260 264 264 262 257 259 260 257 257 258 259 257 258 259 258 257 256 254 253 252 253 253 253 255 257 258 259 259 259 260 260
258 259 260 258 259 259 259 259 260 259 260 260 262 263 266 260 259 258 256 257 257 260 256 252 251 252 251 251 251 253 253 254 255 255 253 255 253 257 257 259 259 260 260
259 258 258 257 257 258 257 259 260 261 261 260 259 258 268 255 252 251 250 250 250 249 249 250 250 250 253 255 256 256 256 255 255 255 254 254 253 253 255 257 258 259 260
257 256 255 255 256 258 258 258 260 261 259 258 256 252 249 249 247 246 246 248 248 249 250 248 250 251 251 255 257 257 256 255 256 254 251 251 252 252 252 255 257 258 259
256 256 257 257 258 258 259 259 258 255 254 252 249 247 247 246 246 247 248 247 246 248 248 249 251 253 254 253 254 255 255 254 253 253 251 250 252 252 251 254 256 258 260
255 256 256 257 258 258 257 256 252 251 252 254 251 249 248 247 246 247 247 247 248 247 249 249 250 250 251 252 254 254 253 256 254 253 248 248 250 250 251 253 255 258 259
257 258 257 256 255 254 254 254 255 256 255 255 253 250 250 248 248 247 248 248 249 249 249 249 249 250 251 252 253 254 256 258 256 254 251 250 250 251 253 254 256 257 258

GFSGL_sfc_thetae_075.txt.gz
Theta_e
287 286 285 284 283 282 281 281 280 280 279 279 278 278 277 277 276 276 275 275 275 274 275 274 274 275 273 273 274 273 273 272 269 271 273 273 273 273 275 275 276 275 276
286 285 284 283 282 281 280 280 280 279 279 278 278 278 277 276 275 275 275 275 274 274 274 274 273 275 272 272 272 272 272 272 271 269 271 272 272 274 274 274 275 277 276
286 285 283 282 281 280 280 279 279 278 278 278 278 277 276 276 276 275 275 275 274 273 273 273 273 273 272 272 271 271 271 273 272 270 270 273 273 274 274 275 275 275 276
285 284 283 281 281 280 279 279 278 278 277 277 277 276 275 275 275 276 275 274 273 273 273 273 272 272 272 271 272 272 272 271 272 271 270 271 273 274 273 272 271 274 273
284 283 282 281 280 280 279 279 278 277 277 277 276 275 275 275 276 275 275 274 273 273 273 273 273 273 275 274 273 272 272 270 271 271 271 272 271 271 270 272 271 271 272
283 282 282 281 280 279 279 278 277 277 276 276 276 275 274 275 280 280 276 274 274 273 272 272 272 272 273 275 276 277 277 271 264 265 271 269 270 271 272 270 270 269 267
282 282 281 280 279 279 278 277 277 276 277 276 275 275 274 274 282 281 279 275 274 272 272 272 272 273 272 272 273 276 277 278 278 275 268 270 270 272 271 270 270 269 268
282 281 281 280 280 278 278 277 277 277 276 275 275 275 274 274 282 282 280 275 273 273 272 272 272 272 272 272 272 272 273 273 275 274 273 273 274 274 272 271 270 268 268
281 281 281 281 280 278 278 277 277 276 275 275 275 275 274 274 282 282 280 274 273 272 272 272 271 271 273 276 274 273 272 272 275 277 277 277 277 276 274 271 265 265 264
282 282 282 282 281 279 278 277 277 277 276 275 275 275 275 274 280 282 280 274 272 272 272 272 275 272 275 277 274 269 267 269 271 267 269 269 271 270 273 270 268 264 264
283 282 282 282 281 280 279 278 277 276 275 274 274 274 274 273 273 281 281 274 271 270 270 270 272 276 277 278 279 271 269 273 266 264 265 266 267 268 268 269 270 268 265
283 282 282 282 281 280 279 278 277 276 275 274 273 272 272 271 273 278 281 280 276 268 268 270 271 276 277 278 278 278 278 274 259 257 258 263 265 266 267 268 269 269 269
283 283 282 282 282 281 279 277 276 275 275 273 272 273 271 269 269 276 278 280 280 274 271 272 275 277 277 277 275 276 270 261 259 256 261 263 265 266 267 267 267 268 268
282 282 282 281 280 280 279 278 276 274 274 273 271 272 271 267 267 268 269 271 276 277 276 275 276 275 276 274 267 269 265 263 261 261 262 264 265 264 263 265 264 264 264
279 277 277 278 278 276 277 276 275 275 276 273 273 274 268 266 268 270 269 265 266 268 264 259 261 262 265 266 264 263 263 263 261 261 261 261 262 263 263 264 263 262 261
272 272 274 272 272 272 271 266 278 276 278 279 276 270 263 271 275 276 276 276 275 275 269 263 264 267 267 267 265 263 262 262 263 262 260 261 261 261 261 262 262 260 261
272 270 270 270 270 269 269 269 267 268 277 278 278 277 276 271 276 276 277 278 278 277 274 272 269 267 266 265 264 262 261 262 263 261 261 260 260 260 259 259 260 260 260
266 267 269 268 268 267 268 268 268 267 267 262 275 277 278 277 276 277 277 278 274 275 267 264 264 264 264 262 261 261 260 261 260 260 259 259 257 257 258 257 258 258 259
264 264 263 262 261 263 262 262 262 262 263 262 258 267 267 278 278 278 275 264 264 262 261 262 261 261 261 260 260 259 259 258 258 257 255 256 256 256 257 257 258 258 259
259 262 262 261 260 260 261 261 260 261 261 263 264 264 258 259 257 260 261 262 261 259 259 258 258 257 256 254 253 253 252 249 250 252 255 256 256 257 257 258 258 258 258
259 260 261 259 260 260 260 260 260 260 259 258 256 259 267 260 260 261 261 260 256 254 253 251 249 248 246 246 245 245 247 252 253 255 256 256 256 255 257 258 257 257 257
257 256 255 256 255 257 255 257 257 257 257 258 255 258 271 261 259 258 256 256 251 249 250 248 247 246 248 247 249 250 252 254 252 254 256 256 255 255 254 255 253 255 256
257 256 255 253 254 255 255 253 255 255 255 254 256 259 259 257 256 255 249 251 252 251 247 244 244 246 247 249 250 253 253 254 253 255 255 254 254 254 253 251 251 252 254
255 255 255 254 254 255 255 254 255 256 258 257 257 257 256 255 253 252 253 251 249 248 243 243 244 247 248 249 249 250 252 253 252 254 253 253 253 253 250 247 250 251 253
254 255 255 255 255 255 256 255 257 256 256 256 256 256 255 255 255 254 253 251 248 247 248 246 246 247 248 249 249 248 249 255 255 255 252 251 251 251 246 245 249 251 252
253 254 253 253 255 257 256 257 257 257 256 256 257 256 256 255 254 253 249 248 249 249 247 246 247 247 248 249 249 251 254 257 256 256 254 251 250 248 245 247 248 251 253

GFSGL_sfc_thetae_078.txt.gz
Theta_e
289 288 287 286 285 284 283 282 282 281 280 279 279 278 277 277 277 277 276 276 276 275 275 275 275 274 273 273 274 273 272 272 269 271 273 273 273 273 275 275 276 276 276
288 286 286 284 284 283 282 281 281 279 279 279 278 278 277 276 276 276 276 275 275 275 274 275 273 275 272 272 272 272 271 272 271 269 271 272 272 274 274 274 275 276 275
286 286 284 283 283 282 281 281 279 278 278 278 277 277 276 276 275 276 276 275 275 275 274 273 273 273 272 272 271 271 271 273 271 270 269 272 272 274 273 273 274 274 275
285 285 283 283 283 282 281 280 279 278 277 277 277 276 276 276 275 276 275 275 275 275 274 273 273 272 272 271 271 271 272 271 271 270 270 271 272 273 272 271 271 273 272
284 284 283 283 282 281 280 280 278 278 278 278 276 276 276 276 276 275 275 275 275 274 273 274 273 273 275 274 273 272 271 270 270 270 270 271 271 270 270 272 270 271 272
284 283 283 282 281 280 279 279 278 277 277 277 276 276 275 276 280 280 277 275 275 274 272 273 273 273 274 277 277 278 276 270 264 265 271 270 270 270 271 271 270 269 267
283 283 282 282 280 280 279 278 277 277 277 276 276 276 275 275 282 282 280 276 275 273 273 273 273 273 273 272 275 277 278 278 278 276 266 270 270 271 272 271 270 269 268
282 281 282 281 280 279 278 278 277 277 277 276 275 276 275 275 283 283 280 276 275 274 273 273 273 273 272 272 272 272 273 273 274 275 274 273 273 275 273 272 270 267 268
281 281 281 281 280 278 278 278 278 277 276 276 276 275 275 275 284 284 282 275 275 274 274 273 273 272 274 277 274 272 272 273 277 279 278 278 278 277 275 271 262 264 263
282 282 281 281 280 279 279 278 278 278 277 277 276 276 276 275 284 285 283 276 274 273 273 273 275 273 276 277 275 270 268 270 271 268 269 270 271 270 273 270 268 263 264
282 281 281 281 280 280 279 278 278 277 276 275 275 275 275 276 279 285 285 277 275 273 272 272 272 277 278 278 279 272 271 273 270 266 265 266 267 267 268 269 269 268 265
281 280 280 280 280 280 279 278 277 277 276 275 275 274 274 275 277 283 284 283 279 273 271 272 272 276 278 279 278 279 280 278 262 257 258 262 264 266 267 268 268 268 268
281 281 281 281 280 280 279 277 277 277 276 275 274 273 273 274 274 281 283 284 283 276 272 272 275 276 278 278 280 279 273 264 260 257 260 263 265 266 267 266 267 267 267
282 282 282 281 280 280 281 279 278 276 276 275 274 274 275 273 272 272 276 277 280 280 278 276 277 277 278 275 270 274 270 266 265 263 264 265 265 264 262 264 263 263 262
282 281 281 282 281 280 280 279 278 278 278 276 276 276 275 272 272 275 274 269 269 270 259 258 262 264 265 268 265 266 267 266 265 265 264 262 262 262 262 263 263 261 259
276 279 280 280 280 279 278 275 282 281 281 282 281 277 267 278 279 278 278 277 277 277 268 258 262 266 268 269 268 269 266 265 265 264 262 262 261 261 261 261 261 260 258
274 272 272 273 274 273 272 273 271 275 279 281 282 281 278 276 278 279 279 279 279 278 271 268 267 267 268 269 268 266 263 264 265 263 263 262 261 260 259 258 259 259 258
267 269 271 270 270 269 270 270 271 270 269 271 279 279 279 278 279 279 279 279 273 277 272 271 268 266 264 264 263 262 262 262 262 262 261 260 258 259 257 256 257 257 257
265 265 265 265 265 266 265 264 267 267 266 266 259 273 274 279 278 278 279 271 268 267 264 264 265 263 263 263 262 261 260 258 256 254 253 254 254 253 256 257 258 259 259
260 263 262 262 261 261 262 264 264 265 264 265 263 265 257 263 264 260 257 257 260 261 263 262 261 261 260 259 254 251 251 250 247 247 249 250 253 257 257 257 257 257 257
260 260 260 258 260 259 259 260 258 258 258 258 259 256 267 261 260 255 259 260 261 260 261 259 259 258 252 250 252 249 250 251 246 247 249 255 256 255 256 257 257 257 256
258 257 256 257 256 258 257 258 258 258 258 257 252 254 274 258 257 256 256 257 259 259 258 257 254 251 251 250 251 249 249 247 246 246 250 253 254 255 255 256 255 256 255
257 256 254 252 253 254 253 252 252 253 253 252 254 255 254 253 253 255 258 258 256 255 253 253 254 253 250 249 248 250 249 249 250 248 249 249 252 254 254 254 254 253 252
255 255 255 253 254 254 254 253 254 255 255 254 254 254 255 256 257 257 256 255 254 255 254 253 251 250 249 249 246 246 247 247 246 248 249 250 251 251 253 252 252 252 249
254 254 255 254 254 253 254 252 254 253 253 255 256 257 256 256 256 256 256 255 255 254 253 252 249 249 249 248 247 244 245 253 250 249 248 247 248 248 251 250 250 244 245
253 253 252 253 253 252 253 253 252 253 253 253 255 256 255 255 254 255 255 254 254 253 251 249 248 248 247 247 247 250 253 256 253 253 250 249 248 249 247 245 244 244 247

GFSGL_sfc_thetae_084.txt.gz
Theta_e
300 298 296 295 292 291 289 286 285 285 283 283 282 283 283 282 284 285 285 285 284 283 284 283 282 282 281 280 281 281 281 282 281 279 280 281 280 280 281 282 281 281 281
299 297 296 294 290 288 287 286 285 284 283 283 282 282 282 281 283 283 283 283 283 282 281 281 280 279 279 279 280 279 279 280 280 277 278 279 279 280 280 280 279 279 280
298 296 294 291 288 287 286 285 284 283 282 281 282 280 280 280 281 281 283 282 282 281 281 280 279 279 277 278 279 279 278 277 279 278 277 279 279 280 279 279 279 280 279
296 294 292 291 288 287 285 284 283 283 281 281 281 280 279 280 279 280 280 281 281 280 280 279 279 278 277 278 278 278 278 277 277 277 277 277 278 279 278 277 277 279 278
294 293 292 290 289 287 284 283 283 282 281 281 279 279 279 279 278 278 279 280 279 279 279 278 278 279 279 279 278 277 277 277 277 277 277 277 277 277 275 276 275 277 278
293 291 291 288 286 285 283 283 282 281 280 280 279 278 278 278 282 282 280 279 279 278 276 277 277 277 278 279 279 280 279 278 278 278 278 276 276 276 276 275 275 274 273
291 290 288 287 286 284 283 282 281 280 280 279 278 278 278 278 284 283 281 279 278 278 277 276 276 277 278 278 280 280 279 280 279 278 277 277 276 276 276 275 275 274 273
290 288 287 286 285 284 282 281 281 280 279 278 278 278 278 278 284 284 282 279 278 278 277 277 277 276 276 277 278 279 279 279 280 280 279 279 278 278 277 277 276 275 274
289 288 287 286 285 283 282 282 281 280 279 279 278 278 278 279 284 284 281 278 278 277 277 277 277 277 277 279 276 276 276 276 278 280 280 280 281 281 279 277 274 272 270
288 288 287 286 284 283 283 282 281 281 280 279 279 279 279 279 285 285 282 279 278 277 277 277 278 277 279 280 277 275 274 275 276 277 277 279 280 278 276 275 273 270 270
287 286 285 285 284 283 283 283 281 280 279 278 278 278 279 280 283 285 284 279 279 279 278 277 277 279 279 280 281 278 277 278 278 277 276 277 276 275 274 274 273 271 270
285 284 284 283 284 283 282 281 281 280 278 277 277 277 279 279 282 285 285 282 283 281 280 280 278 279 281 281 281 281 281 280 279 278 277 275 274 273 274 273 272 272 272
283 282 282 283 283 283 282 281 280 280 280 279 278 278 278 278 280 285 286 285 284 282 283 283 282 281 281 282 282 282 280 281 279 275 274 274 274 275 273 271 271 271 270
281 281 282 281 282 282 282 282 281 280 280 280 279 279 279 278 278 280 285 286 285 285 283 282 282 281 281 281 278 281 281 281 278 276 275 276 274 272 271 271 269 269 268
282 282 282 282 282 281 281 281 281 282 283 282 281 281 280 278 278 281 284 285 285 286 284 281 279 279 278 278 278 278 279 279 275 275 274 273 272 271 270 271 269 267 265
282 282 282 281 281 280 280 280 282 282 283 284 284 283 283 282 282 281 282 284 285 286 277 279 279 279 279 278 278 276 276 276 276 275 274 272 271 270 269 269 268 266 264
283 282 282 281 280 280 280 280 278 281 282 283 283 283 283 282 283 283 283 283 284 284 281 279 279 278 279 278 277 276 275 275 275 273 272 270 269 268 267 266 266 265 263
283 283 283 282 281 281 281 280 281 280 279 280 283 283 283 283 283 284 284 284 281 282 281 280 279 278 278 277 276 275 275 273 271 270 269 268 267 266 265 264 264 262 262
282 282 282 282 282 281 281 280 281 280 281 280 278 279 283 285 284 282 283 281 280 280 281 280 279 276 275 274 274 273 272 270 269 267 267 266 265 264 262 262 261 260 260
276 276 277 278 276 276 277 277 277 277 277 277 276 278 278 279 281 280 280 280 280 280 279 276 274 274 273 272 270 269 268 266 266 265 264 263 262 262 261 260 260 260 260
274 272 273 274 274 275 274 274 275 274 274 274 275 276 276 278 280 279 279 275 276 276 274 273 271 270 269 268 267 266 265 265 264 263 262 261 260 259 260 260 260 260 259
272 272 272 272 271 271 271 272 272 272 272 272 272 270 274 275 275 274 274 273 272 272 271 270 269 267 266 265 265 264 263 262 262 261 260 259 259 259 259 259 259 259 259
270 269 269 269 270 266 268 268 269 269 270 269 269 269 269 273 272 271 270 267 266 265 265 266 265 263 263 263 263 263 262 262 261 261 259 258 258 258 258 258 258 257 257
268 269 268 267 267 268 268 267 267 264 267 266 266 266 267 267 267 266 265 264 263 263 262 262 263 262 261 261 260 261 261 260 259 258 258 258 257 257 257 257 256 256 256
265 265 265 265 265 265 264 263 264 264 264 264 264 264 263 263 263 263 262 262 261 261 260 260 260 260 259 258 258 258 257 258 257 256 255 255 256 255 255 255 255 255 255
262 262 262 262 262 262 263 262 262 262 262 262 262 262 262 262 262 262 261 260 259 259 259 259 259 258 257 258 257 257 257 257 255 255 255 255 255 254 254 253 253 254 253

GFSGL_sfc_thetae_087.txt.gz
Theta_e
305 305 305 303 302 299 295 293 290 288 286 285 285 285 284 285 286 288 286 287 285 286 286 285 283 284 283 282 282 282 282 283 281 279 281 281 280 280 281 281 281 280 280
304 304 302 301 298 296 293 289 288 287 285 284 284 283 283 283 283 284 283 285 284 283 284 283 282 281 281 281 281 280 280 281 281 277 278 279 279 280 280 279 279 279 280
302 301 300 299 296 294 292 289 288 286 284 283 283 282 281 282 282 283 282 284 283 283 282 281 280 280 279 280 279 279 278 279 280 280 277 279 279 280 279 279 278 279 279
301 300 298 297 295 292 290 288 287 285 284 283 283 282 281 281 282 281 281 281 281 281 281 281 280 280 279 279 278 278 278 278 278 278 278 278 278 279 278 276 276 278 278
299 298 297 296 293 291 288 286 285 284 283 283 282 281 280 280 280 280 280 280 280 279 280 280 280 280 281 280 279 278 278 278 277 278 278 277 277 277 276 276 275 276 277
297 296 296 292 290 289 286 285 283 282 282 282 281 280 279 279 283 284 281 280 280 279 278 278 279 279 280 282 282 281 280 279 278 278 279 277 277 277 277 276 275 274 272
294 294 292 290 288 287 285 283 282 281 281 280 280 279 279 279 284 284 283 280 279 279 278 277 278 278 279 279 281 281 281 282 282 280 278 278 277 277 276 275 275 275 273
292 291 291 288 287 286 284 283 283 281 280 280 279 279 279 279 285 285 283 280 279 279 278 278 278 277 278 278 279 278 278 279 280 280 279 279 279 278 277 277 275 275 275
290 290 289 288 286 285 283 283 283 282 280 280 280 279 279 279 285 285 282 279 279 278 278 278 278 277 279 281 278 278 278 279 281 283 283 282 281 281 280 278 272 271 270
290 290 290 288 286 285 284 283 283 283 281 280 280 279 279 279 285 285 282 279 278 277 278 278 280 278 281 282 277 277 276 277 276 275 277 279 281 281 282 278 274 270 270
289 289 288 287 286 285 284 284 283 282 280 279 278 279 279 280 284 286 284 280 279 278 277 277 278 281 281 282 281 277 277 278 277 275 275 276 276 276 276 275 275 273 270
287 286 285 285 285 285 283 283 282 281 279 278 278 277 278 279 283 286 285 282 282 279 278 280 279 282 282 282 282 281 281 280 276 275 275 276 275 275 275 275 274 274 273
284 283 283 284 284 284 283 281 281 280 279 277 277 277 277 278 281 286 286 285 283 280 282 283 283 283 284 283 283 282 280 279 277 276 276 276 276 275 276 274 273 273 272
282 282 282 282 282 283 283 282 281 280 279 278 278 278 278 278 278 281 284 285 283 282 284 284 284 283 283 282 281 282 280 279 278 277 277 276 276 274 271 271 270 270 269
282 282 282 283 282 282 282 282 282 282 282 280 280 281 280 278 280 282 283 284 284 283 283 283 282 280 279 279 279 278 279 280 278 278 277 276 274 272 272 272 271 269 266
282 282 282 282 282 281 281 281 284 284 284 285 285 284 283 284 284 283 283 285 286 286 283 281 280 279 278 278 278 277 277 277 278 276 276 275 273 273 271 271 270 267 265
284 283 282 281 281 280 280 279 278 281 283 284 285 285 285 284 284 283 283 284 286 286 283 281 281 281 280 280 279 279 277 276 277 276 275 274 272 271 269 267 267 266 264
284 283 282 282 281 281 280 280 280 279 278 279 283 283 284 284 284 284 284 283 280 283 283 282 281 281 280 279 279 278 277 276 274 273 272 271 270 269 267 266 266 263 262
283 283 283 283 282 282 281 281 281 281 280 280 281 282 282 284 283 284 284 281 279 279 280 281 281 281 280 279 277 276 275 273 271 270 269 268 267 266 264 263 262 261 259
281 282 283 282 282 282 281 280 280 281 280 279 278 280 280 283 282 281 281 282 281 281 281 280 281 279 276 275 275 273 271 269 267 267 266 266 265 263 261 258 257 257 257
278 277 279 278 278 278 278 278 278 278 278 277 277 279 281 279 281 281 280 280 280 281 279 276 275 274 273 272 271 269 268 267 266 264 263 261 259 257 257 258 256 255 255
276 275 276 276 276 276 276 276 276 276 276 275 276 274 278 277 278 279 279 278 277 276 275 274 272 270 270 269 268 267 266 265 263 262 260 258 257 256 255 256 255 255 254
274 273 272 272 272 270 271 272 272 272 272 272 272 270 269 275 275 275 273 270 269 268 268 269 268 266 266 266 266 266 264 262 262 261 259 258 256 256 254 254 253 252 252
272 272 271 269 269 270 270 269 266 265 268 268 268 268 268 270 270 268 267 266 265 264 264 264 264 262 261 263 263 263 260 258 257 258 257 257 255 254 253 251 252 251 251
268 268 267 267 267 266 266 266 266 266 265 265 265 265 264 264 264 264 263 262 261 260 259 259 260 261 259 259 258 257 257 259 254 255 252 252 251 251 250 249 250 250 249
265 265 265 265 265 265 265 264 264 264 264 263 263 263 263 263 263 263 261 260 259 259 259 258 257 256 256 256 255 256 259 260 256 254 252 252 251 250 249 248 248 248 247

GFSGL_sfc_thetae_093.txt.gz
Theta_e
300 300 300 300 300 299 298 297 296 293 292 291 294 293 293 294 295 295 295 294 293 293 293 290 289 286 285 284 284 283 281 281 278 275 277 278 277 278 279 279 280 279 278
299 299 299 299 298 297 295 294 291 291 288 289 289 291 291 291 291 292 292 292 292 291 290 288 286 284 282 281 283 281 281 280 279 275 276 276 277 278 278 279 279 279 279
298 298 297 297 296 294 293 291 288 286 285 284 286 287 288 289 290 291 291 290 291 291 289 285 283 282 280 279 279 279 280 279 278 277 275 277 277 278 278 278 278 278 279
297 297 296 295 295 294 291 288 286 285 284 283 284 285 286 286 287 288 288 287 287 285 284 283 282 281 280 279 279 279 279 278 277 276 276 276 277 278 278 277 276 277 277
296 296 296 294 293 291 288 286 285 284 284 284 284 284 284 284 284 285 285 285 284 282 282 282 281 281 283 282 280 278 279 278 277 277 276 277 276 276 276 277 276 276 276
296 296 295 291 289 288 286 285 284 284 283 283 283 283 282 283 286 288 285 284 283 282 281 281 281 281 283 284 284 283 281 279 278 277 277 277 277 277 277 276 275 274 273
291 292 290 289 288 287 286 284 283 282 282 282 282 282 282 282 286 288 287 283 282 282 281 280 280 281 281 282 284 284 283 284 283 280 278 278 277 278 277 276 275 274 274
289 289 288 287 287 286 284 283 282 282 281 281 281 282 282 282 286 288 287 283 282 282 281 280 280 280 281 281 281 280 281 282 282 282 280 280 280 279 279 277 276 275 274
288 287 286 286 286 284 283 282 281 280 279 279 280 282 281 281 286 288 286 281 281 280 280 280 280 280 282 284 280 279 279 280 283 284 283 284 283 283 280 276 272 270 267
286 287 286 285 286 284 284 282 278 279 280 279 280 282 281 281 285 288 286 281 279 279 279 279 281 280 284 284 281 280 278 279 278 279 280 282 283 282 282 277 274 268 267
285 285 283 284 285 284 281 278 278 278 278 279 279 280 281 281 282 287 287 280 279 278 277 278 279 282 284 285 284 281 281 280 279 278 278 278 277 278 277 278 277 274 269
282 282 283 283 283 281 279 274 275 277 277 278 279 278 279 280 282 287 287 283 282 278 277 278 279 283 285 286 284 284 284 282 278 275 275 275 275 275 276 276 276 275 275
280 280 279 277 279 279 279 278 277 279 279 279 278 277 277 278 280 285 287 286 283 279 279 280 281 284 286 287 287 284 282 278 276 274 273 274 274 275 275 274 274 274 273
279 278 277 279 278 276 279 279 279 279 279 278 278 277 277 277 278 282 284 285 283 281 281 281 282 283 284 285 284 285 280 278 275 274 274 275 275 274 273 273 271 269 267
279 278 277 276 276 277 279 279 279 279 281 279 279 279 277 276 278 282 284 282 282 282 281 281 280 279 279 281 281 282 281 279 276 276 275 274 274 273 273 272 271 270 266
280 280 280 279 277 277 278 277 283 282 283 283 283 281 280 281 282 283 285 287 285 284 280 279 278 278 278 279 280 279 279 279 277 277 276 275 274 274 273 271 271 268 267
281 280 280 279 279 279 278 279 278 281 284 284 284 284 283 282 284 284 284 286 286 285 279 279 279 279 279 279 279 279 278 279 279 278 276 276 276 274 272 270 269 267 266
282 282 281 281 280 279 278 276 276 277 278 279 284 284 285 285 285 284 284 285 283 284 280 279 279 280 280 279 279 278 278 276 277 277 277 276 275 274 271 270 268 265 263
281 282 281 281 280 280 279 278 278 278 277 273 275 282 284 286 285 286 285 281 281 282 281 280 280 280 280 279 278 278 277 276 276 276 276 275 274 273 270 268 267 265 261
279 279 282 281 280 279 279 279 278 278 277 277 277 277 277 280 280 281 282 282 277 271 273 281 281 281 281 281 280 279 278 277 275 275 273 272 270 270 267 266 265 262 260
275 272 278 277 280 280 279 279 279 279 279 279 278 279 281 277 276 276 277 280 278 272 271 273 276 279 280 280 278 277 277 274 274 273 270 268 267 266 265 265 262 260 259
274 276 275 273 274 277 278 277 277 277 277 277 275 276 281 278 278 279 279 280 280 280 279 278 276 277 277 276 275 274 273 270 268 266 266 265 264 262 262 260 259 257 254
273 274 271 270 270 274 274 274 274 274 274 274 273 272 272 274 275 274 273 273 273 272 272 273 272 268 267 269 270 272 269 267 267 266 264 263 262 261 260 257 256 255 255
269 270 269 269 269 270 269 268 268 268 267 266 264 262 261 265 268 267 266 266 265 264 265 265 264 264 264 263 263 263 264 263 264 264 263 262 260 259 258 256 257 256 255
267 267 267 266 266 266 265 264 264 264 263 264 262 260 259 262 262 261 261 260 260 260 260 261 261 261 261 262 262 261 264 264 261 261 260 260 259 258 257 256 253 251 249
263 263 263 264 264 264 263 263 262 262 261 261 261 259 259 259 258 258 257 258 258 257 257 256 257 258 259 259 260 262 264 263 259 259 257 256 256 255 254 253 252 251 250

GFSGL_sfc_thetae_096.txt.gz
Theta_e
299 299 299 299 300 299 298 297 297 295 294 294 296 299 299 298 298 298 297 296 294 294 294 293 293 294 291 288 286 285 283 282 280 278 279 280 279 279 280 279 280 280 279
298 297 298 298 298 297 296 295 293 294 291 293 292 294 295 296 296 296 296 296 294 293 293 293 293 293 289 287 286 284 283 283 280 277 277 277 278 279 279 278 279 279 279
296 296 296 296 296 295 295 293 292 291 289 287 288 290 291 292 292 294 295 294 293 294 293 292 291 289 287 285 286 283 283 281 280 278 276 277 276 278 277 278 278 278 279
296 295 295 294 295 294 293 291 290 288 287 286 286 288 288 289 290 291 291 292 291 292 292 291 290 286 287 283 283 282 282 280 279 278 277 277 277 278 278 277 276 277 277
295 294 295 294 293 293 290 289 288 286 286 285 284 284 284 287 288 288 288 290 289 289 287 287 285 285 286 285 283 281 281 280 279 278 276 276 276 276 276 277 277 277 277
293 293 293 291 290 289 289 288 286 286 284 284 283 283 283 284 288 290 289 288 287 286 284 283 283 283 284 286 286 285 284 280 279 278 277 276 276 277 278 276 276 274 273
288 289 289 289 288 288 288 286 286 285 283 283 283 283 283 284 288 289 289 286 285 285 284 283 281 283 283 284 286 287 286 286 284 280 278 278 277 278 278 276 276 276 275
287 287 287 286 286 287 286 286 285 283 283 283 283 282 283 283 287 288 289 286 284 284 284 282 282 281 283 283 283 282 282 283 283 283 282 281 282 280 280 279 278 277 275
285 286 286 286 285 285 284 285 284 282 281 282 281 281 281 283 287 288 288 284 283 282 282 282 282 281 284 285 281 280 280 281 285 286 284 285 285 284 281 277 274 273 272
284 285 285 284 283 284 285 284 280 283 283 282 281 281 281 282 286 288 288 284 282 281 281 281 282 282 284 286 281 280 278 279 281 281 281 283 284 283 282 279 276 273 271
283 283 283 282 282 283 283 278 277 279 278 277 279 279 280 281 282 287 288 284 282 280 279 279 280 284 285 286 284 280 281 282 282 280 279 279 280 280 280 278 277 276 272
281 280 280 280 280 281 278 276 274 275 276 277 278 279 280 281 282 285 288 289 284 280 279 279 280 284 285 286 284 284 287 283 280 278 278 277 278 278 278 278 277 277 276
279 279 279 278 278 276 274 275 274 275 278 279 279 280 279 279 280 284 286 288 285 281 280 280 281 284 285 285 285 286 283 279 278 276 276 276 278 279 278 276 276 275 274
278 279 279 277 278 279 277 278 280 279 280 280 279 279 279 278 278 280 282 285 286 283 281 280 281 283 284 285 284 285 282 278 278 277 276 276 276 275 274 274 273 272 268
278 278 278 278 277 280 280 280 280 282 282 281 281 280 279 277 278 281 282 283 284 282 280 280 280 280 280 282 283 283 280 278 276 277 275 274 274 274 274 273 272 271 268
277 279 278 277 277 276 279 280 283 284 284 284 285 283 280 283 283 283 284 285 286 284 279 278 278 279 279 280 281 281 279 278 277 276 276 275 274 273 273 272 273 271 270
278 280 280 281 280 279 275 278 278 280 285 285 285 285 285 282 283 284 285 285 286 284 278 278 278 279 278 279 280 280 279 279 278 277 276 276 275 275 273 272 272 270 270
274 279 282 282 281 278 276 276 278 275 278 279 283 285 285 285 284 285 285 285 283 283 280 279 279 279 279 279 279 280 279 279 278 278 277 277 276 275 273 272 271 269 269
268 273 278 282 281 279 277 274 277 278 278 279 278 281 284 286 286 286 285 282 281 281 280 279 279 279 280 280 279 280 280 278 278 278 278 277 276 275 273 272 270 270 267
266 269 274 279 281 279 279 276 278 278 278 277 277 279 277 281 280 281 283 281 278 278 281 280 280 280 280 279 279 279 278 277 277 277 277 277 276 275 274 271 269 265 264
265 268 271 275 280 280 279 278 278 278 278 277 277 275 281 277 277 275 278 280 278 277 277 278 280 281 281 280 280 279 278 277 277 276 276 274 272 272 270 269 267 265 263
265 267 270 275 278 279 279 279 278 279 279 278 276 276 282 279 277 275 275 277 277 277 277 277 278 279 279 280 280 279 278 276 275 273 271 270 269 267 266 265 264 262 261
267 269 271 273 274 275 275 275 276 276 275 275 275 273 274 275 275 274 274 274 273 271 269 269 269 268 267 269 271 275 275 272 271 270 268 266 265 264 264 262 261 260 259
266 268 268 269 269 270 270 270 270 270 270 269 269 268 268 269 268 267 267 266 266 265 265 265 267 266 265 264 265 266 265 264 265 267 266 265 264 263 262 260 260 259 259
263 264 265 265 265 266 266 265 265 265 265 265 264 264 263 264 263 261 262 263 263 262 261 261 262 263 263 262 262 261 265 265 263 264 264 264 262 261 260 260 258 256 256
261 262 262 262 262 263 263 263 262 262 262 262 261 261 261 260 259 259 258 259 258 258 258 258 258 259 259 259 259 263 266 264 262 262 261 261 260 259 258 257 256 255 254

GFSGL_sfc_thetae_102.txt.gz
Theta_e
297 297 297 297 298 298 297 297 297 296 296 296 297 302 302 301 302 302 302 300 298 298 297 296 295 296 295 294 292 291 290 291 290 293 284 283 281 282 282 284 284 285 288
294 294 295 295 295 294 295 295 294 294 293 293 293 293 297 299 300 300 300 300 298 296 296 295 294 295 293 294 291 290 290 290 290 289 282 280 281 282 282 282 282 284 284
292 293 293 293 293 293 293 293 292 292 292 291 290 290 293 295 297 298 299 299 298 298 297 294 295 294 293 293 293 290 289 289 288 289 284 280 281 281 280 281 281 281 282
290 290 290 290 291 292 291 291 291 290 290 290 289 289 289 291 292 293 292 295 296 296 296 296 295 294 293 293 292 290 290 288 287 286 281 279 280 280 280 278 278 279 278
288 288 287 287 288 288 287 287 287 287 287 287 287 287 286 288 290 290 290 292 292 293 293 293 293 293 292 294 292 290 289 287 286 285 284 280 279 277 277 279 277 277 278
287 286 286 285 285 285 285 285 286 286 286 286 285 285 285 286 290 292 292 290 289 289 290 291 290 288 290 293 294 294 290 287 286 284 285 282 281 280 279 278 277 275 273
285 285 284 284 284 284 284 284 284 284 284 284 284 284 284 285 290 291 291 289 289 289 289 289 289 288 287 289 291 293 292 292 291 286 285 285 283 280 279 277 278 277 277
284 284 284 283 283 283 282 282 282 283 283 283 283 282 282 284 289 290 290 287 287 287 287 287 288 288 286 286 286 286 288 288 289 289 286 287 284 281 280 280 279 278 277
282 283 283 282 281 282 281 282 282 280 282 280 280 280 280 283 288 289 289 285 285 285 286 286 286 287 287 288 285 284 285 286 288 290 290 288 287 284 283 280 277 275 274
281 281 281 281 277 278 279 280 278 276 280 280 280 279 279 280 285 287 287 285 285 285 285 284 284 285 287 288 285 284 283 284 283 284 284 286 286 285 284 281 278 276 276
279 279 279 279 278 278 277 275 277 277 278 278 277 279 277 278 279 285 287 285 285 285 285 284 283 286 287 287 287 285 284 284 284 282 282 282 282 282 281 281 281 280 277
276 275 275 275 277 279 277 278 277 273 275 279 280 281 279 276 279 283 286 287 287 285 285 285 283 285 286 287 287 287 288 286 283 281 281 280 280 280 280 280 281 281 281
271 271 272 274 275 277 276 277 278 272 279 281 281 282 282 280 277 284 286 287 287 285 286 286 286 285 285 286 287 287 285 283 281 280 279 279 280 280 279 278 277 277 277
267 268 270 271 273 276 278 278 276 277 277 280 283 283 283 284 283 280 279 278 281 284 285 285 285 283 284 283 283 285 284 281 281 280 280 279 279 278 277 277 276 275 274
265 266 267 270 271 273 278 280 281 281 280 280 283 283 282 282 284 284 281 278 279 281 283 281 280 280 279 280 281 283 282 281 280 280 279 277 277 277 277 277 276 274 273
262 264 265 266 268 270 272 275 282 285 285 286 287 286 285 285 286 287 286 286 286 286 283 275 278 278 278 279 280 280 279 280 280 279 278 277 276 276 275 276 275 274 273
260 261 262 264 265 267 269 272 274 279 284 285 286 286 286 286 286 287 287 286 286 285 280 275 277 277 278 278 280 280 278 279 279 278 277 276 276 276 274 274 274 274 273
259 260 260 262 263 265 266 269 271 274 277 279 282 282 284 285 286 286 286 286 282 282 281 278 277 278 278 279 279 280 278 279 278 278 277 276 276 275 274 273 273 272 272
258 259 260 261 263 264 265 267 269 273 276 278 278 279 280 284 285 286 286 283 281 280 279 278 279 279 279 279 280 280 278 278 278 278 277 277 276 275 274 274 273 273 273
259 261 262 262 262 263 265 266 269 272 276 277 277 277 279 280 278 280 283 283 280 280 280 279 279 280 279 279 280 280 280 278 278 278 278 278 277 277 275 275 274 273 272
259 261 262 263 263 264 266 267 269 272 273 276 278 279 282 279 278 280 280 280 280 279 279 279 280 280 279 280 279 279 279 279 279 278 278 278 277 276 277 275 274 274 272
261 261 261 262 264 265 266 268 269 271 273 276 278 277 280 279 278 278 277 277 277 277 277 278 278 278 278 278 278 278 278 277 277 277 277 277 277 277 276 274 273 271 269
260 260 260 261 262 263 264 265 266 266 267 268 268 269 270 269 269 268 267 266 266 267 268 269 273 271 271 271 273 275 277 277 277 278 277 276 274 273 272 270 269 267 266
258 259 259 259 260 261 262 262 263 263 264 264 264 264 264 264 264 264 264 264 264 264 264 265 266 266 267 266 267 268 269 269 270 273 273 271 270 269 268 267 266 265 265
257 257 257 258 259 259 260 261 261 262 262 262 262 262 262 262 262 262 262 262 262 262 261 262 262 263 263 263 264 264 265 265 266 267 267 267 266 265 265 265 264 264 263
255 257 257 258 258 259 259 259 259 260 260 261 261 261 261 261 261 261 261 261 261 261 261 260 260 261 261 263 265 266 267 266 263 264 264 265 264 263 263 262 262 261 260

GFSGL_sfc_thetae_105.txt.gz
Theta_e
296 297 298 298 299 300 300 300 301 301 300 300 301 303 304 304 303 303 303 302 300 300 299 298 297 298 297 296 294 294 293 292 290 295 294 287 284 284 284 286 287 287 289
294 295 295 295 296 296 296 297 297 297 297 297 297 297 298 301 302 301 301 301 299 298 298 297 296 297 296 296 295 292 293 292 291 290 294 283 283 283 284 283 284 285 286
292 291 291 291 292 293 293 293 294 294 294 294 293 294 295 296 298 300 301 300 300 300 299 296 296 295 294 295 294 294 292 292 291 290 291 284 283 282 282 282 283 284 285
290 289 289 289 289 290 290 290 290 291 291 291 291 291 291 291 292 293 293 296 297 298 298 297 296 295 294 294 293 293 292 291 290 289 289 285 281 281 282 280 279 281 281
289 288 287 288 288 288 287 287 287 288 288 289 289 289 289 289 289 291 291 292 293 293 294 294 295 294 293 295 293 293 292 289 289 288 287 286 282 278 278 280 279 280 280
287 286 286 286 286 286 286 285 286 286 287 287 287 287 287 287 289 292 292 290 290 289 290 291 291 289 290 293 294 295 295 290 288 288 287 286 285 282 281 280 279 276 274
284 284 284 284 284 284 284 284 284 284 284 285 285 285 285 286 289 291 291 290 289 289 289 289 289 289 288 290 292 293 294 295 295 290 287 288 287 285 283 280 279 278 278
282 282 282 282 282 282 282 282 283 283 283 283 284 283 283 284 288 290 290 289 288 288 288 289 288 289 289 288 288 288 289 289 291 292 291 290 290 288 283 282 280 279 279
280 280 281 280 279 279 278 280 281 280 282 281 282 281 280 282 286 288 288 286 286 286 287 287 287 287 289 290 287 286 286 287 290 292 293 293 291 289 284 282 279 277 275
277 278 279 279 275 275 277 278 279 278 279 280 281 281 280 280 284 287 287 286 285 285 286 286 285 286 288 289 287 286 285 285 286 285 287 289 288 287 286 283 281 277 277
275 275 275 275 274 275 276 276 276 277 278 277 279 281 279 280 281 285 287 286 285 285 285 286 286 288 288 289 289 286 285 287 286 285 284 284 284 284 284 283 282 280 278
271 271 270 270 272 274 273 275 276 275 276 277 279 281 283 280 280 283 286 287 288 285 285 286 286 288 288 288 288 289 289 288 285 284 282 282 282 282 283 282 282 282 283
266 266 267 268 270 272 273 275 277 278 277 277 278 280 282 284 281 284 287 287 287 285 285 286 287 287 289 288 288 288 286 285 284 282 281 281 282 282 282 281 281 281 280
262 264 266 267 268 269 271 273 275 277 279 279 279 279 281 283 284 286 284 284 283 283 283 282 284 286 287 286 284 285 285 285 283 282 282 282 282 280 278 279 278 278 276
262 263 264 266 265 266 269 270 272 274 277 279 280 281 281 281 283 286 286 285 283 282 282 282 282 282 282 282 283 283 283 284 282 282 281 279 279 278 277 278 277 276 274
260 262 263 263 264 265 266 267 273 276 278 280 282 283 284 285 286 287 288 288 288 288 284 282 280 279 280 280 280 281 282 281 281 281 280 279 278 278 277 277 277 277 274
257 260 261 262 262 263 264 265 265 269 275 277 279 282 284 285 285 285 286 287 287 287 283 282 278 279 279 279 280 281 280 281 281 281 279 279 279 278 276 276 276 276 275
256 258 259 260 261 262 263 264 265 265 265 268 275 279 282 284 284 284 285 286 284 284 283 282 278 279 279 279 280 280 280 280 280 279 278 278 278 277 276 276 275 275 275
258 259 260 260 261 262 262 263 264 265 266 268 272 277 279 282 283 284 284 283 283 282 281 281 280 280 279 280 280 281 280 280 279 278 278 278 277 277 276 276 276 275 275
257 259 260 260 261 262 263 263 265 266 267 269 271 273 276 279 278 278 279 282 283 282 282 280 280 281 280 280 281 281 280 279 279 279 278 278 278 277 276 275 275 274 274
258 259 260 260 260 262 263 264 265 266 267 268 270 272 277 274 277 279 280 281 281 281 281 280 281 281 281 281 280 281 280 279 279 279 279 279 278 277 277 277 276 275 275
257 257 258 258 260 261 262 263 264 264 264 264 265 267 271 268 268 267 268 269 269 270 271 274 280 280 280 281 280 280 279 279 279 279 279 279 279 278 278 277 276 275 273
255 256 257 257 258 259 260 261 262 262 262 263 263 263 264 264 264 264 264 265 266 266 266 268 270 270 270 271 272 275 278 278 278 279 278 278 277 277 277 275 274 272 271
252 253 255 256 256 257 258 259 260 261 261 261 261 262 262 262 262 262 263 263 263 263 263 264 264 264 266 267 268 268 269 271 273 277 278 276 275 274 274 272 271 270 269
251 252 253 254 255 256 256 257 258 258 259 260 260 261 261 261 261 261 262 262 262 262 262 262 262 263 264 265 266 266 267 266 267 268 270 271 271 270 269 269 268 267 266
249 250 251 253 253 253 255 256 256 257 258 259 259 260 260 260 260 260 261 261 261 261 261 261 261 262 263 264 266 269 269 269 266 266 267 268 268 267 267 266 266 265 265

GFSGL_sfc_thetae_108.txt.gz
Theta_e
304 305 305 305 306 307 308 308 308 308 308 309 309 309 308 308 308 306 305 304 302 302 301 300 300 300 299 299 298 296 295 294 291 296 298 298 288 287 287 288 288 288 290
300 301 300 301 302 302 301 302 302 303 303 303 303 304 305 305 305 305 304 304 303 301 301 299 299 299 298 299 297 295 294 294 293 291 295 295 287 287 288 285 286 287 287
297 297 297 297 297 297 297 297 298 299 300 300 299 300 301 301 302 302 302 302 302 302 302 300 299 298 296 297 296 296 295 294 294 292 292 295 287 284 284 285 285 285 286
296 296 295 294 295 295 295 295 295 295 295 296 296 296 296 296 296 297 295 297 298 299 300 300 299 297 296 296 295 295 294 293 292 291 291 291 287 284 284 283 281 283 283
293 293 292 293 293 293 292 292 292 292 292 292 292 293 294 294 293 294 294 293 294 294 295 295 296 295 293 295 295 295 294 292 291 290 290 290 289 279 280 283 282 283 282
289 288 288 288 288 288 289 289 290 290 290 291 291 291 291 290 290 291 292 292 291 290 290 292 293 290 291 292 294 295 295 293 289 290 290 289 289 289 285 283 281 279 277
287 286 285 285 285 285 286 286 287 287 288 289 290 290 290 291 290 290 290 291 290 290 290 290 290 290 289 291 292 293 293 294 295 293 289 290 290 290 288 283 281 281 280
284 283 283 283 282 283 283 283 284 285 286 286 287 287 287 288 289 289 289 290 290 290 290 289 289 289 290 289 289 288 288 289 290 291 292 293 293 292 289 287 284 282 283
281 281 281 281 279 280 279 281 282 283 284 284 285 285 285 286 288 288 288 289 288 288 289 289 289 288 289 289 287 286 287 287 290 292 292 293 294 295 292 286 282 280 278
277 277 278 278 276 276 278 279 281 281 282 283 283 284 284 284 286 287 288 288 286 286 288 288 287 286 288 289 287 286 285 286 287 287 287 288 290 290 292 286 285 280 280
275 275 275 274 274 276 277 277 278 280 280 281 281 283 284 285 285 287 287 287 286 285 285 285 286 288 289 289 289 287 286 288 287 287 286 286 286 286 286 285 285 283 281
271 271 270 271 272 274 274 276 277 279 280 281 282 283 285 286 285 286 287 287 287 285 285 285 286 287 288 288 288 289 290 290 287 286 285 285 284 284 284 285 285 284 285
267 267 269 270 271 272 272 273 275 277 279 280 281 282 283 284 286 286 287 288 288 286 286 287 288 288 287 286 287 288 287 286 285 284 284 284 286 286 285 285 284 283 284
266 267 269 269 269 271 272 273 273 274 275 276 277 279 280 282 283 285 285 285 285 285 286 286 286 286 286 286 285 285 286 285 285 284 284 286 286 284 283 283 281 280 280
265 267 268 269 269 269 271 271 272 274 275 274 276 277 277 278 281 284 285 284 285 286 286 285 284 284 284 284 284 284 284 285 284 284 284 284 283 282 282 281 280 279 277
264 266 267 266 268 268 269 270 273 274 275 276 277 277 278 280 282 283 285 285 286 286 284 284 284 285 283 283 283 283 283 283 284 284 284 283 282 280 279 279 279 278 276
262 264 265 265 266 267 267 267 267 270 273 274 275 276 278 279 281 282 284 284 285 285 283 284 284 284 283 283 283 282 282 283 284 283 283 282 281 280 278 278 277 278 276
260 261 263 265 265 265 266 266 266 266 266 268 273 275 277 279 280 281 283 283 282 284 284 284 284 284 283 283 282 282 282 283 282 282 282 281 281 280 278 277 277 277 276
262 264 263 264 265 264 265 266 267 267 268 269 271 274 275 276 278 280 283 282 281 281 283 284 284 284 283 282 282 282 282 282 282 281 281 280 280 280 278 278 278 277 277
262 261 262 263 264 264 265 266 266 267 267 268 268 269 270 272 271 271 273 274 276 277 280 284 284 284 283 283 283 282 282 282 281 281 281 280 280 280 278 278 278 277 277
262 262 261 263 263 264 264 264 265 265 266 266 266 268 272 267 267 268 268 269 269 269 270 272 275 282 283 283 283 282 282 282 281 281 281 281 280 279 279 278 278 277 277
261 261 262 262 262 263 263 264 264 264 264 264 265 266 269 266 266 266 266 266 267 267 267 268 269 271 272 273 275 280 282 281 282 281 281 281 280 280 279 278 277 277 276
261 261 261 261 262 261 262 263 263 263 263 264 264 264 264 264 264 264 265 265 266 266 266 266 266 266 267 269 270 271 272 275 278 281 281 280 280 280 279 278 278 277 275
259 260 260 260 261 260 261 261 262 261 262 262 263 263 263 263 263 263 263 264 264 265 265 264 264 264 265 267 269 270 270 270 272 274 277 280 279 279 279 278 277 276 274
258 258 259 259 259 259 259 260 260 261 261 261 262 262 262 262 262 263 263 263 263 263 263 263 263 263 264 265 266 269 270 269 268 269 272 274 274 275 275 274 274 273 271
257 257 257 258 258 258 258 259 259 259 259 260 261 261 261 261 262 262 262 262 261 262 263 263 263 262 263 264 266 268 270 271 269 267 269 270 271 271 271 271 270 270 269

GFSGL_sfc_thetae_111.txt.gz
Theta_e
308 307 306 306 307 307 307 307 307 309 309 310 312 313 312 310 309 307 306 305 303 303 302 301 301 302 301 300 299 298 296 296 293 297 299 300 293 291 290 290 291 290 291
303 303 303 304 304 303 303 303 304 304 305 304 304 305 306 306 307 305 304 304 303 301 301 300 300 300 300 300 299 297 296 296 294 293 296 296 296 294 293 291 288 289 289
300 299 299 299 299 298 298 299 299 300 300 301 301 301 301 301 302 303 303 301 301 301 301 300 300 299 296 298 297 297 297 296 295 293 293 296 296 288 287 288 287 287 287
298 297 296 296 296 296 296 296 296 296 296 296 296 296 295 296 296 295 294 296 296 297 298 298 298 298 296 296 296 295 295 294 294 292 292 293 294 291 287 288 285 285 285
293 292 292 292 292 292 292 293 293 292 293 292 292 292 293 293 291 291 292 294 293 292 293 293 294 293 291 294 295 295 294 292 293 292 291 292 292 288 282 287 284 287 286
289 288 288 288 288 288 288 288 288 289 290 290 290 291 291 289 292 292 291 290 290 290 290 290 291 290 290 292 293 294 294 292 290 290 290 290 291 291 291 286 286 284 283
287 286 285 285 285 285 285 285 285 286 287 287 287 288 288 289 291 291 290 288 288 289 289 289 289 289 288 290 291 291 291 292 294 291 289 289 290 291 291 289 286 286 286
284 283 283 283 282 282 283 283 283 284 284 285 285 285 285 285 288 289 289 287 287 288 289 289 288 288 289 288 288 287 287 288 288 289 289 290 290 291 290 290 290 288 286
281 280 280 279 278 279 280 280 281 282 282 283 283 283 283 284 287 287 287 286 286 287 287 288 288 287 288 289 286 285 285 286 289 291 292 292 292 293 292 290 287 285 284
277 277 277 277 276 277 278 278 279 280 281 282 282 283 283 282 286 287 287 286 285 285 286 286 287 286 288 289 286 286 284 285 286 286 287 288 290 289 291 289 287 285 283
275 275 275 274 274 276 276 276 277 278 279 280 281 282 283 283 284 287 288 285 285 284 284 284 285 288 288 288 288 286 285 287 287 287 287 287 287 287 287 287 287 286 284
272 272 272 272 273 275 273 275 275 277 277 279 280 281 283 283 285 286 287 287 287 285 285 285 285 287 288 289 288 289 288 287 285 285 285 285 285 285 286 286 286 286 286
270 270 271 272 273 273 273 274 275 276 276 276 277 277 278 280 281 284 285 286 286 285 285 286 287 288 288 287 287 287 285 285 284 283 283 284 285 286 286 285 285 285 284
269 270 272 271 271 273 273 274 273 274 274 274 274 274 275 277 278 280 281 281 283 284 285 285 286 287 287 287 285 285 285 284 283 283 283 284 285 284 284 285 283 280 280
269 270 270 271 270 271 272 272 273 274 274 273 273 274 274 274 276 280 280 280 281 283 284 284 283 284 284 285 285 285 285 284 283 283 282 282 283 284 283 283 282 280 278
269 269 268 268 269 270 270 270 274 275 275 276 277 276 276 278 279 280 281 282 283 284 282 281 281 282 283 284 284 283 283 283 283 282 282 282 282 282 280 280 280 279 277
264 266 266 267 268 268 268 268 267 270 273 274 275 276 277 278 278 279 280 281 283 284 281 281 281 282 283 284 283 283 282 282 282 282 282 282 282 281 278 278 278 278 277
263 263 265 266 267 267 267 267 267 267 267 268 273 274 275 275 276 277 278 277 275 278 280 280 280 282 283 283 283 282 282 282 282 282 281 282 280 280 278 277 277 277 276
264 265 264 265 266 265 266 267 267 268 267 267 268 270 271 273 274 274 274 270 269 269 270 271 272 274 280 283 282 282 282 282 282 281 281 281 280 280 277 278 277 277 276
264 262 262 264 265 265 266 266 266 266 266 266 266 266 267 269 266 266 267 267 267 266 267 267 268 271 272 272 277 282 282 282 281 281 281 281 280 280 279 278 277 276 276
264 264 261 264 264 265 265 264 265 265 265 265 265 266 271 265 265 265 265 265 265 265 265 265 266 267 268 269 270 272 273 280 282 281 281 281 280 278 278 278 277 277 276
263 263 263 263 264 264 263 264 264 264 264 264 264 265 269 265 264 264 264 264 264 265 266 265 265 266 266 267 268 268 269 269 271 273 279 281 280 279 278 278 277 277 276
262 262 263 263 263 261 263 263 263 263 263 263 263 263 263 263 263 263 263 263 263 263 264 264 264 264 265 266 267 269 268 268 268 270 272 277 279 279 279 278 277 276 276
261 261 261 262 262 261 261 262 262 261 262 262 262 263 262 262 262 262 262 262 262 262 263 263 264 263 263 264 266 267 268 271 269 268 270 272 274 276 278 278 277 276 274
260 260 260 260 260 260 260 261 261 261 261 261 261 261 262 262 261 262 262 262 261 261 262 263 263 263 263 263 264 265 267 269 269 268 268 270 271 272 272 273 274 274 272
259 259 259 259 259 259 259 259 259 259 259 259 260 260 260 260 260 260 260 260 259 259 260 261 262 262 262 263 263 265 267 269 270 267 267 267 268 268 268 269 270 270 270

GFSGL_sfc_thetae_114.txt.gz
Theta_e
305 305 304 305 306 306 305 305 307 306 307 308 308 310 309 308 307 306 305 304 303 302 301 301 301 302 301 300 299 299 298 297 294 297 300 300 295 293 293 292 292 292 292
300 300 300 300 300 299 299 300 301 301 300 300 300 300 300 301 301 300 301 301 301 300 300 299 299 299 299 300 299 298 298 298 295 294 297 297 297 297 295 293 292 291 291
295 295 294 294 294 293 293 294 294 294 294 294 294 294 294 295 295 295 295 296 297 298 298 297 298 298 294 295 296 297 297 297 296 294 294 296 296 296 293 290 290 289 289
293 292 291 291 291 291 291 291 291 291 290 290 290 290 290 291 291 289 289 291 291 291 292 293 294 293 292 292 293 293 294 293 293 293 293 293 293 294 288 290 291 288 288
289 288 287 287 287 287 286 286 285 286 286 286 286 286 286 288 288 287 286 287 287 287 287 288 288 288 289 290 291 291 291 291 291 290 290 291 291 291 290 290 288 289 290
285 285 285 284 283 283 283 283 283 283 283 284 284 284 284 285 291 291 290 285 285 285 286 286 286 286 287 291 292 292 291 288 287 287 287 287 288 290 291 290 290 288 287
282 282 282 282 281 281 282 282 282 282 282 282 283 283 283 284 288 289 289 285 284 284 285 285 286 285 285 285 289 289 288 290 290 288 286 286 286 288 288 287 288 288 288
281 280 280 279 279 280 280 280 280 281 281 282 282 283 283 283 287 288 288 284 284 284 284 285 285 285 287 286 286 286 286 286 286 287 287 287 287 288 287 287 287 287 288
278 278 278 277 277 278 277 278 279 279 280 280 282 281 281 282 286 287 287 284 284 284 284 283 284 285 287 288 286 285 285 285 288 290 290 291 291 292 291 288 286 285 284
277 277 276 276 276 276 277 277 277 278 279 279 280 280 280 280 285 287 286 283 284 284 285 285 285 285 288 288 285 285 283 284 285 285 286 287 288 288 289 288 286 283 284
275 275 275 275 276 275 275 276 275 275 276 275 277 278 278 279 281 285 286 283 283 283 283 283 284 287 287 287 288 285 285 287 287 285 284 284 285 286 287 287 286 285 283
274 273 273 273 275 274 273 274 273 273 272 273 273 274 276 277 280 282 283 284 284 280 280 281 283 286 287 287 286 287 288 288 285 284 282 282 282 283 286 286 286 286 287
272 272 272 273 273 273 272 272 273 272 270 270 273 272 273 276 276 280 280 282 282 280 281 282 284 285 286 285 286 287 286 285 284 282 281 281 282 283 285 284 285 286 286
271 271 272 272 272 272 273 273 270 267 268 270 270 270 272 273 274 276 278 278 280 280 281 281 283 284 285 285 283 284 285 285 284 282 282 282 282 282 282 283 283 283 280
270 271 270 271 270 271 272 269 271 270 270 266 265 270 272 272 274 279 279 278 279 280 281 281 280 280 280 281 282 282 283 283 281 281 281 281 281 280 281 282 279 277 276
269 269 268 269 269 269 269 268 273 274 275 276 276 275 275 278 278 278 279 280 280 281 279 280 279 279 279 279 281 282 277 278 280 281 281 280 280 280 281 277 275 275 275
266 267 267 268 268 267 267 266 265 268 272 274 275 275 276 275 277 277 278 277 275 274 268 269 269 270 271 273 277 281 281 281 280 281 280 281 281 281 277 275 273 274 273
264 264 265 265 265 264 264 264 263 261 262 264 269 273 273 274 275 275 275 270 265 266 265 265 265 267 268 270 271 272 276 280 280 281 281 281 281 279 277 274 274 273 274
263 263 261 261 260 260 259 259 258 256 256 257 258 266 266 272 272 271 270 263 263 263 263 263 264 265 266 267 268 269 271 272 277 281 281 280 280 279 278 275 275 275 274
260 261 261 259 259 258 258 257 257 256 256 256 256 256 263 261 259 261 260 260 261 262 262 263 263 263 264 265 266 267 268 269 270 271 275 280 280 279 278 276 274 274 274
258 258 260 256 256 256 256 255 255 255 255 254 256 257 271 258 255 255 256 257 259 261 262 262 262 263 263 263 264 266 267 268 268 269 270 272 277 279 278 278 276 274 274
257 256 256 256 257 257 254 255 255 255 255 254 255 255 268 255 253 255 255 254 255 256 260 262 262 262 262 263 263 264 265 267 268 267 267 269 272 277 279 278 277 276 273
256 256 256 255 256 256 255 254 254 254 253 252 254 256 253 253 253 254 255 256 255 255 257 260 261 261 262 263 263 264 264 265 268 268 266 267 270 272 274 276 277 275 275
254 254 254 253 253 252 252 252 252 254 254 253 252 254 255 254 254 254 255 255 255 254 253 257 259 259 261 262 262 264 264 266 267 268 267 267 268 269 270 271 273 275 275
251 252 251 251 250 251 251 250 252 250 251 253 254 252 251 254 254 254 254 254 254 254 253 255 256 257 258 260 261 262 263 265 265 268 267 266 266 267 266 268 269 271 271
251 250 250 250 250 250 249 250 251 252 253 254 254 253 253 254 254 254 254 253 254 253 254 254 254 254 255 257 258 262 264 265 266 268 266 265 264 264 265 265 266 267 268

GFSGL_sfc_thetae_117.txt.gz
Theta_e
302 301 303 304 304 303 304 305 304 305 305 305 307 308 307 307 306 305 304 304 302 302 301 300 300 301 301 300 300 300 299 298 294 297 299 300 296 294 294 294 294 295 295
300 298 297 298 299 298 298 299 299 299 299 299 299 299 299 298 298 297 297 299 298 297 299 298 298 299 299 299 299 298 298 298 296 293 295 295 295 296 296 295 295 294 294
295 295 294 294 294 293 293 294 294 293 293 293 292 292 292 292 292 291 292 292 292 292 292 292 293 294 291 291 293 295 296 296 295 293 291 294 294 294 294 294 292 292 291
291 290 289 289 289 289 289 289 289 289 288 288 288 287 288 288 288 286 287 288 288 289 290 290 291 290 288 288 288 288 290 289 290 289 289 289 290 291 289 289 289 291 291
287 286 285 285 285 285 284 284 283 283 284 284 283 283 283 285 287 285 285 285 285 285 286 287 288 287 288 289 288 286 287 287 286 286 286 286 286 286 286 288 287 288 289
284 283 283 282 282 282 282 282 282 282 282 282 282 282 281 283 289 289 287 284 285 285 284 285 286 285 286 289 290 290 289 286 285 285 285 284 284 285 286 286 285 285 283
281 281 281 281 281 281 281 281 281 281 281 281 281 281 281 282 288 288 288 284 284 284 284 284 285 285 284 285 287 288 287 288 288 286 284 284 284 285 285 284 284 284 283
280 279 279 279 279 279 279 279 279 280 280 281 281 281 281 282 287 288 287 284 283 284 284 284 284 284 285 285 285 285 285 285 285 285 285 285 286 286 286 286 285 286 286
278 277 277 278 277 277 275 277 278 278 279 280 281 280 279 281 286 287 285 282 283 282 283 283 284 284 286 288 285 284 284 285 288 289 290 290 291 291 290 286 283 283 282
277 277 277 277 275 274 276 276 277 278 278 279 279 279 278 279 283 285 284 282 281 282 282 283 284 283 286 286 284 284 282 284 284 285 286 287 288 286 287 285 284 282 282
275 275 275 276 274 275 275 276 276 276 277 276 277 276 277 278 279 283 283 281 280 279 279 280 281 283 285 286 286 284 284 285 285 285 285 285 285 284 283 283 284 284 283
274 273 273 274 275 275 275 275 275 275 274 274 273 274 276 276 278 280 281 282 282 279 278 279 280 284 284 285 285 286 287 287 285 284 284 283 283 282 282 282 283 284 285
272 273 273 274 274 275 274 273 273 273 272 272 273 272 273 275 276 278 279 281 280 278 279 281 283 283 284 283 284 285 283 282 282 283 282 281 283 282 282 283 283 284 284
273 273 273 273 272 273 273 273 272 271 271 271 270 270 270 272 274 276 277 277 278 278 279 278 280 283 283 283 278 281 280 282 283 283 282 282 283 282 281 281 280 282 281
272 272 272 271 271 271 272 272 272 272 272 268 267 271 270 271 275 278 278 277 277 277 274 273 272 271 270 271 272 274 277 281 278 280 280 280 281 281 280 280 280 278 276
271 270 270 270 270 270 269 269 274 274 276 276 277 276 274 276 278 278 278 278 276 275 262 263 265 266 266 267 269 269 271 273 276 279 280 280 280 280 279 280 272 272 275
269 269 268 269 268 268 267 267 266 268 273 273 274 275 275 275 276 276 275 273 273 268 257 262 262 263 264 265 266 267 267 269 271 273 276 280 280 279 279 278 277 275 275
266 267 267 267 267 266 265 265 265 264 263 264 268 271 272 273 273 273 271 266 257 259 255 256 260 262 263 263 264 264 266 267 268 269 270 272 277 279 278 277 277 276 275
266 265 265 264 264 264 264 264 263 261 260 259 259 264 265 270 270 269 268 254 254 257 259 259 258 260 261 262 262 263 264 265 267 268 268 269 271 273 278 278 277 276 276
264 263 263 262 262 262 261 261 259 258 258 257 256 257 257 257 255 256 253 251 251 252 254 257 258 259 260 260 261 261 262 263 265 267 267 268 269 271 273 277 277 276 276
263 263 262 261 261 258 256 256 256 254 254 253 253 255 270 256 253 250 250 252 250 251 253 255 259 258 259 260 260 260 261 262 264 266 266 267 267 268 272 273 277 277 276
262 261 260 260 259 258 255 255 255 254 254 253 254 253 266 252 250 249 250 250 251 250 251 252 257 257 258 260 261 260 260 261 262 264 265 266 267 268 269 270 272 274 276
260 260 259 256 257 256 255 253 253 253 253 252 252 252 251 250 249 249 250 251 250 251 253 249 252 256 255 254 257 260 261 260 261 264 264 265 265 266 267 267 269 270 271
256 256 256 254 254 252 251 251 251 252 251 250 249 248 249 249 250 250 251 250 250 251 250 251 250 252 255 255 253 256 259 260 262 263 264 265 264 264 265 265 266 267 269
254 254 255 254 250 251 249 249 249 248 248 248 249 248 248 249 249 250 251 251 251 251 252 251 251 251 252 252 252 253 254 259 259 261 265 264 263 263 263 264 264 265 267
254 253 251 249 248 248 248 249 248 249 249 250 250 249 249 250 251 251 252 251 252 253 251 251 251 251 251 252 252 255 260 262 261 262 263 258 258 260 261 261 262 263 264

GFSGL_sfc_thetae_123.txt.gz
Theta_e
300 304 306 305 306 307 307 306 305 306 307 308 308 307 306 306 306 305 304 303 302 301 301 301 300 301 300 300 299 299 298 297 294 295 295 295 291 290 292 293 293 292 294
295 296 298 300 300 300 300 300 301 301 300 300 301 300 299 299 300 299 298 298 297 296 294 294 292 293 291 291 292 294 294 294 292 288 289 286 286 287 288 287 290 291 291
293 293 294 295 295 295 295 295 295 295 294 294 294 293 292 291 292 291 291 291 290 289 288 288 288 288 285 285 286 286 286 288 286 282 283 283 284 284 285 285 284 285 287
291 291 290 291 291 291 291 290 290 290 289 288 288 287 287 286 286 285 284 284 284 284 285 285 285 284 283 283 284 283 286 285 285 284 284 284 285 285 283 282 283 285 285
288 288 287 287 287 286 286 285 284 284 284 284 285 285 284 285 284 283 283 283 283 283 284 284 285 284 287 287 285 285 284 284 284 283 283 283 283 283 282 284 283 283 285
285 283 284 285 284 284 283 283 283 282 281 281 282 283 283 285 289 288 285 283 283 284 283 284 284 284 285 287 288 288 287 284 283 282 282 281 282 282 282 282 282 281 280
282 281 281 281 281 281 281 280 280 280 280 280 281 282 282 284 288 287 286 283 283 283 283 284 284 284 283 283 286 287 286 287 287 285 282 282 281 283 283 282 283 283 282
281 280 280 280 279 279 279 279 279 279 279 279 279 280 281 284 287 286 285 283 283 283 283 282 282 282 283 283 283 282 283 284 284 284 284 284 284 284 284 285 285 284 284
279 279 278 278 277 277 275 276 276 277 277 276 277 275 277 280 286 285 283 282 282 281 281 281 281 281 283 285 282 281 281 283 285 287 287 288 288 288 287 285 282 281 279
277 277 277 276 274 274 275 274 271 272 276 277 276 274 277 277 284 285 282 281 280 280 280 281 281 281 284 285 282 280 278 280 282 283 283 283 284 284 287 285 283 281 279
276 275 274 274 273 273 271 271 270 273 275 274 275 274 275 277 280 283 283 280 280 278 278 278 280 282 284 285 285 281 281 281 279 278 279 280 283 284 284 284 284 282 279
273 272 271 269 273 271 269 271 276 276 275 273 274 274 276 276 280 281 282 281 281 277 277 277 278 281 280 280 278 280 278 276 274 276 278 279 279 280 281 282 283 283 283
271 269 268 272 275 276 275 274 273 273 273 274 275 274 274 275 276 279 280 280 279 277 275 276 277 276 276 273 276 275 271 270 269 269 270 271 273 277 279 282 283 283 282
270 273 275 275 274 274 274 275 274 274 274 274 274 273 273 274 275 277 277 276 276 274 272 271 272 272 272 271 269 269 268 268 267 266 267 269 271 271 272 276 278 280 279
274 274 274 274 274 272 272 273 274 274 275 273 272 272 271 271 275 278 276 274 272 272 266 265 265 265 265 265 264 264 265 265 264 265 266 266 267 268 269 271 272 276 276
273 273 272 271 272 272 273 273 277 278 278 278 277 274 273 277 277 277 275 275 273 271 262 261 262 262 262 262 261 262 263 263 263 264 264 265 265 266 266 268 269 271 273
273 271 271 271 270 270 271 271 271 275 277 276 277 276 276 276 276 274 272 272 271 265 259 260 260 260 260 260 260 259 259 261 261 262 263 264 264 264 265 265 267 269 269
268 271 271 270 271 271 269 268 270 270 267 267 270 272 274 274 274 272 270 266 259 259 254 253 253 254 255 255 256 254 257 258 259 260 261 262 263 263 263 264 266 266 267
271 271 271 270 269 269 268 268 267 266 266 263 261 268 266 272 272 270 266 256 253 253 251 251 251 250 251 251 252 252 252 254 257 257 259 260 261 262 263 264 264 265 267
270 270 270 268 268 267 267 266 264 261 260 259 259 260 256 259 255 253 251 250 249 249 249 249 248 247 247 248 249 249 250 250 253 252 256 258 260 261 262 262 263 264 265
268 268 268 267 266 266 266 265 264 262 260 260 260 257 264 256 253 249 249 247 247 247 248 247 248 247 247 246 246 247 247 251 250 251 250 254 257 258 261 262 261 263 264
267 266 266 266 265 265 265 265 264 263 261 259 257 256 269 253 250 251 251 248 249 249 249 248 248 248 248 248 247 245 247 249 247 247 249 250 255 257 260 260 259 260 261
266 265 265 265 265 265 263 262 262 261 260 259 257 257 254 253 254 252 253 251 247 247 247 245 247 248 247 246 245 247 248 249 250 247 250 251 252 255 259 257 257 257 258
266 265 265 264 264 263 263 262 261 260 260 259 258 257 256 255 254 252 251 248 246 247 246 246 246 247 248 247 246 246 247 248 248 249 249 250 252 254 256 255 254 254 255
265 265 264 264 263 262 261 261 260 260 259 259 257 256 255 253 252 250 249 248 248 247 248 248 247 247 249 249 249 248 249 254 251 251 250 248 251 254 254 249 249 251 250
264 264 264 263 262 262 261 261 260 259 258 257 256 255 254 253 253 252 250 249 249 249 249 248 248 249 249 249 250 252 255 259 257 256 256 256 256 256 249 249 249 248 249

GFSGL_sfc_thetae_129.txt.gz
Theta_e
303 306 307 306 307 308 309 309 310 309 310 311 311 310 308 307 309 307 306 305 303 301 301 299 298 299 296 296 297 296 295 294 292 293 295 292 291 290 290 291 290 290 290
298 303 302 303 302 302 301 301 302 301 301 301 301 300 299 300 301 301 299 299 297 295 294 293 291 291 289 290 290 289 288 290 290 286 288 288 288 289 289 288 288 288 289
295 296 297 297 298 298 297 297 297 296 295 294 294 293 292 293 293 293 293 291 290 289 288 287 287 287 286 286 287 287 287 287 287 285 284 287 287 287 286 287 286 287 287
293 293 292 292 293 293 293 293 292 292 291 290 289 288 288 288 287 287 287 286 286 286 286 286 286 286 286 286 286 286 286 286 286 285 284 285 285 286 285 284 283 286 285
291 290 289 288 289 288 288 288 287 287 287 287 287 287 286 286 285 285 285 286 285 285 285 285 286 286 287 288 286 286 286 285 284 283 283 283 283 282 281 283 282 284 285
289 287 286 286 285 285 285 285 285 285 286 286 286 286 286 286 288 288 286 285 284 284 283 284 284 284 286 287 287 287 286 284 283 283 282 281 281 282 283 283 283 281 279
286 285 285 284 283 283 283 284 284 284 285 285 285 285 285 286 288 287 285 284 283 283 283 283 282 283 284 285 285 285 284 286 286 284 282 282 282 283 284 282 282 282 281
284 283 282 282 281 280 280 280 281 281 282 282 282 283 284 286 287 286 284 283 282 282 282 282 282 282 284 284 284 283 283 283 284 284 284 283 284 285 285 284 283 282 283
282 281 280 280 279 278 278 278 279 280 280 279 280 280 281 283 286 285 283 282 282 281 281 282 282 282 285 286 283 281 280 280 280 281 282 284 283 283 283 281 278 277 277
280 280 279 278 277 276 277 276 275 276 277 278 278 277 277 280 285 284 283 282 280 280 281 280 283 283 283 282 280 278 276 276 276 275 277 277 277 277 278 277 276 274 275
278 277 276 276 276 276 275 274 275 276 276 275 276 275 276 278 283 284 283 281 280 279 278 278 280 281 281 280 279 277 276 274 272 272 272 273 273 274 274 274 275 274 273
275 274 273 272 275 274 273 272 273 274 273 272 273 274 276 277 281 283 283 282 280 277 277 277 279 279 279 278 276 276 274 271 270 269 269 270 270 270 271 272 273 273 274
272 269 269 271 272 272 273 273 273 272 273 273 274 274 274 277 277 281 281 280 279 276 277 278 278 276 274 274 274 273 269 268 267 266 266 268 269 270 270 270 271 271 272
270 269 269 270 271 271 274 274 274 273 273 274 273 273 274 274 275 277 277 277 277 275 275 273 274 274 272 269 268 268 267 266 265 265 265 266 268 268 267 268 267 269 269
269 270 270 271 272 272 273 273 274 273 275 273 273 273 272 272 274 277 275 272 270 270 265 267 267 267 266 266 265 264 264 264 263 263 263 264 265 265 266 267 267 267 266
270 270 271 272 271 271 272 271 278 278 279 280 279 275 273 277 280 280 279 277 276 274 265 265 265 265 265 264 263 263 262 262 262 262 261 262 262 263 263 265 266 265 264
270 271 271 271 271 270 271 271 273 277 280 281 280 279 278 279 281 280 279 277 276 272 264 263 263 264 263 262 261 261 261 261 259 260 260 260 260 261 261 262 263 263 263
267 268 270 271 271 270 271 271 271 275 275 275 280 279 279 279 280 279 278 273 266 263 261 262 262 261 261 260 260 259 259 258 258 259 259 258 258 258 259 260 261 260 261
268 269 268 268 269 270 270 268 271 271 270 272 270 276 276 279 279 278 277 265 264 262 259 259 259 259 259 258 257 256 256 257 256 256 256 255 256 257 257 258 259 259 259
265 266 267 268 267 268 269 270 270 271 271 270 269 271 266 266 273 271 265 260 261 261 260 260 258 257 257 256 255 254 254 254 255 255 255 255 255 255 256 256 258 258 259
266 266 268 268 269 270 271 271 271 271 271 270 270 270 271 269 270 268 264 261 261 260 260 260 258 256 256 255 253 253 253 255 253 253 253 254 253 254 255 256 256 257 257
264 265 267 269 271 270 271 271 271 271 270 270 270 269 274 270 267 266 265 263 262 262 261 259 258 257 256 255 255 254 253 253 253 252 252 251 252 253 253 254 255 256 257
264 265 267 268 269 269 270 270 270 270 269 269 269 266 266 270 267 266 265 264 262 260 258 256 257 256 255 253 252 254 254 254 254 252 252 252 252 252 252 253 254 254 255
265 266 267 267 268 268 269 269 269 269 269 269 267 266 266 266 266 265 264 262 260 259 258 256 256 256 255 252 251 250 250 251 250 251 250 251 251 251 251 251 253 254 254
266 266 266 267 267 268 268 268 268 268 267 267 266 266 266 265 265 264 263 261 259 258 257 255 255 254 254 253 251 249 249 253 252 250 249 249 250 249 249 250 253 253 252
264 265 266 266 267 267 267 267 267 267 267 266 266 265 265 264 263 263 262 260 259 258 257 257 256 254 254 253 253 253 254 256 253 252 251 250 250 250 251 252 252 253 253

GFSGL_sfc_thetae_132.txt.gz
Theta_e
309 311 312 312 313 313 313 312 313 313 313 315 316 315 311 310 312 311 308 307 304 301 301 300 298 299 297 297 297 296 295 296 296 296 296 293 292 292 292 292 291 291 291
308 309 310 310 310 309 308 306 307 307 305 304 303 304 302 302 303 303 301 301 299 296 294 293 291 291 290 291 291 290 290 291 290 288 290 291 290 290 290 289 289 290 290
305 307 306 306 306 304 303 301 300 299 298 297 297 297 296 297 298 297 295 292 291 290 289 288 288 288 287 288 288 288 289 289 290 288 287 290 290 289 288 289 288 288 289
302 303 302 302 302 302 301 300 298 297 296 294 293 293 293 292 291 288 288 288 288 288 288 288 288 288 288 288 288 288 289 289 289 288 287 287 287 288 287 285 285 288 287
300 299 298 296 297 295 295 294 293 292 291 290 289 288 288 287 286 288 287 288 287 286 287 287 288 288 288 289 290 289 289 288 287 286 285 286 285 284 283 285 284 286 287
298 297 293 293 292 291 290 290 290 290 289 288 288 288 287 286 289 289 288 287 287 287 287 287 288 286 287 287 287 287 288 286 284 285 285 283 283 283 284 283 282 282 281
294 293 291 290 288 288 288 288 288 288 288 287 287 288 288 289 289 288 288 288 288 287 287 286 285 285 286 287 286 286 285 286 286 285 283 283 282 283 283 283 283 282 281
291 289 287 287 286 285 286 286 286 287 287 287 287 288 288 288 288 287 286 287 286 286 286 286 285 285 286 286 285 284 284 283 282 283 283 283 283 283 282 282 281 281 282
287 286 285 285 284 283 283 284 284 285 285 285 285 286 286 287 287 286 285 285 284 283 284 284 285 285 285 286 284 282 282 280 281 281 282 281 280 280 280 280 277 276 276
286 285 284 284 284 283 283 282 283 285 284 284 284 284 284 285 286 286 285 285 283 282 282 283 283 284 283 283 282 280 278 277 278 277 278 278 278 278 277 277 276 274 275
284 282 282 282 282 283 282 281 282 283 282 282 282 283 283 284 285 285 284 284 284 283 282 281 282 282 282 280 280 279 278 276 275 275 276 276 276 276 276 276 276 274 273
281 281 280 280 281 280 280 279 281 281 280 280 281 281 282 282 283 284 283 283 283 283 281 281 281 281 280 279 278 277 275 274 275 274 274 274 273 273 274 274 274 274 275
279 279 278 278 279 279 279 279 279 280 281 280 280 281 280 280 282 283 283 282 280 280 280 280 280 279 279 277 275 273 271 273 273 272 272 272 272 272 272 273 273 274 274
278 277 276 277 277 277 279 280 280 279 280 280 280 280 280 280 280 281 282 281 279 278 279 279 278 275 273 273 272 271 271 271 271 271 270 270 271 271 271 271 270 271 271
277 276 277 277 277 278 279 280 280 281 281 281 281 281 280 279 280 281 280 279 278 277 274 275 273 272 272 271 270 269 269 269 269 269 269 269 269 269 269 270 269 269 268
277 276 277 278 278 278 278 278 279 280 280 280 281 281 281 280 280 281 280 279 278 277 271 272 272 272 272 271 270 268 268 266 267 267 267 267 267 267 267 268 268 267 267
278 277 277 276 277 277 276 277 277 279 281 281 282 282 281 280 281 282 281 280 279 277 271 272 272 271 271 270 269 268 268 266 263 265 265 265 265 265 265 266 266 266 266
274 273 277 277 277 277 277 277 277 278 278 279 282 282 282 281 281 282 282 280 276 277 271 271 271 270 270 269 268 267 266 264 264 264 264 264 263 263 264 265 265 263 264
274 275 276 277 277 276 277 277 277 277 278 280 279 279 281 281 281 282 282 277 273 271 269 268 270 269 268 267 266 265 264 264 263 262 263 261 262 262 263 262 263 261 260
272 271 272 275 275 274 275 275 275 276 276 277 276 277 279 275 278 279 279 278 273 272 270 268 268 267 267 265 264 263 261 261 261 261 261 262 262 261 261 261 261 261 262
273 273 271 273 274 274 274 274 275 276 275 276 277 277 278 275 276 278 278 273 272 271 269 268 267 265 265 264 263 262 261 262 262 261 261 261 260 260 261 261 260 260 260
271 271 272 273 274 274 274 275 275 275 275 275 276 277 278 277 275 276 276 274 272 271 270 268 267 265 264 263 262 262 261 260 261 259 260 259 259 259 259 259 259 260 260
270 270 271 271 272 272 273 273 274 274 274 275 275 275 274 275 275 274 274 274 271 269 268 266 266 264 264 263 263 263 261 261 261 261 260 259 259 259 259 259 259 258 259
269 269 269 270 270 270 271 272 272 272 272 274 274 274 274 272 273 274 272 272 270 268 266 264 264 264 263 262 261 260 260 261 260 259 258 258 258 258 257 257 257 257 258
266 267 268 268 269 269 270 270 271 271 272 272 272 273 272 272 271 271 272 270 267 266 265 263 263 262 262 260 260 258 258 259 257 256 256 256 256 256 256 256 256 257 257
265 265 266 267 267 268 268 269 269 270 270 270 271 271 271 270 270 270 270 268 267 266 265 263 262 261 260 260 260 259 259 259 256 256 255 255 255 255 255 255 255 256 257

GFSGL_sfc_thetae_135.txt.gz
Theta_e
313 313 314 314 314 315 314 314 313 315 317 317 318 317 315 315 315 315 311 309 305 302 301 299 297 298 296 296 295 295 294 297 296 293 293 292 292 290 291 291 291 290 290
311 312 312 313 313 313 312 310 311 309 308 308 308 308 306 305 305 305 302 302 300 296 295 293 291 292 290 291 291 290 290 291 291 289 289 289 290 290 289 289 289 289 289
309 310 310 310 309 306 304 303 302 302 300 299 299 298 298 297 297 295 294 293 292 291 291 290 289 289 288 289 289 288 289 289 290 288 288 289 289 289 286 287 287 287 289
307 307 307 307 307 305 302 300 299 298 296 294 294 293 293 292 291 290 290 289 288 288 289 289 289 288 288 289 289 288 289 288 288 288 287 286 286 286 285 284 283 285 285
304 304 303 301 301 300 299 298 296 294 293 292 291 290 290 290 288 288 287 288 287 287 288 288 289 288 288 290 290 289 288 287 287 286 285 285 284 283 282 283 282 283 284
302 301 298 298 295 294 292 292 291 291 290 290 289 288 288 286 290 290 288 287 287 286 286 287 287 286 287 288 288 288 288 286 284 285 284 282 282 282 282 282 282 280 277
298 295 293 292 290 291 290 290 289 289 289 288 288 289 288 288 290 289 289 288 287 287 287 286 285 285 286 286 286 286 286 286 286 285 282 282 281 282 282 279 278 279 278
294 291 290 290 288 287 288 287 288 288 287 287 287 288 288 287 289 288 288 287 287 286 286 285 285 285 286 285 285 284 284 282 282 283 283 282 282 281 280 279 279 277 279
290 289 288 288 286 285 285 286 286 286 286 286 286 286 286 286 288 287 286 285 284 284 284 284 285 284 286 286 284 281 282 280 281 282 282 281 280 280 279 278 273 272 272
289 288 287 286 285 284 285 284 285 285 285 284 284 285 284 285 287 286 286 285 283 282 283 283 283 284 284 285 282 280 276 278 278 276 278 279 278 278 277 277 275 269 271
286 285 284 284 284 284 284 283 284 284 283 284 283 283 283 284 285 286 285 285 284 282 282 282 282 283 283 282 281 280 278 278 275 274 275 276 276 276 276 275 275 273 269
283 282 282 282 282 283 283 282 283 283 283 282 282 282 283 282 284 285 285 284 285 283 282 282 281 283 282 280 279 279 277 276 274 273 273 273 274 274 274 273 273 273 274
281 281 281 281 282 282 282 281 281 282 282 281 281 281 281 281 282 285 284 283 283 282 282 282 282 282 281 278 277 276 272 273 272 271 271 272 272 272 272 272 272 273 273
281 280 279 280 280 280 281 282 282 281 281 282 281 281 282 280 281 282 282 282 280 280 280 280 280 280 278 276 273 272 272 272 271 271 271 271 272 271 269 270 267 268 267
281 279 279 280 279 280 280 281 281 282 283 282 282 282 282 280 281 282 282 281 279 280 277 276 275 273 271 271 271 270 270 268 268 269 269 270 269 269 268 268 267 265 264
280 279 280 279 279 280 280 279 281 282 283 282 283 283 282 283 284 284 283 283 282 281 273 273 273 272 272 271 270 269 269 267 269 268 268 268 267 267 266 265 266 263 262
281 280 280 278 279 279 278 278 278 280 282 282 282 283 283 283 282 282 283 282 281 280 272 273 273 273 273 273 271 271 268 269 266 267 267 266 266 265 262 263 264 263 262
277 276 279 279 279 279 278 278 278 278 279 280 282 282 283 283 283 282 283 283 279 279 275 272 272 273 273 272 271 270 269 265 263 265 265 264 263 264 263 262 262 259 259
276 277 277 278 279 278 278 278 278 278 278 278 280 281 280 283 283 283 283 281 278 276 277 274 272 272 272 271 270 269 268 266 265 264 264 263 262 262 262 261 260 259 258
275 272 272 277 277 277 276 276 276 276 276 276 277 279 279 279 279 279 280 280 279 277 276 273 271 271 271 270 269 267 265 264 263 262 263 263 262 262 261 260 258 258 257
274 275 271 273 275 275 275 275 275 275 275 276 276 278 280 278 277 278 279 279 279 278 275 274 271 270 269 269 267 265 264 264 263 262 262 262 262 261 260 261 257 256 255
272 272 273 273 274 275 275 275 275 275 275 275 275 277 280 278 278 277 278 279 280 279 277 275 272 271 269 268 266 265 263 263 263 263 262 262 261 260 259 259 256 257 256
271 271 271 272 273 273 273 273 273 273 274 274 275 275 276 276 276 277 277 277 278 278 276 274 272 270 269 267 267 266 264 263 264 263 261 261 259 260 259 259 257 255 255
268 269 269 270 270 270 271 271 271 271 272 272 272 273 274 274 275 274 275 276 276 276 273 272 271 270 268 267 266 265 265 265 264 263 262 261 260 260 259 258 258 256 256
265 266 267 267 268 268 269 269 269 270 270 270 271 271 272 272 272 273 273 273 273 274 272 270 269 269 268 266 265 264 263 265 263 262 261 260 260 259 258 257 257 256 256
263 264 265 265 266 266 266 266 267 267 267 268 268 269 269 270 270 270 271 271 270 271 269 269 267 266 266 266 264 263 263 263 261 259 259 258 257 257 257 255 255 255 256

GFSGL_sfc_thetae_141.txt.gz
Theta_e
310 311 311 311 310 310 311 311 311 311 314 315 314 313 312 311 311 313 312 311 308 305 304 304 301 301 300 300 301 300 300 300 297 291 292 291 288 287 286 286 286 284 284
307 308 308 307 307 305 304 305 304 302 302 303 307 307 306 306 306 308 306 305 303 301 299 298 297 297 297 297 297 294 294 292 294 287 285 285 285 284 284 283 285 286 283
304 305 304 304 304 302 301 300 300 299 299 299 300 302 301 299 300 301 301 300 299 297 296 295 294 294 291 290 290 289 289 287 285 283 282 284 283 282 281 281 281 280 283
303 303 301 301 301 300 300 300 298 298 297 297 297 296 296 296 296 294 294 294 294 293 292 292 291 291 289 288 287 285 284 283 283 281 280 281 281 282 280 277 277 276 278
300 299 298 298 299 300 298 297 296 294 294 293 292 292 292 293 291 291 290 290 289 288 288 288 288 287 288 287 285 284 284 282 281 280 279 279 279 279 278 278 277 275 276
297 296 294 294 292 293 292 290 290 289 289 288 286 286 286 288 292 292 290 288 287 286 285 285 286 285 288 290 290 289 287 284 280 279 278 279 280 279 278 276 276 271 269
293 291 289 288 287 287 287 287 286 285 285 284 284 284 284 286 291 291 289 286 285 285 284 284 284 284 284 285 288 288 286 288 287 283 280 280 279 279 279 275 273 273 271
288 287 287 287 286 285 285 285 284 284 284 283 283 283 284 286 291 290 287 284 284 284 284 283 283 283 283 283 283 282 281 281 281 282 281 280 279 279 278 276 273 270 271
287 286 285 285 283 284 283 283 282 281 280 279 282 280 282 282 290 290 286 283 283 283 283 283 283 283 286 286 283 281 279 279 283 284 283 283 282 281 278 272 263 262 262
286 286 285 283 283 281 281 280 281 281 280 281 283 283 279 281 289 288 285 282 281 281 282 283 283 283 287 287 281 278 274 277 277 273 277 280 280 278 278 276 271 261 261
284 283 281 280 280 280 278 275 277 278 279 276 278 279 281 279 282 288 287 282 281 280 280 280 282 286 286 287 286 279 277 278 277 271 271 272 273 273 273 273 274 268 260
281 280 278 277 280 279 278 273 275 277 276 275 275 274 276 277 282 287 287 286 285 280 280 280 281 285 285 285 283 282 284 280 268 266 264 268 270 270 271 271 271 271 273
279 277 275 276 277 276 277 276 275 274 275 275 276 276 276 279 279 286 287 286 286 280 280 282 283 285 285 283 283 281 274 269 266 263 266 269 269 270 270 268 269 268 268
277 276 276 277 275 274 275 276 276 274 273 275 275 275 275 277 277 276 278 281 282 281 281 279 282 282 282 277 274 277 271 268 268 266 266 268 268 265 264 266 262 264 261
276 275 275 275 275 274 274 275 276 274 278 275 276 275 274 275 277 280 279 275 276 277 269 268 267 268 270 269 268 268 267 266 266 263 263 265 267 267 266 265 264 261 262
275 274 274 274 272 273 273 272 282 282 284 285 284 281 277 283 284 285 285 284 283 282 270 265 267 272 273 273 271 270 268 267 268 267 266 267 267 267 267 264 265 263 262
273 273 272 272 272 271 270 271 271 277 283 284 284 284 284 284 284 285 285 285 285 284 279 276 274 273 273 272 270 270 270 270 271 268 268 267 267 266 265 265 265 265 263
271 270 270 269 270 269 270 272 271 270 272 273 279 282 283 284 284 284 284 283 280 282 281 279 276 275 273 272 271 271 271 271 269 269 268 267 266 266 265 264 265 264 264
270 269 270 269 269 271 272 270 269 268 270 271 270 276 274 281 284 284 284 281 279 279 280 279 280 278 274 272 273 273 273 272 270 269 268 267 267 266 265 265 265 265 264
270 269 271 271 273 273 270 269 267 270 271 270 269 268 269 270 270 271 270 272 279 280 280 279 280 280 276 273 273 274 272 272 269 268 268 268 267 266 266 265 264 264 263
270 270 271 272 272 271 269 268 271 270 269 270 269 269 278 276 276 275 277 277 278 278 279 279 279 279 275 274 274 273 272 272 270 268 268 268 267 265 265 265 265 264 263
271 271 271 270 269 268 268 269 270 270 269 270 269 270 276 271 272 270 270 272 276 278 278 278 278 278 277 273 273 273 272 270 270 268 268 268 267 266 265 264 264 263 262
268 268 268 266 266 267 267 267 268 268 266 266 266 267 266 264 264 265 269 270 273 273 273 274 274 273 273 271 272 273 272 270 269 269 268 267 266 265 265 264 263 262 261
265 265 265 265 266 266 266 266 266 266 266 263 261 263 264 264 264 264 264 263 264 263 262 263 267 267 268 268 271 271 271 271 271 270 268 267 266 265 264 263 263 262 262
262 262 261 261 262 263 263 263 263 263 262 262 260 259 258 259 260 260 260 260 262 262 262 262 260 262 262 263 265 265 268 269 269 269 268 266 266 265 264 263 262 261 261
260 259 259 259 261 261 261 261 261 261 260 261 259 258 258 258 259 259 259 258 258 257 259 257 258 260 260 262 262 264 267 269 268 268 267 266 264 264 263 262 261 261 260

GFSGL_sfc_thetae_144.txt.gz
Theta_e
314 314 314 314 314 314 315 317 318 316 317 317 316 317 315 314 313 314 313 313 312 309 307 308 306 304 303 303 303 303 302 302 297 291 291 290 289 288 286 285 285 284 284
308 310 311 310 309 308 307 307 308 304 305 306 310 310 308 307 308 309 308 307 307 305 303 302 301 299 299 299 299 297 298 295 296 289 287 287 286 285 284 283 284 285 282
306 308 306 306 305 303 301 300 300 299 299 299 300 303 303 303 304 304 305 304 303 302 299 298 297 297 294 293 293 292 291 289 288 285 283 284 283 283 281 282 281 280 282
304 304 303 301 301 300 298 298 297 297 296 296 298 299 299 299 296 296 297 297 296 295 295 295 294 294 292 291 289 287 286 284 283 282 281 282 282 282 280 279 278 277 277
301 301 299 298 299 298 297 296 295 295 294 294 294 294 294 295 293 292 292 292 291 290 289 290 290 289 289 289 286 284 285 282 281 281 281 281 281 280 280 279 278 276 275
300 298 297 297 295 294 294 292 292 291 291 290 290 290 290 289 293 293 291 290 289 287 286 286 287 286 288 289 289 289 287 284 280 281 280 281 281 281 280 277 276 270 269
295 293 292 291 292 292 291 290 289 289 288 288 287 287 286 289 292 292 290 288 287 286 286 285 285 285 285 286 289 290 288 289 287 284 281 281 281 281 280 275 274 273 271
290 290 288 289 289 289 289 288 287 286 285 283 283 284 284 285 292 290 288 284 283 283 283 284 284 283 284 284 283 283 282 282 282 283 283 282 281 281 279 277 274 271 270
289 289 288 288 286 285 286 285 281 281 280 279 280 279 281 282 290 289 285 283 283 283 283 283 283 283 286 287 282 280 280 280 283 284 283 284 284 283 280 274 264 263 262
289 289 287 285 286 284 283 281 279 277 280 282 282 277 278 279 290 289 285 282 280 281 282 282 283 283 287 287 282 279 277 278 279 276 278 281 282 280 281 276 272 262 261
286 285 284 283 283 282 279 277 281 278 278 279 281 281 278 278 283 289 287 282 280 279 280 279 281 286 287 288 287 280 279 279 279 274 272 273 274 274 274 274 274 269 261
284 283 280 279 281 280 279 275 277 278 276 275 279 279 279 276 281 288 288 285 284 277 278 279 280 286 287 287 286 285 285 283 270 267 267 270 272 272 272 272 271 271 272
282 280 278 277 278 278 278 277 276 275 276 275 276 276 277 277 277 287 287 287 286 279 279 281 283 285 286 285 286 285 279 271 268 267 270 272 271 272 271 269 270 270 268
280 278 277 277 274 272 275 276 278 276 274 274 272 272 271 273 274 275 277 277 282 281 281 278 282 283 284 281 276 280 273 271 271 270 269 270 270 268 268 268 264 265 262
279 277 275 276 275 273 274 273 275 273 275 271 270 272 271 269 274 279 277 273 273 276 268 269 270 270 272 272 271 270 269 269 268 267 267 268 268 268 268 267 265 262 263
277 276 276 275 274 274 274 273 282 282 284 284 283 277 273 281 284 285 285 285 284 283 271 267 268 271 273 273 271 271 270 269 269 268 268 268 269 269 268 266 265 265 265
276 274 274 274 274 273 272 274 273 275 283 284 284 284 284 284 284 284 285 285 285 284 279 277 275 273 274 272 272 270 271 270 271 269 269 270 269 269 268 267 267 266 265
274 273 274 272 272 271 271 270 269 269 269 272 279 280 283 284 284 284 285 284 276 279 281 280 278 277 276 275 274 272 272 270 269 270 270 269 269 269 267 266 267 266 266
273 272 272 271 270 270 270 270 269 269 270 267 268 273 272 279 281 283 284 280 279 279 279 280 280 279 277 276 274 272 272 272 271 270 269 269 268 268 267 268 267 267 267
270 271 271 271 270 269 269 269 269 271 271 269 268 264 264 266 268 269 269 269 270 271 275 278 278 279 279 277 274 273 273 272 272 270 270 270 269 268 267 267 267 266 266
269 269 269 269 268 268 270 270 272 271 270 270 269 269 277 272 273 272 272 273 273 274 275 276 277 277 276 272 272 273 272 272 271 271 269 269 269 267 267 267 267 266 266
268 268 269 269 268 269 270 271 269 270 270 270 269 270 275 270 269 268 266 266 267 269 272 273 272 273 273 272 271 271 271 271 271 270 269 268 268 267 266 266 265 265 265
267 267 266 266 267 269 269 268 267 269 268 266 266 267 267 265 263 263 262 263 265 267 267 264 264 265 264 264 266 268 269 269 270 269 269 267 267 266 265 265 265 264 264
266 265 266 266 267 267 266 265 265 266 265 264 262 261 261 260 260 261 262 261 260 261 262 260 260 261 260 260 262 262 263 267 268 268 267 267 267 265 265 264 264 263 263
264 264 263 264 264 264 264 262 261 259 260 262 259 258 259 259 258 257 258 257 257 257 259 260 260 260 259 259 260 260 260 263 263 264 265 264 265 264 265 264 263 263 262
261 261 261 261 260 258 257 257 256 257 258 258 258 258 257 257 258 257 257 257 257 257 258 258 259 259 258 259 257 261 264 266 265 263 263 264 264 264 263 262 261 261 261

GFSGL_sfc_thetae_147.txt.gz
Theta_e
320 321 322 322 322 323 320 321 322 322 323 322 321 320 319 316 316 317 316 315 315 312 310 310 308 307 306 305 304 304 304 304 299 291 292 291 289 288 288 287 286 284 284
318 319 319 318 317 318 319 315 317 318 315 316 315 314 311 308 310 311 310 309 310 308 306 304 304 301 301 301 301 300 300 299 297 290 288 287 287 287 286 284 284 285 283
310 312 309 310 312 312 310 306 305 307 305 305 306 306 306 306 306 306 306 305 304 304 302 301 300 299 296 295 296 295 294 291 291 288 285 286 285 285 282 282 282 281 282
307 308 307 306 307 305 302 301 300 301 301 300 301 300 299 301 300 298 298 299 299 298 297 297 296 296 295 294 292 291 288 287 286 285 282 282 283 282 280 280 280 279 279
305 305 304 301 301 300 298 298 297 297 296 296 296 296 296 297 295 295 295 295 294 292 292 292 293 291 291 292 289 287 286 285 281 281 280 281 281 280 280 280 279 278 277
302 301 298 298 297 295 295 293 292 291 291 290 290 291 292 290 294 295 293 292 291 289 288 287 288 286 288 289 289 289 286 283 280 280 279 280 281 281 281 279 278 274 271
297 296 296 294 293 292 290 290 289 289 288 288 289 290 290 290 293 293 292 290 289 289 287 286 286 286 286 287 290 290 288 289 287 283 281 281 281 282 281 278 276 274 272
292 293 292 292 291 289 290 289 287 287 288 288 288 288 288 288 293 292 289 288 287 287 286 285 285 284 284 284 283 283 283 282 282 283 282 282 282 282 281 279 276 272 272
291 292 291 293 291 289 289 288 286 286 285 284 283 281 281 282 291 290 287 283 284 283 283 283 283 283 286 287 282 279 279 280 283 285 284 284 285 284 281 275 268 269 268
292 291 291 290 290 289 288 286 284 284 282 281 280 277 278 278 290 290 285 282 279 280 282 282 282 281 287 288 280 277 273 277 277 275 278 282 283 282 283 277 274 269 268
288 287 286 287 288 288 285 282 282 279 281 282 281 280 278 277 283 289 287 282 280 278 278 278 280 286 287 288 286 278 278 278 276 272 273 275 276 276 276 276 275 272 267
287 286 285 284 283 283 283 281 279 279 278 280 280 279 280 277 281 288 288 285 284 276 277 278 280 286 287 288 286 286 286 283 269 267 267 269 271 273 274 274 273 273 273
286 285 283 281 281 282 281 279 278 277 277 278 279 279 278 277 276 287 288 287 286 278 278 281 283 285 287 285 287 287 278 270 268 273 267 270 272 274 273 271 271 271 270
285 283 282 280 278 279 280 280 279 278 276 276 275 274 274 275 274 275 277 277 282 280 281 276 281 283 284 281 276 277 273 270 269 268 269 270 271 269 268 270 267 267 264
283 281 281 280 279 277 277 279 278 275 278 275 273 274 272 271 275 280 277 272 271 275 271 268 268 268 271 273 272 271 271 268 268 267 267 268 269 269 269 269 267 265 265
280 280 279 278 278 278 278 277 283 282 284 283 282 277 272 281 284 284 285 285 284 283 275 269 268 269 270 271 272 273 271 270 270 269 269 269 269 269 269 265 268 264 265
281 278 277 277 278 277 277 278 276 280 285 285 285 285 284 283 284 285 285 285 285 284 279 277 275 272 272 273 274 273 272 272 271 269 270 270 268 269 269 268 268 267 266
278 278 278 277 277 276 276 274 275 276 273 268 278 280 283 284 284 284 284 283 276 277 280 279 278 277 276 276 275 274 272 270 268 269 269 269 269 269 268 267 267 267 267
277 276 276 275 274 273 272 271 271 271 269 265 265 273 273 280 282 283 283 279 279 278 277 278 278 278 276 274 274 275 274 273 271 270 267 268 269 268 267 268 268 267 267
274 275 275 274 273 272 272 271 270 270 268 267 267 266 268 272 272 270 271 270 271 273 272 273 275 276 278 278 275 273 272 270 271 271 270 269 267 268 268 267 267 266 266
274 273 272 272 272 271 270 270 269 269 268 264 266 267 275 272 271 272 270 266 267 269 270 271 271 271 271 270 269 269 268 268 268 269 268 267 265 266 267 268 267 265 265
272 271 271 270 270 269 268 269 269 269 270 269 268 270 274 268 268 266 264 263 264 265 267 266 265 266 265 265 265 263 262 263 263 265 268 267 268 267 266 266 264 264 264
270 269 268 267 268 267 267 267 269 266 268 267 264 263 262 264 262 262 261 260 259 260 261 259 258 258 258 257 256 258 259 262 265 263 265 266 264 264 264 265 264 264 263
268 267 267 267 267 267 267 266 266 266 264 263 260 261 258 256 258 258 257 257 257 255 255 256 256 256 256 256 256 256 256 256 258 260 260 263 262 261 261 263 264 264 263
266 266 265 265 265 265 265 264 262 261 260 260 257 256 255 256 256 255 255 255 255 254 255 255 256 256 255 254 254 253 254 260 258 257 256 257 260 260 261 262 263 262 262
263 263 262 262 261 261 260 260 259 259 257 256 255 255 255 255 255 255 254 253 254 253 254 254 255 253 252 253 253 257 262 264 261 260 260 260 260 259 259 260 261 261 261